[[{"header":{"parameterUnit":"m.s-1","parameterCategory":1,"la1":31.0,"la2":29.5877,"lo1":-88.7671,"lo2":-86.6584,"dy":0.0162,"dx":0.0185,"nx":115,"ny":88,"refTime":"2023-08-19T12:00:00:Z","depth":0,"parameterNumber":2,"parameterNumberName":"U-component_of_WINDS"},"data":[0.0,0.0,0.0,0.0,0.0,0.0,0.0,0.0,0.0,0.0,0.0,0.0,0.0,0.0,0.0,0.0,0.0,0.0,0.0,0.0,0.0,0.0,0.0,0.0,0.0,0.0,0.0,0.0,0.0,0.0,0.0,0.0,0.0,0.0,0.0,0.0,0.0,0.0,0.0,0.0,0.0,0.0,0.0,0.0,0.0,0.0,0.0,0.0,0.0,0.0,0.0,0.0,0.0,0.0,0.0,0.0,0.0,0.0,0.0,0.0,0.0,0.0,0.0,0.0,0.0,0.0,0.0,0.0,0.0,0.0,0.0,0.0,0.0,0.0,0.0,0.0,0.0,0.0,0.0,0.0,0.0,0.0,0.0,0.0,0.0,0.0,0.0,0.0,0.0,0.0,0.0,0.0,0.0,0.0,0.0,0.0,0.0,0.0,0.0,0.0,0.0,0.0,0.0,0.0,0.0,0.0,0.0,0.0,0.0,0.0,0.0,0.0,0.0,0.0,0.0,0.0,0.0,0.0,0.0,0.0,0.0,0.0,0.0,0.0,0.0,0.0,0.0,0.0,0.0,0.0,0.0,0.0,0.0,0.0,0.0,0.0,0.0,0.0,0.0,0.0,0.0,0.0,0.0,0.0,0.0,0.0,0.0,0.0,0.0,0.0,0.0,0.0,0.0,0.0,0.0,0.0,0.0,0.0,0.0,0.0,0.0,0.0,0.0,0.0,0.0,0.0,0.0,0.0,0.0,0.0,0.0,0.0,0.0,0.0,0.0,0.0,0.0,0.0,0.0,0.0,0.0,0.0,0.0,0.0,0.0,0.0,0.0,0.0,0.0,0.0,0.0,0.0,0.0,0.0,0.0,0.0,0.0,0.0,0.0,0.0,0.0,0.0,0.0,0.0,0.0,0.0,0.0,0.0,0.0,0.0,0.0,0.0,0.0,0.0,0.0,0.0,0.0,0.0,0.0,0.0,0.0,0.0,0.0,0.0,0.0,0.0,0.0,0.0,0.0,0.0,0.0,0.0,0.0,0.0,0.0,0.0,0.0,0.0,0.0,0.0,0.0,0.0,0.0,0.0,0.0,0.0,0.0,0.0,0.0,0.0,0.0,0.0,0.0,0.0,0.0,0.0,0.0,0.0,0.0,0.0,0.0,0.0,0.0,0.0,0.0,0.0,0.0,0.0,0.0,0.0,0.0,0.0,0.0,0.0,0.0,0.0,0.0,0.0,0.0,0.0,0.0,0.0,0.0,0.0,0.0,0.0,0.0,0.0,0.0,0.0,0.0,0.0,0.0,0.0,0.0,0.0,0.0,0.0,0.0,0.0,0.0,0.0,0.0,0.0,0.0,0.0,0.0,0.0,0.0,0.0,0.0,0.0,0.0,0.0,0.0,0.0,0.0,0.0,0.0,0.0,0.0,0.0,0.0,0.0,0.0,0.0,0.0,0.0,0.0,0.0,0.0,0.0,0.0,0.0,0.0,0.0,0.0,0.0,0.0,0.0,0.0,0.0,0.0,0.0,0.0,0.0,0.0,0.0,0.0,0.0,0.0,0.0,0.0,0.0,0.0,0.0,0.0,0.0,0.0,0.0,0.0,0.0,0.0,0.0,0.0,0.0,0.0,0.0,0.0,0.0,0.0,0.0,0.0,0.0,0.0,0.0,0.0,0.0,0.0,0.0,0.0,0.0,0.0,0.0,0.0,0.0,0.0,0.0,0.0,0.0,0.0,0.0,0.0,0.0,0.0,0.0,0.0,0.0,0.0,0.0,0.0,0.0,0.0,0.0,0.0,0.0,0.0,0.0,0.0,0.0,0.0,0.0,0.0,0.0,0.0,0.0,0.0,0.0,0.0,0.0,0.0,0.0,0.0,0.0,0.0,0.0,0.0,0.0,0.0,0.0,0.0,0.0,0.0,0.0,0.0,0.0,0.0,0.0,0.0,0.0,0.0,0.0,0.0,0.0,0.0,0.0,0.0,0.0,0.0,0.0,0.0,0.0,0.0,0.0,0.0,0.0,0.0,0.0,0.0,0.0,0.0,0.0,0.0,0.0,0.0,0.0,0.0,0.0,0.0,0.0,0.0,0.0,0.0,0.0,0.0,0.0,0.0,0.0,0.0,0.0,0.0,0.0,0.0,0.0,0.0,0.0,0.0,0.0,0.0,0.0,0.0,0.0,0.0,0.0,0.0,0.0,0.0,0.0,0.0,0.0,0.0,0.0,0.0,0.0,0.0,0.0,0.0,0.0,0.0,0.0,0.0,0.0,0.0,0.0,0.0,0.0,0.0,0.0,0.0,0.0,0.0,0.0,0.0,0.0,0.0,0.0,0.0,0.0,0.0,0.0,0.0,0.0,0.0,0.0,0.0,0.0,0.0,0.0,0.0,0.0,0.0,0.0,0.0,0.0,0.0,0.0,0.0,0.0,0.0,0.0,0.0,0.0,0.0,0.0,0.0,0.0,0.0,0.0,0.0,0.0,0.0,0.0,0.0,0.0,0.0,0.0,0.0,0.0,0.0,0.0,0.0,0.0,0.0,0.0,0.0,0.0,0.0,0.0,0.0,0.0,0.0,0.0,0.0,0.0,0.0,0.0,0.0,0.0,0.0,0.0,0.0,0.0,0.0,0.0,0.0,0.0,0.0,0.0,0.0,0.0,0.0,0.0,0.0,0.0,0.0,0.0,0.0,0.0,0.0,0.0,0.0,0.0,0.0,0.0,0.0,0.0,0.0,0.0,0.0,0.0,0.0,0.0,0.0,0.0,0.0,0.0,0.0,0.0,0.0,0.0,0.0,0.0,0.0,0.0,0.0,0.0,0.0,0.0,0.0,0.0,0.0,0.0,0.0,0.0,0.0,0.0,0.0,0.0,0.0,0.0,0.0,0.0,0.0,0.0,0.0,0.0,0.0,0.0,0.0,0.0,0.0,0.0,0.0,0.0,0.0,0.0,0.0,0.0,0.0,0.0,0.0,0.0,0.0,0.0,0.0,0.0,0.0,0.0,0.0,0.0,0.0,0.0,0.0,0.0,0.0,0.0,0.0,0.0,0.0,0.0,0.0,0.0,0.0,0.0,0.0,0.0,0.0,0.0,0.0,0.0,0.0,0.0,0.0,0.0,0.0,0.0,0.0,0.0,0.0,0.0,0.0,0.0,0.0,0.0,0.0,0.0,0.0,0.0,0.0,0.0,0.0,0.0,0.0,0.0,0.0,0.0,0.0,0.0,0.0,0.0,0.0,0.0,0.0,0.0,0.0,0.0,0.0,0.0,0.0,0.0,0.0,0.0,0.0,0.0,0.0,0.0,0.0,0.0,0.0,0.0,0.0,0.0,0.0,0.0,0.0,0.0,0.0,0.0,0.0,0.0,0.0,0.0,0.0,0.0,0.0,0.0,0.0,0.0,0.0,0.0,0.0,0.0,0.0,0.0,0.0,0.0,0.0,0.0,0.0,0.0,0.0,0.0,0.0,0.0,0.0,0.0,0.0,0.0,0.0,0.0,0.0,0.0,0.0,0.0,0.0,0.0,0.0,0.0,0.0,0.0,0.0,0.0,0.0,0.0,0.0,0.0,0.0,0.0,0.0,0.0,0.0,0.0,0.0,0.0,0.0,0.0,0.0,0.0,0.0,0.0,0.0,0.0,0.0,0.0,0.0,0.0,0.0,0.0,0.0,0.0,0.0,0.0,0.0,0.0,0.0,0.0,0.0,0.0,0.0,0.0,0.0,0.0,0.0,0.0,0.0,0.0,0.0,0.0,0.0,0.0,0.0,0.0,0.0,0.0,0.0,0.0,0.0,0.0,0.0,0.0,0.0,0.0,0.0,0.0,0.0,0.0,0.0,0.0,0.0,0.0,0.0,0.0,0.0,0.0,0.0,0.0,0.0,0.0,0.0,0.0,0.0,0.0,0.0,0.0,0.0,0.0,0.0,0.0,0.0,0.0,0.0,0.0,0.0,0.0,0.0,0.0,0.0,0.0,0.0,0.0,0.0,0.0,0.0,0.0,0.0,0.0,0.0,0.0,0.0,0.0,0.0,0.0,0.0,0.0,0.0,0.0,0.0,0.0,0.0,0.0,0.0,0.0,0.0,0.0,0.0,0.0,0.0,0.0,0.0,0.0,0.0,0.0,0.0,0.0,0.0,0.0,0.0,0.0,0.0,0.0,0.0,0.0,0.0,0.0,0.0,0.0,0.0,0.0,0.0,0.0,0.0,0.0,0.0,0.0,0.0,0.0,0.0,0.0,0.0,0.0,0.0,0.0,0.0,0.0,0.0,0.0,-0.3202,0.0,0.0,0.0,0.0,0.0,0.0,0.0,0.0,0.0,0.0,0.0,0.0,0.0,0.0,0.0,0.0,0.0,0.0,0.0,0.0,0.0,0.0,0.0,0.0,0.0,0.0,0.0,0.0,0.0,0.0,0.0,0.0,0.0,0.0,0.0,0.0,0.0,0.0,0.0,0.0,0.0,0.0,0.0,0.0,0.0,0.0,0.0,0.0,0.0,0.0,0.0,0.0,0.0,0.0,0.0,0.0,0.0,0.0,0.0,0.0,0.0,0.0,0.0,0.0,0.0,0.0,0.0,0.0,0.0,0.0,0.0,0.0,0.0,0.0,0.0,0.0,0.0,0.0,0.0,0.0,0.0,0.0,0.0,0.0,0.0,0.0,0.0,0.0,0.0,0.0,0.0,0.0,0.0,0.0,0.0,0.0,0.0,0.0,0.0,0.0,0.0,0.0,0.0,0.0,0.0,0.0,0.0,0.0,0.0,0.0,-0.3264,-0.3264,-0.3697,-0.3881,-0.3881,0.0,0.0,0.0,0.0,0.0,0.0,0.0,0.0,0.0,0.0,0.0,0.0,0.0,0.0,0.0,0.0,0.0,0.0,0.0,0.0,0.0,0.0,0.0,0.0,0.0,0.0,0.0,0.0,0.0,0.0,0.0,0.0,0.0,0.0,0.0,0.0,0.0,0.0,0.0,0.0,0.0,0.0,0.0,0.0,0.0,0.0,0.0,0.0,0.0,0.0,0.0,0.0,0.0,0.0,0.0,0.0,0.0,0.0,0.0,0.0,0.0,0.0,0.0,0.0,0.0,0.0,0.0,0.0,0.0,0.0,0.0,0.0,0.0,0.0,0.0,0.0,0.0,0.0,0.0,0.0,0.0,0.0,0.0,0.0,0.0,0.0,0.0,0.0,0.0,0.0,0.0,0.0,0.0,0.0,0.0,0.0,0.0,0.0,0.0,0.0,0.0,0.0,0.0,0.0,0.0,0.0,0.0,0.0,0.0,0.0,0.0,0.0,-0.451,-0.4396,-0.4228,0.0,0.0,0.0,0.0,0.0,0.0,0.0,0.0,0.0,0.0,0.0,0.0,0.0,0.0,0.0,0.0,0.0,0.0,0.0,0.0,0.0,0.0,0.0,0.0,0.0,0.0,0.0,0.0,0.0,0.0,0.0,0.0,0.0,0.0,0.0,0.0,0.0,0.0,0.0,0.0,0.0,0.0,0.0,0.0,0.0,0.0,0.0,0.0,0.0,0.0,0.0,0.0,0.0,0.0,0.0,0.0,0.0,0.0,0.0,0.0,0.0,0.0,0.0,0.0,0.0,0.0,0.0,0.0,0.0,0.0,0.0,0.0,0.0,0.0,0.0,0.0,0.0,0.0,0.0,0.0,0.0,0.0,0.0,0.0,0.0,0.0,0.0,0.0,0.0,0.0,0.0,0.0,0.0,0.0,0.0,0.0,0.0,0.0,0.0,0.0,0.0,0.0,0.0,0.0,0.0,0.0,0.0,0.0,0.0,0.0,-0.6025,-0.6255,-0.6257,0.0,-0.5119,0.0,0.0,0.0,0.0,0.0,0.0,0.0,0.0,0.0,0.0,0.0,0.0,0.0,0.0,0.0,0.0,0.0,0.0,0.0,0.0,0.0,0.0,0.0,0.0,0.0,0.0,0.0,0.0,0.0,0.0,0.0,0.0,0.0,0.0,0.0,0.0,0.0,0.0,0.0,0.0,0.0,0.0,0.0,0.0,0.0,0.0,0.0,0.0,0.0,0.0,0.0,0.0,0.0,0.0,0.0,0.0,0.0,0.0,0.0,0.0,0.0,0.0,0.0,0.0,0.0,0.0,0.0,0.0,0.0,0.0,0.0,0.0,0.0,0.0,0.0,0.0,0.0,0.0,0.0,0.0,0.0,0.0,0.0,0.0,0.0,0.0,0.0,0.0,0.0,0.0,0.0,0.0,0.0,0.0,0.0,0.0,0.0,0.0,0.0,0.0,0.0,0.0,0.0,0.0,0.0,0.0,0.0,0.0,0.0,0.0,-0.7793,-0.8543,-0.7907,-0.7059,0.0,0.0,0.0,0.0,0.0,0.0,0.0,0.0,0.0,0.0,0.0,0.0,0.0,0.0,0.0,0.0,0.0,0.0,0.0,0.0,0.0,0.0,0.0,0.0,0.0,0.0,0.0,0.0,0.0,0.0,0.0,0.0,0.0,0.0,0.0,0.0,0.0,0.0,0.0,0.0,0.0,0.0,0.0,0.0,0.0,0.0,0.0,0.0,0.0,0.0,0.0,0.0,0.0,0.0,0.0,0.0,0.0,0.0,0.0,0.0,0.0,0.0,0.0,0.0,0.0,0.0,0.0,0.0,0.0,0.0,0.0,0.0,0.0,0.0,0.0,0.0,0.0,0.0,0.0,0.0,0.0,0.0,0.0,0.0,0.0,0.0,0.0,0.0,0.0,0.0,0.0,0.0,0.0,0.0,0.0,0.0,0.0,0.0,0.0,0.0,0.0,0.0,0.0,0.0,0.0,0.0,0.0,0.0,0.0,0.0,-0.9168,-0.9446,-1.0304,-0.9621,-0.873,-0.7742,0.0,0.0,0.0,0.0,0.0,0.0,0.0,0.0,0.0,0.0,0.0,0.0,0.0,0.0,0.0,0.0,0.0,0.0,0.0,0.0,0.0,0.0,0.0,0.0,0.0,0.0,0.0,0.0,0.0,0.0,0.0,0.0,0.0,0.0,0.0,0.0,0.0,0.0,0.0,0.0,0.0,0.0,0.0,0.0,0.0,0.0,0.0,0.0,0.0,0.0,0.0,0.0,0.0,0.0,0.0,0.0,0.0,0.0,0.0,0.0,0.0,0.0,0.0,0.0,0.0,0.0,0.0,0.0,0.0,0.0,0.0,0.0,0.0,0.0,0.0,0.0,0.0,0.0,0.0,0.0,0.0,0.0,0.0,0.0,0.0,0.0,0.0,0.0,0.0,0.0,0.0,0.0,0.0,0.0,0.0,0.0,0.0,0.0,0.0,0.0,0.0,0.0,0.0,0.0,0.0,0.0,0.0,0.0,-1.0154,-1.0468,-1.0895,-1.145,-1.1378,-1.1139,0.0,0.0,0.0,0.0,0.0,0.0,0.0,0.0,0.0,0.0,0.0,0.0,0.0,0.0,0.0,0.0,0.0,0.0,0.0,0.0,0.0,0.0,0.0,0.0,0.0,0.0,0.0,0.0,0.0,0.0,0.0,0.0,0.0,0.0,0.0,0.0,0.0,0.0,0.0,0.0,0.0,0.0,0.0,0.0,0.0,0.0,0.0,0.0,0.0,0.0,0.0,0.0,0.0,0.0,0.0,0.0,0.0,0.0,0.0,0.0,0.0,0.0,0.0,0.0,0.0,0.0,0.0,0.0,0.0,0.0,0.0,0.0,0.0,0.0,0.0,0.0,0.0,0.0,0.0,0.0,0.0,0.0,0.0,0.0,0.0,0.0,0.0,0.0,0.0,0.0,0.0,0.0,0.0,0.0,0.0,0.0,0.0,0.0,0.0,0.0,0.0,0.0,0.0,0.0,0.0,0.0,0.0,0.0,0.0,-1.2363,-1.3117,-1.3171,-1.2679,-1.2625,-1.2219,0.0,0.0,0.0,0.0,0.0,0.0,0.0,0.0,0.0,0.0,0.0,0.0,0.0,0.0,0.0,0.0,0.0,0.0,0.0,0.0,0.0,0.0,0.0,0.0,0.0,0.0,0.0,0.0,0.0,0.0,0.0,0.0,0.0,0.0,0.0,0.0,0.0,0.0,0.0,0.0,0.0,0.0,0.0,0.0,0.0,0.0,0.0,0.0,0.0,0.0,0.0,0.0,0.0,0.0,0.0,0.0,0.0,0.0,0.0,0.0,0.0,0.0,0.0,0.0,0.0,0.0,0.0,0.0,0.0,0.0,0.0,0.0,0.0,0.0,0.0,0.0,0.0,0.0,0.0,0.0,0.0,0.0,0.0,0.0,0.0,0.0,0.0,0.0,0.0,0.0,0.0,0.0,0.0,0.0,0.0,0.0,0.0,0.0,0.0,0.0,0.0,0.0,0.0,0.0,0.0,0.0,0.0,0.0,0.0,-1.4739,0.0,-1.5914,-1.5257,-1.4894,-1.4239,0.0,0.0,0.0,0.0,0.0,0.0,0.0,0.0,0.0,0.0,0.0,0.0,0.0,0.0,0.0,0.0,0.0,0.0,0.0,0.0,0.0,0.0,0.0,0.0,0.0,0.0,0.0,0.0,0.0,0.0,0.0,0.0,0.0,0.0,0.0,0.0,0.0,0.0,0.0,0.0,0.0,0.0,0.0,0.0,0.0,0.0,0.0,0.0,0.0,0.0,0.0,0.0,0.0,0.0,0.0,0.0,0.0,0.0,0.0,0.0,0.0,0.0,0.0,0.0,0.0,0.0,0.0,0.0,0.0,0.0,0.0,0.0,0.0,0.0,0.0,0.0,0.0,0.0,0.0,0.0,0.0,0.0,0.0,0.0,0.0,0.0,0.0,0.0,0.0,0.0,0.0,0.0,0.0,0.0,0.0,0.0,0.0,0.0,0.0,0.0,0.0,0.0,0.0,0.0,0.0,0.0,0.0,0.0,-1.4352,-1.6975,-1.8171,-1.8745,-1.9124,-1.8035,-1.7411,0.0,0.0,0.0,0.0,0.0,0.0,0.0,0.0,0.0,0.0,0.0,0.0,0.0,0.0,0.0,0.0,0.0,0.0,0.0,0.0,0.0,0.0,0.0,0.0,0.0,0.0,0.0,0.0,0.0,0.0,0.0,0.0,0.0,0.0,0.0,0.0,0.0,0.0,0.0,0.0,0.0,0.0,0.0,0.0,0.0,0.0,0.0,0.0,0.0,0.0,0.0,0.0,0.0,0.0,0.0,0.0,0.0,0.0,0.0,0.0,0.0,0.0,0.0,0.0,0.0,0.0,0.0,0.0,0.0,0.0,0.0,0.0,0.0,0.0,0.0,0.0,0.0,0.0,0.0,0.0,0.0,0.0,0.0,0.0,0.0,0.0,0.0,0.0,0.0,0.0,0.0,0.0,0.0,0.0,0.0,0.0,0.0,0.0,0.0,0.0,0.0,0.0,0.0,0.0,0.0,0.0,0.0,0.0,0.0,-1.8269,-1.9005,-1.942,-1.948,-1.9169,-1.8603,0.0,0.0,0.0,0.0,0.0,0.0,0.0,0.0,0.0,0.0,0.0,0.0,0.0,0.0,0.0,0.0,0.0,0.0,0.0,0.0,0.0,0.0,0.0,0.0,0.0,0.0,0.0,0.0,0.0,0.0,0.0,0.0,0.0,0.0,0.0,0.0,0.0,0.0,0.0,0.0,0.0,0.0,0.0,0.0,0.0,0.0,0.0,0.0,0.0,0.0,0.0,0.0,0.0,0.0,0.0,0.0,0.0,0.0,0.0,0.0,0.0,0.0,0.0,0.0,0.0,0.0,0.0,0.0,0.0,0.0,0.0,0.0,0.0,0.0,0.0,0.0,0.0,0.0,0.0,0.0,0.0,0.0,0.0,0.0,0.0,0.0,0.0,0.0,0.0,0.0,0.0,0.0,0.0,0.0,0.0,0.0,0.0,0.0,0.0,0.0,0.0,0.0,0.0,0.0,0.0,0.0,0.0,0.0,0.0,-2.1373,-2.1049,-2.1116,-2.1541,-2.0802,-2.004,-1.9369,0.0,0.0,0.0,0.0,0.0,0.0,0.0,0.0,0.0,0.0,0.0,0.0,0.0,0.0,0.0,0.0,0.0,0.0,0.0,0.0,0.0,0.0,0.0,0.0,0.0,0.0,0.0,0.0,0.0,0.0,0.0,0.0,0.0,0.0,0.0,0.0,0.0,0.0,0.0,0.0,0.0,0.0,0.0,0.0,0.0,0.0,0.0,0.0,0.0,0.0,0.0,0.0,0.0,0.0,0.0,0.0,0.0,0.0,0.0,0.0,0.0,0.0,0.0,0.0,0.0,0.0,0.0,0.0,0.0,0.0,0.0,0.0,0.0,0.0,0.0,0.0,0.0,0.0,0.0,0.0,0.0,0.0,0.0,0.0,0.0,0.0,0.0,0.0,0.0,0.0,0.0,0.0,0.0,0.0,0.0,0.0,0.0,0.0,0.0,0.0,0.0,0.0,0.0,0.0,0.0,0.0,0.0,0.0,-2.5886,-2.4196,-2.3868,-2.4894,-2.2985,-2.1887,0.0,0.0,0.0,0.0,0.0,0.0,0.0,0.0,0.0,0.0,0.0,0.0,0.0,0.0,0.0,0.0,0.0,0.0,0.0,0.0,0.0,0.0,0.0,0.0,0.0,0.0,0.0,0.0,0.0,0.0,0.0,0.0,0.0,0.0,0.0,0.0,0.0,0.0,0.0,0.0,0.0,0.0,0.0,0.0,0.0,0.0,0.0,0.0,0.0,0.0,0.0,0.0,0.0,0.0,0.0,0.0,0.0,0.0,0.0,0.0,0.0,0.0,0.0,0.0,0.0,0.0,0.0,0.0,0.0,0.0,0.0,0.0,0.0,0.0,0.0,0.0,0.0,0.0,0.0,0.0,0.0,0.0,0.0,0.0,0.0,0.0,0.0,0.0,0.0,0.0,0.0,0.0,0.0,0.0,0.0,0.0,0.0,0.0,0.0,0.0,0.0,0.0,0.0,0.0,0.0,0.0,0.0,0.0,0.0,-2.8337,-2.7713,-2.7028,-2.631,-2.5012,-2.3962,0.0,0.0,0.0,0.0,0.0,0.0,0.0,0.0,0.0,0.0,0.0,0.0,0.0,0.0,0.0,0.0,0.0,0.0,0.0,0.0,0.0,0.0,0.0,0.0,0.0,0.0,0.0,0.0,0.0,0.0,0.0,0.0,0.0,0.0,0.0,0.0,0.0,0.0,0.0,0.0,0.0,0.0,0.0,0.0,0.0,0.0,0.0,0.0,0.0,0.0,0.0,0.0,0.0,0.0,0.0,0.0,0.0,0.0,0.0,0.0,0.0,0.0,0.0,0.0,0.0,0.0,0.0,0.0,0.0,0.0,0.0,0.0,0.0,0.0,0.0,0.0,0.0,0.0,0.0,0.0,0.0,0.0,0.0,0.0,0.0,0.0,0.0,0.0,0.0,0.0,0.0,0.0,0.0,0.0,0.0,0.0,0.0,0.0,0.0,0.0,0.0,0.0,0.0,0.0,0.0,0.0,0.0,0.0,-2.8154,-2.9569,-2.9612,-2.9247,-2.8387,-2.7176,-2.5895,0.0,0.0,0.0,0.0,0.0,0.0,0.0,0.0,0.0,0.0,0.0,0.0,0.0,0.0,0.0,0.0,0.0,0.0,0.0,0.0,0.0,0.0,0.0,0.0,0.0,0.0,0.0,0.0,0.0,0.0,0.0,0.0,0.0,0.0,0.0,0.0,0.0,0.0,0.0,0.0,0.0,0.0,0.0,0.0,0.0,0.0,0.0,0.0,0.0,0.0,0.0,0.0,0.0,0.0,0.0,0.0,0.0,0.0,0.0,0.0,0.0,0.0,0.0,0.0,0.0,0.0,0.0,0.0,0.0,0.0,0.0,0.0,0.0,0.0,0.0,0.0,0.0,0.0,0.0,0.0,0.0,0.0,0.0,0.0,0.0,0.0,0.0,0.0,0.0,0.0,0.0,0.0,0.0,0.0,0.0,0.0,0.0,0.0,0.0,0.0,0.0,0.0,0.0,0.0,0.0,0.0,0.0,0.0,-2.923,-3.0169,-3.0609,-3.0828,-3.0799,-2.9136,-2.7494,0.0,0.0,0.0,0.0,0.0,0.0,0.0,0.0,0.0,0.0,0.0,0.0,0.0,0.0,0.0,0.0,0.0,0.0,0.0,0.0,0.0,0.0,0.0,0.0,0.0,0.0,0.0,0.0,0.0,0.0,0.0,0.0,0.0,0.0,0.0,0.0,0.0,0.0,0.0,0.0,0.0,0.0,0.0,0.0,0.0,0.0,0.0,0.0,0.0,0.0,0.0,0.0,0.0,0.0,0.0,0.0,0.0,0.0,0.0,0.0,0.0,0.0,0.0,0.0,0.0,0.0,0.0,0.0,0.0,0.0,0.0,0.0,0.0,0.0,0.0,0.0,0.0,0.0,0.0,0.0,0.0,0.0,0.0,0.0,0.0,0.0,0.0,0.0,0.0,0.0,0.0,0.0,0.0,0.0,0.0,0.0,0.0,0.0,0.0,0.0,0.0,0.0,0.0,0.0,0.0,0.0,0.0,0.0,-3.096,-3.2144,-3.2236,-3.2289,-3.2317,-2.9572,-2.8177,0.0,0.0,0.0,0.0,0.0,0.0,0.0,0.0,0.0,0.0,0.0,0.0,0.0,0.0,0.0,0.0,0.0,0.0,0.0,0.0,0.0,0.0,0.0,0.0,0.0,0.0,0.0,0.0,0.0,0.0,0.0,0.0,0.0,0.0,0.0,0.0,0.0,0.0,0.0,0.0,0.0,0.0,0.0,0.0,0.0,0.0,0.0,0.0,-3.0923,0.0,0.0,0.0,0.0,0.0,0.0,0.0,0.0,0.0,0.0,0.0,0.0,0.0,0.0,0.0,0.0,0.0,0.0,0.0,0.0,0.0,0.0,0.0,0.0,0.0,0.0,0.0,0.0,0.0,0.0,0.0,0.0,0.0,0.0,0.0,0.0,0.0,0.0,0.0,0.0,0.0,0.0,0.0,0.0,0.0,0.0,0.0,0.0,0.0,0.0,0.0,0.0,0.0,0.0,0.0,0.0,0.0,0.0,0.0,-3.1863,-3.2935,-3.2949,-3.2949,-3.2908,-3.0773,-2.9213,0.0,0.0,0.0,0.0,0.0,0.0,0.0,0.0,0.0,0.0,0.0,0.0,0.0,0.0,0.0,0.0,0.0,0.0,0.0,0.0,0.0,0.0,0.0,0.0,0.0,0.0,0.0,0.0,0.0,0.0,0.0,0.0,0.0,0.0,0.0,0.0,0.0,0.0,0.0,0.0,0.0,0.0,0.0,0.0,0.0,0.0,0.0,0.0,0.0,0.0,0.0,0.0,0.0,0.0,0.0,0.0,0.0,0.0,0.0,0.0,0.0,0.0,0.0,0.0,0.0,0.0,0.0,0.0,0.0,0.0,0.0,0.0,0.0,0.0,0.0,0.0,0.0,0.0,0.0,0.0,0.0,0.0,0.0,0.0,0.0,0.0,0.0,0.0,0.0,0.0,0.0,0.0,0.0,0.0,0.0,0.0,0.0,0.0,0.0,0.0,0.0,0.0,0.0,0.0,0.0,0.0,0.0,-3.1915,-3.2654,-3.3492,-3.3408,-3.3408,-3.3512,-3.2227,-3.0586,-2.868,0.0,0.0,0.0,0.0,0.0,0.0,0.0,0.0,0.0,0.0,0.0,0.0,0.0,0.0,0.0,0.0,0.0,0.0,0.0,0.0,0.0,0.0,0.0,0.0,0.0,0.0,0.0,0.0,0.0,0.0,0.0,0.0,0.0,0.0,0.0,0.0,0.0,0.0,-2.5683,-2.7641,0.0,0.0,0.0,0.0,0.0,0.0,0.0,0.0,-3.2209,0.0,0.0,0.0,0.0,0.0,0.0,0.0,0.0,0.0,0.0,0.0,0.0,0.0,0.0,0.0,0.0,0.0,0.0,0.0,0.0,0.0,0.0,0.0,0.0,0.0,0.0,0.0,0.0,0.0,0.0,0.0,0.0,0.0,0.0,0.0,0.0,0.0,0.0,0.0,0.0,0.0,0.0,0.0,0.0,0.0,0.0,0.0,0.0,0.0,0.0,0.0,0.0,0.0,0.0,0.0,0.0,-3.12,-3.2925,-3.4197,-3.4937,-3.4359,-3.4326,-3.4904,-3.3622,-3.22,-3.07,0.0,0.0,0.0,0.0,0.0,0.0,0.0,0.0,0.0,0.0,0.0,0.0,0.0,0.0,0.0,0.0,0.0,0.0,0.0,0.0,0.0,0.0,0.0,0.0,0.0,0.0,0.0,0.0,0.0,0.0,0.0,0.0,0.0,0.0,0.0,0.0,0.0,0.0,0.0,-2.9315,-3.0181,0.0,0.0,0.0,0.0,0.0,0.0,0.0,0.0,-3.4772,0.0,0.0,0.0,0.0,0.0,0.0,0.0,0.0,0.0,0.0,0.0,0.0,0.0,0.0,0.0,0.0,0.0,0.0,0.0,0.0,0.0,0.0,0.0,0.0,0.0,0.0,0.0,0.0,0.0,0.0,0.0,0.0,0.0,0.0,0.0,0.0,0.0,0.0,0.0,0.0,0.0,0.0,0.0,0.0,0.0,0.0,0.0,0.0,0.0,0.0,0.0,0.0,0.0,0.0,0.0,-3.2241,-3.3907,-3.5133,-3.5852,-3.5869,-3.5869,-3.5852,-3.4853,-3.3848,0.0,0.0,0.0,0.0,0.0,0.0,0.0,0.0,0.0,0.0,0.0,0.0,0.0,0.0,0.0,0.0,0.0,0.0,0.0,0.0,0.0,0.0,0.0,0.0,0.0,0.0,0.0,0.0,0.0,0.0,0.0,0.0,0.0,0.0,0.0,0.0,0.0,0.0,0.0,0.0,-3.0519,-3.1279,-3.1291,0.0,0.0,0.0,0.0,0.0,0.0,-3.6227,-3.6227,0.0,0.0,0.0,0.0,0.0,0.0,0.0,0.0,0.0,0.0,0.0,0.0,0.0,0.0,0.0,0.0,0.0,0.0,0.0,0.0,0.0,0.0,0.0,0.0,0.0,0.0,0.0,0.0,0.0,0.0,0.0,0.0,0.0,0.0,0.0,0.0,0.0,0.0,0.0,0.0,0.0,0.0,0.0,0.0,0.0,0.0,0.0,0.0,0.0,0.0,0.0,0.0,0.0,0.0,0.0,-3.3602,-3.5002,-3.6057,-3.6768,-3.731,-3.734,-3.6799,-3.5963,-3.5195,0.0,0.0,0.0,0.0,0.0,0.0,0.0,0.0,0.0,0.0,0.0,0.0,0.0,0.0,0.0,0.0,0.0,0.0,0.0,0.0,0.0,0.0,0.0,0.0,0.0,0.0,0.0,0.0,0.0,0.0,0.0,0.0,0.0,0.0,0.0,0.0,0.0,0.0,0.0,0.0,0.0,-3.2605,-3.2692,-3.4223,0.0,0.0,0.0,0.0,-3.7088,-3.7165,0.0,0.0,0.0,0.0,0.0,0.0,0.0,0.0,0.0,0.0,0.0,0.0,0.0,0.0,0.0,0.0,0.0,0.0,0.0,0.0,0.0,0.0,0.0,0.0,0.0,0.0,0.0,0.0,0.0,0.0,0.0,0.0,0.0,0.0,0.0,0.0,0.0,0.0,0.0,0.0,0.0,0.0,0.0,0.0,0.0,0.0,0.0,0.0,0.0,0.0,0.0,0.0,0.0,0.0,0.0,0.0,-3.502,-3.6461,-3.7456,-3.8051,-3.8137,-3.8149,-3.808,-3.6905,-3.5946,0.0,0.0,0.0,0.0,0.0,0.0,0.0,0.0,0.0,0.0,0.0,0.0,0.0,0.0,0.0,0.0,0.0,0.0,0.0,0.0,0.0,0.0,0.0,0.0,0.0,0.0,0.0,0.0,0.0,0.0,0.0,0.0,0.0,0.0,0.0,0.0,0.0,0.0,0.0,0.0,0.0,-3.4719,-3.4884,-3.5922,-3.6685,0.0,0.0,-3.7127,-3.791,-3.8037,0.0,0.0,0.0,0.0,0.0,0.0,0.0,0.0,0.0,0.0,0.0,0.0,0.0,0.0,0.0,0.0,0.0,0.0,0.0,0.0,0.0,0.0,0.0,0.0,0.0,0.0,0.0,0.0,0.0,0.0,0.0,0.0,0.0,0.0,0.0,0.0,0.0,0.0,0.0,0.0,0.0,0.0,0.0,0.0,0.0,0.0,0.0,0.0,0.0,0.0,0.0,0.0,0.0,0.0,0.0,-3.3628,-3.528,-3.6288,-3.7074,-3.7651,-3.7638,-3.7453,-3.7053,-3.6497,-3.5935,0.0,0.0,0.0,0.0,0.0,0.0,0.0,0.0,0.0,0.0,0.0,0.0,0.0,0.0,0.0,0.0,0.0,0.0,0.0,0.0,0.0,0.0,0.0,0.0,0.0,0.0,0.0,0.0,0.0,0.0,0.0,0.0,0.0,0.0,0.0,0.0,0.0,0.0,0.0,0.0,0.0,0.0,-3.5389,-3.6684,0.0,0.0,0.0,-3.9028,-3.9386,0.0,0.0,0.0,0.0,0.0,0.0,0.0,0.0,0.0,0.0,0.0,0.0,0.0,0.0,0.0,0.0,0.0,0.0,0.0,0.0,0.0,0.0,0.0,0.0,0.0,0.0,0.0,0.0,0.0,0.0,0.0,0.0,0.0,0.0,0.0,0.0,0.0,0.0,0.0,0.0,0.0,0.0,0.0,0.0,0.0,0.0,0.0,0.0,0.0,0.0,0.0,0.0,0.0,0.0,0.0,0.0,0.0,-3.5259,-3.5917,-3.6542,-3.7161,-3.712,-3.6865,-3.6375,-3.6173,0.0,0.0,0.0,0.0,0.0,0.0,0.0,0.0,0.0,0.0,0.0,0.0,0.0,0.0,0.0,0.0,0.0,0.0,0.0,0.0,0.0,0.0,0.0,0.0,0.0,0.0,0.0,-2.3825,0.0,0.0,0.0,0.0,0.0,0.0,0.0,0.0,0.0,0.0,0.0,0.0,0.0,0.0,-3.5085,-3.5667,-3.7141,-3.8176,0.0,0.0,-4.015,-4.0118,-4.0592,-4.0749,0.0,0.0,0.0,0.0,0.0,0.0,0.0,0.0,0.0,0.0,0.0,0.0,0.0,0.0,0.0,0.0,0.0,0.0,0.0,0.0,0.0,0.0,0.0,0.0,0.0,0.0,0.0,0.0,0.0,0.0,0.0,0.0,0.0,0.0,0.0,0.0,0.0,0.0,0.0,0.0,0.0,0.0,0.0,0.0,0.0,0.0,0.0,0.0,0.0,0.0,0.0,0.0,0.0,0.0,0.0,-3.5254,-3.5833,-3.643,-3.7067,-3.711,-3.7077,-3.7026,-3.6417,-3.6066,0.0,0.0,0.0,0.0,0.0,0.0,0.0,0.0,0.0,0.0,0.0,0.0,0.0,0.0,0.0,0.0,0.0,0.0,0.0,0.0,0.0,0.0,0.0,0.0,0.0,0.0,0.0,0.0,0.0,0.0,0.0,0.0,0.0,0.0,0.0,0.0,0.0,0.0,0.0,0.0,0.0,-3.5856,-3.6122,-3.7454,-3.8376,0.0,0.0,-3.9361,-3.9393,-3.944,-3.9456,-3.9393,0.0,0.0,0.0,0.0,0.0,0.0,0.0,0.0,0.0,0.0,0.0,0.0,0.0,0.0,0.0,0.0,0.0,0.0,0.0,0.0,0.0,0.0,0.0,0.0,0.0,0.0,0.0,0.0,0.0,0.0,0.0,0.0,0.0,0.0,0.0,0.0,0.0,0.0,0.0,0.0,0.0,0.0,0.0,0.0,0.0,0.0,0.0,0.0,0.0,0.0,0.0,0.0,0.0,-3.3892,-3.5268,-3.5375,-3.5733,-3.6382,-3.6274,-3.6024,-3.5744,-3.5791,-3.5671,0.0,0.0,0.0,0.0,0.0,0.0,0.0,0.0,0.0,0.0,0.0,0.0,0.0,0.0,0.0,0.0,0.0,0.0,0.0,0.0,0.0,0.0,0.0,0.0,0.0,0.0,0.0,0.0,-2.8206,-2.8555,-2.9089,0.0,0.0,0.0,0.0,0.0,0.0,0.0,0.0,0.0,0.0,-3.5862,-3.6813,-3.7783,0.0,0.0,-3.9548,-3.9975,-3.9975,-4.0437,-4.0583,-4.0085,-3.9709,0.0,0.0,0.0,0.0,0.0,0.0,0.0,0.0,0.0,0.0,0.0,0.0,0.0,0.0,0.0,0.0,0.0,0.0,0.0,0.0,0.0,0.0,0.0,0.0,0.0,0.0,0.0,0.0,0.0,0.0,0.0,0.0,0.0,0.0,0.0,0.0,0.0,0.0,0.0,0.0,0.0,0.0,0.0,0.0,0.0,0.0,0.0,0.0,0.0,0.0,0.0,0.0,-3.3792,-3.4913,-3.4962,-3.5267,-3.5861,-3.57,-3.5498,-3.5299,-3.5498,-3.5471,0.0,0.0,0.0,0.0,0.0,0.0,0.0,0.0,0.0,0.0,0.0,0.0,0.0,0.0,0.0,0.0,0.0,0.0,0.0,0.0,0.0,0.0,0.0,0.0,0.0,0.0,0.0,0.0,-2.8883,-2.9255,-2.9594,0.0,0.0,0.0,0.0,0.0,0.0,0.0,0.0,0.0,0.0,-3.5737,-3.6721,-3.7546,-3.8279,-3.8678,-3.953,-4.0132,-4.0132,-4.0662,-4.0839,-4.0215,0.0,0.0,0.0,0.0,0.0,0.0,0.0,0.0,0.0,0.0,0.0,0.0,0.0,0.0,0.0,0.0,0.0,0.0,0.0,0.0,0.0,0.0,0.0,0.0,0.0,0.0,0.0,0.0,0.0,0.0,0.0,0.0,0.0,0.0,0.0,0.0,0.0,0.0,0.0,0.0,0.0,0.0,0.0,0.0,0.0,0.0,0.0,0.0,0.0,0.0,0.0,0.0,0.0,-3.3513,-3.4124,-3.466,-3.5135,-3.56,-3.5611,-3.5798,-3.6147,-3.5798,-3.5611,-3.56,0.0,0.0,0.0,0.0,0.0,0.0,0.0,0.0,0.0,0.0,0.0,0.0,0.0,0.0,0.0,0.0,0.0,0.0,0.0,0.0,0.0,0.0,0.0,0.0,0.0,0.0,-2.8395,-2.9714,-3.0608,0.0,0.0,0.0,0.0,0.0,0.0,0.0,0.0,0.0,0.0,-3.4986,-3.5487,-3.5599,-3.6631,-3.7476,-3.7535,-3.8655,-3.9534,-3.9551,-3.9551,-3.9534,0.0,0.0,0.0,0.0,0.0,0.0,0.0,0.0,0.0,0.0,0.0,0.0,0.0,0.0,0.0,0.0,0.0,0.0,0.0,0.0,0.0,0.0,0.0,0.0,0.0,0.0,0.0,-3.3172,-3.3107,0.0,0.0,0.0,0.0,0.0,0.0,0.0,0.0,0.0,0.0,0.0,-3.0467,-3.083,0.0,0.0,0.0,0.0,0.0,0.0,0.0,0.0,0.0,0.0,0.0,0.0,-3.3501,-3.4084,-3.4961,-3.5453,-3.5594,-3.6147,-3.6378,-3.6194,-3.6378,-3.6316,-3.5998,0.0,0.0,0.0,0.0,0.0,0.0,0.0,0.0,0.0,0.0,0.0,0.0,0.0,0.0,0.0,0.0,0.0,0.0,0.0,0.0,0.0,0.0,0.0,0.0,0.0,-2.8817,0.0,0.0,0.0,0.0,0.0,0.0,0.0,0.0,0.0,0.0,0.0,-3.3816,-3.4339,-3.5061,-3.5797,-3.6631,-3.7131,-3.7693,0.0,0.0,0.0,0.0,0.0,0.0,0.0,0.0,0.0,0.0,0.0,0.0,0.0,0.0,-3.8167,-3.7313,-3.6832,-3.6614,-3.6705,0.0,0.0,0.0,0.0,0.0,0.0,0.0,0.0,0.0,0.0,0.0,0.0,0.0,0.0,0.0,0.0,-3.379,0.0,0.0,0.0,0.0,0.0,0.0,0.0,0.0,-3.1857,-3.1762,-3.182,-3.1709,-3.139,0.0,-3.1156,-3.0904,0.0,0.0,0.0,0.0,0.0,0.0,0.0,0.0,-3.3815,-3.4399,-3.5201,-3.5661,-3.5803,-3.6539,-3.6841,-3.6701,-3.6821,-3.6684,-3.6232,-3.5644,-3.543,0.0,0.0,0.0,0.0,0.0,0.0,0.0,0.0,0.0,0.0,0.0,0.0,0.0,0.0,0.0,0.0,0.0,0.0,0.0,0.0,0.0,0.0,0.0,-3.0139,0.0,0.0,0.0,0.0,0.0,0.0,0.0,0.0,0.0,-3.367,-3.3725,-3.4053,-3.4784,-3.5235,-3.5893,-3.689,0.0,0.0,0.0,0.0,0.0,0.0,0.0,-3.9677,-3.959,-3.9545,-3.9337,-3.8841,-3.9008,-3.9175,-3.9022,0.0,0.0,-3.7851,-3.7393,-3.7187,-3.7271,-3.7494,-3.7536,-3.6916,-3.7272,-3.7645,0.0,0.0,0.0,0.0,0.0,0.0,0.0,0.0,-3.6758,-3.6159,0.0,-3.4111,0.0,0.0,0.0,0.0,0.0,0.0,0.0,0.0,-3.1599,-3.134,-3.1495,-3.0931,-3.0447,-3.0252,-3.0335,-3.0452,-3.0642,-3.1195,0.0,0.0,0.0,0.0,0.0,0.0,-3.4374,-3.4883,-3.5362,-3.582,-3.6172,-3.6664,-3.7131,-3.7558,-3.7131,-3.6704,-3.6277,-3.6211,-3.5998,-3.5638,-3.5594,0.0,0.0,0.0,0.0,0.0,0.0,0.0,0.0,0.0,0.0,0.0,0.0,0.0,0.0,0.0,0.0,0.0,0.0,0.0,0.0,-3.0906,0.0,0.0,0.0,0.0,0.0,0.0,0.0,0.0,0.0,0.0,-3.4292,-3.4413,-3.4743,-3.537,0.0,0.0,0.0,0.0,-3.7618,-3.8266,-3.898,-3.9501,-3.9501,-3.9616,-3.9703,-3.9703,0.0,0.0,-3.9014,-3.9959,-4.0467,-3.9976,-3.9765,-3.9428,-3.804,-3.7919,-3.8004,-3.8048,-3.8543,-3.8841,-3.8247,-3.8187,-3.8415,-3.9476,0.0,0.0,0.0,0.0,-3.7902,-3.7375,-3.6922,-3.6534,-3.6347,-3.6285,-3.5706,0.0,0.0,0.0,0.0,0.0,0.0,-3.4433,-3.45,-3.3825,-3.3619,-3.3757,-3.3668,-3.335,-3.2816,-3.2976,-3.2811,-3.2431,-3.26,-3.2478,-3.213,0.0,0.0,0.0,0.0,-3.4374,-3.4906,-3.5644,-3.6066,-3.6194,-3.6978,-3.7466,-3.7595,-3.7131,-3.6978,-3.7169,-3.6563,-3.613,-3.6041,-3.5771,0.0,0.0,0.0,0.0,0.0,0.0,0.0,0.0,0.0,0.0,0.0,0.0,0.0,0.0,0.0,0.0,0.0,0.0,0.0,-3.1746,-3.1406,-3.1294,0.0,0.0,0.0,0.0,0.0,0.0,0.0,0.0,0.0,-3.5002,-3.478,-3.4578,0.0,0.0,-3.5893,-3.6966,-3.728,-3.778,-3.8843,0.0,0.0,0.0,-3.9616,-3.9729,-3.9807,-3.9345,-3.9083,-3.9573,-3.9488,-3.9303,-3.9135,-3.9127,-3.8841,-3.8095,-3.8337,-3.8696,-3.8705,-3.848,-3.8034,-3.7336,-3.6882,-3.6552,-3.8937,-3.9247,-3.9287,-3.9064,-3.8669,-3.8049,-3.7565,-3.7207,-3.7191,-3.7207,-3.7145,-3.6608,-3.6379,-3.6287,-3.5308,0.0,0.0,0.0,-3.5057,-3.5158,-3.4492,-3.4239,-3.4366,-3.4241,-3.3952,-3.3641,-3.3749,-3.3598,-3.3198,-3.3198,-3.3161,-3.3102,0.0,0.0,-3.4399,-3.4423,-3.465,-3.5171,-3.5847,-3.6277,-3.6481,-3.7225,-3.7595,-3.7595,-3.7319,-3.7337,-3.7577,-3.7073,-3.6664,-3.6501,-3.6232,-3.5671,0.0,0.0,0.0,0.0,0.0,0.0,0.0,0.0,0.0,0.0,0.0,-3.1577,-3.1563,0.0,0.0,0.0,-3.2541,-3.2434,-3.211,-3.2069,0.0,0.0,0.0,0.0,0.0,0.0,0.0,-3.5394,-3.4786,-3.4592,-3.5385,-3.5145,-3.4891,-3.4891,-3.525,-3.5973,-3.7221,0.0,-3.7838,-3.9121,-3.9369,-3.9422,-3.9501,-3.9668,-3.9833,-3.9977,-3.9682,-3.942,-3.948,-3.9387,-3.9118,-3.8645,-3.8679,-3.867,-3.8017,-3.8278,-3.8565,-3.8565,-3.821,-3.7669,-3.6948,-3.64,-3.5994,-3.7517,-3.7551,-3.8536,-3.8869,-3.8804,-3.8398,-3.823,-3.823,-3.823,-3.823,-3.8137,-3.6864,-3.6289,-3.6229,-3.5012,0.0,-3.4659,-3.4596,-3.4667,-3.4763,-3.4088,-3.3842,-3.3936,-3.3418,-3.3224,-3.3355,-3.3355,-3.3355,-3.3355,-3.3355,-3.3588,-3.4053,-3.407,-3.4358,-3.4859,-3.4833,-3.5075,-3.5594,-3.593,-3.6408,-3.6939,-3.7374,-3.7595,-3.7595,-3.7595,-3.7613,-3.7595,-3.7595,-3.7393,-3.6939,-3.686,-3.646,-3.5644,0.0,0.0,0.0,0.0,0.0,0.0,0.0,0.0,0.0,0.0,0.0,0.0,0.0,0.0,0.0,-3.3185,0.0,-3.2362,-3.2946,0.0,0.0,0.0,-3.5016,-3.518,-3.5314,-3.5444,-3.5489,0.0,0.0,-3.5489,0.0,-3.5429,-3.5429,-3.5429,-3.5866,-3.7083,-3.7196,-3.7662,-3.8776,-3.9179,-3.9301,-3.922,-3.9444,-3.9632,-3.9741,-3.9926,-3.958,-3.9073,-3.936,-3.9259,-3.8058,-3.8362,-3.8548,-3.7814,-3.7652,-3.7719,-3.7686,-3.7753,-3.7584,-3.6965,-3.6694,-3.6366,-3.8328,-3.8317,-3.8275,-3.7895,-3.7308,-3.6934,-3.6805,-3.6805,-3.6805,-3.6805,-3.6761,-3.6459,-3.6297,-3.6281,-3.6033,-3.591,-3.5932,-3.5507,-3.5422,-3.5477,-3.4803,-3.4537,-3.4644,-3.4521,-3.4464,-3.4505,-3.4488,-3.4488,-3.4505,-3.4488,-3.4282,-3.3884,-3.3867,-3.4202,-3.4866,-3.4336,-3.4558,-3.5594,-3.5488,-3.6085,-3.7376,-3.754,-3.7595,-3.7595,-3.7595,-3.7595,-3.7595,-3.7595,-3.7393,-3.6919,-3.6563,-3.6126,-3.5633,-3.5247,0.0,0.0,0.0,0.0,0.0,0.0,0.0,0.0,0.0,-3.2538,-3.2553,0.0,-3.3725,0.0,-3.3153,-3.3595,-3.4036,-3.4249,0.0,0.0,-3.4887,-3.5148,-3.518,-3.4929,-3.4921,-3.5444,-3.5055,-3.4921,-3.5444,-3.5055,-3.4743,-3.4758,-3.4743,-3.5043,-3.575,-3.5831,-3.6111,-3.6949,-3.7555,-3.7886,-3.8145,-3.8284,-3.8415,-3.843,-3.8447,-3.8362,-3.821,-3.8294,-3.8108,-3.7286,-3.7202,-3.7015,-3.6332,-3.614,-3.6157,-3.6174,-3.662,-3.7032,-3.6829,-3.6315,-3.5842,-3.7577,-3.7555,-3.7177,-3.6676,-3.6133,-3.6585,-3.6701,-3.6519,-3.6519,-3.6446,-3.6287,-3.5946,-3.5623,-3.5331,-3.5351,-3.5438,-3.5533,-3.5233,-3.5202,-3.5382,-3.4985,-3.4828,-3.4899,-3.4899,-3.4899,-3.4883,-3.4568,-3.4402,-3.4386,-3.4071,-3.369,-3.3332,-3.3309,-3.3491,-3.3889,-3.3531,-3.3746,-3.4595,-3.4689,-3.5151,-3.5995,-3.6198,-3.6308,-3.6308,-3.6453,-3.6453,-3.6308,-3.6308,-3.618,-3.5918,-3.5669,-3.533,-3.4895,-3.4634,-3.432,0.0,0.0,0.0,0.0,0.0,0.0,0.0,0.0,0.0,0.0,0.0,-3.3789,0.0,-3.3613,-3.4218,-3.4668,-3.4765,-3.4817,-3.4902,-3.5067,-3.518,-3.518,-3.5063,-3.4966,-3.504,-3.4743,-3.4533,-3.4607,-3.4277,-3.4038,-3.4023,-3.3784,-3.3924,-3.4755,-3.4934,-3.5156,-3.5927,-3.6584,-3.7195,-3.7679,-3.7858,-3.7898,-3.7898,-3.7898,-3.7804,-3.7483,-3.7415,-3.7144,-3.6451,-3.6265,-3.6146,-3.5701,-3.5616,-3.5616,-3.5667,-3.596,-3.6231,-3.6248,-3.591,-3.5616,-3.6284,-3.6262,-3.6002,-3.5655,-3.5423,-3.6709,-3.6953,-3.645,-3.645,-3.6303,-3.5995,-3.5315,-3.4709,-3.4101,-3.4126,-3.4275,-3.4497,-3.4521,-3.4643,-3.4883,-3.48,-3.475,-3.475,-3.4651,-3.4618,-3.4568,-3.3972,-3.3663,-3.3647,-3.2994,-3.2646,-3.2569,-3.247,-3.2387,-3.2287,-3.2205,-3.2477,-3.3109,-3.3805,-3.4131,-3.4044,-3.4471,-3.4708,-3.4708,-3.4942,-3.4925,-3.4653,-3.4617,-3.4617,-3.4634,-3.4561,-3.4337,-3.3948,-3.3885,-3.3502,0.0,-3.2685,0.0,0.0,0.0,0.0,0.0,0.0,0.0,0.0,-3.269,-3.3449,-3.3677,-3.4263,-3.4643,-3.4765,-3.4868,-3.4968,-3.4968,-3.5073,-3.5112,-3.5112,-3.5198,-3.5011,-3.4412,-3.4384,-3.4144,-3.3634,-3.3425,-3.3365,-3.332,-3.2826,-3.281,-3.375,-3.4044,-3.4343,-3.5126,-3.5786,-3.6313,-3.6984,-3.7278,-3.7254,-3.7312,-3.722,-3.7175,-3.6471,-3.6481,-3.6285,-3.5603,-3.552,-3.5594,-3.5532,-3.5538,-3.56,-3.5616,-3.565,-3.5667,-3.5667,-3.5633,-3.5616,-3.6284,-3.6301,-3.6255,-3.6174,-3.6127,-3.638,-3.5788,-3.4632,-3.4616,-3.4581,-3.4505,-3.4376,-3.423,-3.4117,-3.4201,-3.4349,-3.4513,-3.4635,-3.4739,-3.4883,-3.427,-3.4005,-3.3972,-3.3392,-3.3133,-3.3116,-3.2961,-3.2901,-3.2917,-3.2768,-3.2398,-3.1813,-3.1217,-3.0626,-3.0029,0.0,0.0,0.0,-3.3561,-3.43,-3.3757,-3.4356,-3.4708,-3.4689,-3.4431,0.0,-3.4239,-3.4222,-3.4222,-3.4202,-3.3848,0.0,0.0,0.0,0.0,0.0,0.0,0.0,0.0,0.0,0.0,0.0,-3.2561,-3.28,-3.252,-3.2795,-3.3501,-3.465,-3.4401,-3.4407,-3.5037,-3.5115,-3.5213,-3.5344,-3.4931,-3.4635,-3.4605,-3.4218,-3.3814,-3.3709,-3.371,-3.3634,-3.3455,-3.3036,-3.2706,-3.2662,-3.2138,-3.1823,-3.2044,-3.2534,-3.2866,-3.3193,-3.3953,-3.4441,-3.4692,-3.4832,-3.4947,-3.4742,-3.4742,-3.475,-3.4702,-3.4969,-3.5,-3.448,-3.5038,-3.5407,-3.5028,-3.5293,-3.5453,-3.56,-3.5583,-3.5616,-3.5616,-3.56,-3.5616,-3.5749,0.0,-3.5749,-3.5872,0.0,-3.6067,-3.5504,-3.4634,-3.4634,-3.4431,-3.4101,-3.4101,-3.4101,-3.4084,-3.3819,-3.3803,-3.3956,-3.3684,-3.3644,-3.3789,-3.3448,-3.3249,-3.3243,-3.2868,-3.2685,-3.2685,-3.2332,-3.1967,-3.1603,-3.1255,-3.0725,-3.0029,-2.9648,-2.9268,-2.8903,-2.8575,-2.8874,-2.9811,-3.0995,-3.1408,-3.1085,-3.1921,-3.2375,-3.2392,0.0,0.0,0.0,0.0,0.0,0.0,0.0,0.0,0.0,0.0,0.0,-3.1576,-3.1303,-3.1154,-3.1148,-3.0946,-3.0718,-3.0495,-3.1398,-3.2193,-3.2743,-3.2599,-3.3051,-3.4416,-3.4565,-3.4744,-3.5136,-3.4996,-3.4899,-3.4951,-3.4397,-3.4024,-3.3963,-3.3694,-3.3365,-3.3066,-3.3006,-3.2886,-3.2572,-3.2228,-3.2019,-3.1989,-3.172,-3.1467,-3.1496,-3.1754,-3.2092,-3.2547,-3.296,-3.3443,-3.3818,-3.3894,-3.3903,-3.3986,-3.4011,-3.4011,-3.4011,-3.4235,-3.4292,-3.4053,-3.4201,-3.4216,-3.3994,-3.3888,-3.3825,-3.3825,-3.3825,-3.3933,-3.413,-3.4622,-3.5042,-3.499,-3.5025,-3.5145,-3.5397,-3.5688,-3.5825,-3.5633,-3.5201,0.0,0.0,0.0,-3.3971,-3.3922,-3.3874,-3.321,-3.3014,-3.3186,-3.2646,-3.251,-3.2702,-3.2547,-3.2497,-3.2497,-3.2254,-3.2122,-3.2089,-3.1366,-3.0704,-3.0108,-2.9496,-2.8953,-2.8426,-2.8276,-2.8144,-2.8011,-2.8028,-2.8078,-2.821,-2.8386,-2.8491,-2.8508,-2.9484,-3.0057,-3.0192,-3.1033,-3.1319,-3.1004,-3.1004,-3.0985,-3.0985,-3.0985,-3.0948,-3.0868,-3.0885,-3.0645,-3.0172,-2.9711,-2.9451,-2.9438,-2.909,-2.8928,-2.9085,-3.0049,-3.1213,-3.2479,-3.2377,-3.2703,-3.3824,-3.4528,-3.4904,-3.4904,-3.4556,-3.4339,-3.4324,-3.3709,-3.332,-3.332,-3.3185,-3.2826,-3.2288,-3.2109,-3.1886,-3.125,-3.1132,-3.1161,-3.1131,-3.1043,-3.1161,-3.1175,-3.1351,-3.1768,-3.2315,-3.2547,-3.2815,-3.3287,-3.3469,-3.3547,-3.3563,-3.3544,-3.354,-3.3524,-3.3503,-3.3464,-3.3175,-3.2998,-3.2854,-3.2668,-3.2432,-3.2017,-3.2008,-3.2008,-3.2101,-3.2545,-3.3234,-3.3866,-3.4268,-3.432,-3.4921,-3.5228,-3.5325,-3.5962,-3.5832,-3.5178,-3.489,-3.4505,-3.4052,-3.3485,-3.3251,-3.3218,-3.2481,-3.2299,-3.2515,-3.2439,-3.2504,0.0,-3.2067,-3.1747,-3.1681,-3.0456,-2.9864,-2.9831,-2.9185,-2.8807,-2.8691,-2.8591,-2.8492,-2.8326,-2.7779,-2.7166,-2.655,-2.6518,-2.6816,-2.745,-2.835,-2.8835,-2.8835,-2.9599,-3.0311,-3.0917,-3.0754,-3.0638,-3.0593,-3.0593,-3.0572,-3.0593,-3.0572,-3.0389,-3.0011,-2.9973,-2.9728,-2.9182,-2.9044,-2.8958,-2.8826,-2.8772,-2.8831,-2.907,-2.9006,-2.9667,-3.1359,-3.2553,-3.3286,-3.3544,-3.3677,-3.3738,-3.3738,-3.3709,-3.3634,-3.3559,-3.3036,-3.2617,-3.2512,-3.2035,-3.1442,-3.0805,-3.0789,-3.0521,-2.994,-2.9789,-2.9805,-2.9771,-2.9811,-2.9787,-2.9943,-3.0777,-3.1539,-3.1826,-3.1927,-3.2025,-3.2127,-3.2355,-3.2341,-3.2453,-3.2059,-3.1862,-3.1903,-3.1823,-3.1624,-3.1057,-3.1586,-3.1839,-3.1557,-3.1798,-3.1731,-3.1729,-3.169,-3.1816,-3.1899,-3.1769,-3.1946,-3.3438,-3.3524,-3.4286,-3.4835,-3.5214,-3.5359,-3.5023,-3.429,-3.3763,-3.3523,-3.3494,-3.2805,-3.2498,-3.2433,-3.1737,-3.1505,-3.1671,-3.0953,-3.0647,-3.0688,-3.0059,-2.9749,-2.97,-2.9072,-2.8778,-2.882,-2.8558,-2.8194,-2.7829,-2.7796,-2.7597,-2.7265,-2.7249,-2.7116,-2.6833,-2.6904,-2.7133,-2.7447,-2.7838,-2.8226,-2.8628,-2.9062,-2.9455,-2.9803,-2.999,-3.0006,-2.9766,-2.9984,-3.0006,-2.9766,-2.975,-2.9617,-2.9325,-2.9319,-2.912,-2.8701,-2.84,-2.8231,-2.8158,-2.8067,-2.8046,-2.8172,-2.8382,-2.8816,-2.9641,-3.1018,-3.1962,-3.2362,-3.2736,-3.311,-3.3425,-3.317,-3.2796,-3.2452,-3.156,-3.0851,-3.0425,-2.9886,-2.9377,-2.9085,-2.9026,-2.8894,-2.8597,-2.8567,-2.8581,-2.8567,-2.8581,-2.8595,-2.8595,-2.9085,-2.9769,-3.0395,-3.0617,-3.0556,-3.0411,-3.0372,-3.0432,-3.0498,-3.0654,-3.0727,-3.0764,-3.0727,-3.0618,-3.0433,-3.0585,-3.0483,-3.0245,-3.0089,-3.0069,-3.0054,-3.0054,-3.0109,-3.028,-3.0316,-3.0619,-3.2662,-3.2731,-3.3697,-3.4441,-3.4921,-3.447,-3.3794,-3.2916,-3.2205,-3.197,-3.2059,-3.1688,-3.1526,-3.1445,-3.0581,-3.0243,-3.0228,-2.9303,-2.8801,-2.8657,-2.8236,-2.7974,-2.7825,-2.7731,-2.7725,-2.7768,-2.7692,-2.7315,-2.6806,-2.6756,-2.6557,-2.6243,-2.685,-2.721,-2.7227,-2.7361,-2.7515,-2.7669,-2.7525,-2.7738,-2.8276,-2.845,-2.8619,-2.8812,-2.9349,-2.9461,-2.9143,-2.9461,-2.9461,-2.9143,-2.9113,-2.8982,-2.8724,-2.8716,-2.855,-2.8174,-2.7765,-2.754,-2.7494,-2.7386,-2.7325,-2.7339,-2.781,-2.8118,-2.8233,-2.9116,-3.0097,-3.0872,-3.1394,-3.1901,-3.2229,-3.2034,-3.1513,-3.0877,-3.0044,-2.9304,-2.8597,-2.8083,-2.7693,-2.7619,-2.7576,-2.7559,-2.7384,-2.7355,-2.7322,-2.7349,-2.7473,-2.7531,-2.7414,-2.7531,-2.8157,-2.8479,-2.899,-2.9145,-2.8722,-2.8728,-2.8821,-2.8856,-2.9193,-2.9417,-2.9505,-2.9602,-2.9678,-2.9541,-2.9353,-2.9112,-2.901,-2.8802,-2.8559,-2.8535,-2.8599,-2.8682,-2.9022,-2.9277,-2.9605,-3.1903,-3.2127,-3.3457,-3.4148,-3.4056,-3.3363,-3.2267,-3.1065,-3.0349,-2.9687,-2.9362,-2.9815,-3.0075,-2.9896,-2.8644,-2.8188,-2.8278,-2.8086,-2.7847,-2.7573,-2.7508,-2.7253,-2.6772,-2.6272,-2.6029,-2.6007,-2.556,-2.5385,-2.5254,-2.5222,-2.5401,-2.5948,-2.6619,-2.6889,-2.6909,-2.693,-2.7261,-2.7927,-2.7939,-2.7967,-2.8031,-2.8066,-2.8399,-2.9048,-2.9118,-2.9143,-2.9005,-2.9159,-2.9143,-2.9113,-2.909,-2.8795,-2.8231,-2.8174,-2.7885,-2.7222,-2.7093,-2.7015,-2.691,-2.6989,-2.7029,-2.7055,-2.7177,-2.7314,-2.7299,-2.7428,-2.803,-2.9009,-2.9348,-2.9581,-2.9522,-2.962,-2.9494,-2.8941,-2.8754,-2.8568,-2.7911,-2.7852,-2.7576,-2.6939,-2.6772,-2.6668,-2.6117,-2.6025,-2.5986,-2.6003,-2.6404,-2.6511,-2.6203,-2.6791,-2.7071,-2.6668,-2.7111,-2.7806,-2.7778,-2.7996,-2.7883,-2.7968,-2.7779,-2.7795,-2.7893,-2.7636,-2.7251,-2.8124,-2.8087,-2.8012,-2.8057,-2.8118,-2.8217,-2.7949,-2.8088,-2.8396,-2.8468,-2.8573,-2.8889,-3.18,-3.1852,-3.2472,-3.2522,-3.2052,-3.1182,-3.0336,-2.9572,-2.8882,-2.827,-2.7801,-2.7662,-2.7949,-2.853,-2.7964,-2.7725,-2.7753,-2.7404,-2.7013,-2.6568,-2.6206,-2.5781,-2.5347,-2.5093,-2.5014,-2.5075,-2.4874,-2.4788,-2.4808,-2.4863,-2.4773,-2.4574,-2.5416,-2.5799,-2.5523,-2.5637,-2.6029,-2.66,-2.637,-2.6342,-2.6682,-2.7627,-2.8162,-2.8179,-2.8456,-2.8304,-2.7824,-2.828,-2.8496,-2.8238,-2.814,-2.778,-2.7067,-2.6979,-2.6759,-2.6406,-2.67,-2.67,-2.6313,-2.6727,-2.67,-2.6001,-2.6324,-2.6431,-2.6041,-2.596,-2.6145,-2.6679,-2.7811,-2.8574,-2.8534,-2.8607,-2.8266,-2.7456,-2.7087,-2.6688,-2.6057,-2.5768,-2.5477,-2.5212,-2.5196,-2.5163,-2.4865,-2.4788,-2.4788,-2.4805,-2.5074,-2.5114,-2.4921,-2.5298,-2.5314,-2.5001,-2.5314,-2.574,-2.6074,-2.6178,-2.6241,-2.6272,-2.6399,-2.6572,-2.6597,-2.6603,-2.6561,-2.6808,-2.7004,-2.7148,-2.7178,-2.7393,-2.756,-2.7469,-2.775,-2.8128,-2.8363,-2.8411,-2.8621,-3.125,-3.1216,-3.1028,-3.0664,-3.0135,-2.922,-2.8527,-2.7973,-2.7336,-2.6848,-2.645,-2.58,-2.5966,-2.6693,-2.6762,-2.6762,-2.6698,-2.6326,-2.5834,-2.5347,-2.4878,-2.442,-2.4012,-2.4032,-2.4032,-2.3981,-2.4023,-2.4008,-2.3945,-2.4242,-2.3982,-2.3526,-2.4403,-2.4777,-2.4473,-2.4543,-2.4799,-2.5142,-2.4836,-2.4847,-2.5404,-2.6579,-2.715,-2.6968,-2.7278,-2.7129,-2.6416,-2.7246,-2.75,-2.7019,-2.7049,-2.6762,-2.6068,-2.5892,-2.5797,-2.5715,-2.6042,-2.6123,-2.5688,-2.6165,-2.6055,-2.5328,-2.5563,-2.5618,-2.5231,-2.5063,-2.5007,-2.5174,-2.6424,-2.7265,-2.7329,-2.7371,-2.6919,-2.5959,-2.553,-2.5094,-2.4516,-2.4157,-2.4122,-2.4067,-2.4246,-2.4125,-2.4125,-2.4164,-2.4204,-2.4204,-2.4164,-2.4125,-2.4125,-2.4194,-2.4181,-2.4125,-2.4138,-2.4325,-2.4681,-2.4877,-2.4761,-2.4835,-2.523,-2.5467,-2.5563,-2.5673,-2.5945,-2.6094,-2.6281,-2.6467,-2.6613,-2.6811,-2.7045,-2.7148,-2.7393,-2.77,-2.786,-2.7999,-2.8024,-2.9897,-2.9763,-2.9141,-2.8837,-2.8699,-2.7973,-2.7073,-2.6169,-2.5643,-2.5272,-2.5028,-2.458,-2.4436,-2.4492,-2.4481,-2.4467,-2.4493,-2.4529,-2.4248,-2.3793,-2.3696,-2.3414,-2.3,-2.309,-2.2904,-2.2552,-2.2606,-2.2349,-2.196,-2.261,-2.2975,-2.2874,-2.3533,-2.4028,-2.3819,-2.3683,-2.389,-2.374,-2.3612,-2.3905,-2.4363,-2.4552,-2.4883,-2.5301,-2.555,-2.5605,-2.5536,-2.6054,-2.6149,-2.555,-2.6054,-2.6014,-2.5356,-2.5231,-2.5147,-2.5063,-2.5105,-2.5091,-2.5077,-2.5161,-2.5091,-2.4979,-2.4979,-2.5021,-2.4866,-2.4809,-2.4809,-2.4951,-2.5047,-2.5241,-2.5254,-2.5463,-2.5225,-2.4585,-2.4518,-2.4287,-2.3747,-2.3878,-2.3891,-2.3949,-2.3995,-2.4024,-2.4054,-2.4125,-2.3995,-2.3995,-2.4054,-2.4024,-2.3953,-2.4024,-2.3995,-2.3966,-2.3995,-2.4109,-2.4135,-2.4281,-2.4255,-2.4303,-2.4476,-2.4405,-2.4465,-2.4639,-2.5035,-2.5342,-2.5536,-2.5783,-2.6081,-2.6402,-2.6692,-2.6875,-2.6993,-2.7225,-2.7429,-2.7251,-2.7302,-2.8818,-2.8362,-2.7875,-2.7236,-2.6498,-2.6046,-2.5513,-2.4914,-2.4724,-2.4441,-2.4027,-2.3565,-2.3209,-2.2934,-2.2597,-2.2929,-2.3749,-2.3791,-2.339,-2.2704,-2.2628,-2.2377,-2.2002,-2.1978,-2.1931,-2.1714,-2.1459,-2.0948,-2.0306,-2.0737,-2.0704,-2.0258,-2.0733,-2.0888,-2.0563,-2.0471,-2.0623,-2.0991,-2.0975,-2.1159,-2.1647,-2.1613,-2.1838,-2.2406,-2.4363,-2.5203,-2.4823,-2.5412,-2.5618,-2.5398,-2.555,-2.5287,-2.4696,-2.4551,-2.4452,-2.4465,-2.4794,-2.4851,-2.4538,-2.4781,-2.461,-2.3914,-2.4192,-2.425,-2.3872,-2.3783,-2.3783,-2.3813,-2.3813,-2.3783,-2.3884,-2.4192,-2.4221,-2.3708,-2.3691,-2.3721,-2.3675,-2.3789,-2.392,-2.3979,-2.3848,-2.3641,-2.3569,-2.3378,-2.3143,-2.313,-2.316,-2.3173,-2.3173,-2.313,-2.319,-2.3143,-2.3143,-2.313,-2.313,-2.3763,-2.4112,-2.4112,-2.4171,-2.4157,-2.4203,-2.416,-2.4452,-2.4481,-2.4681,-2.4866,-2.5134,-2.5495,-2.5892,-2.6334,-2.6481,-2.6651,-2.703,-2.6916,-2.6993,-2.6971,-2.6047,-2.5783,-2.5219,-2.4474,-2.4266,-2.4028,-2.3764,-2.3651,-2.3413,-2.3024,-2.2372,-2.1899,-2.1582,-2.1073,-2.1188,-2.2066,-2.2534,-2.2486,-2.1899,-2.1875,-2.17,-2.1441,-2.1393,-2.1186,-2.0792,-2.0168,-1.9492,-1.901,-1.9274,-1.9064,-1.854,-1.885,-1.8876,-1.854,-1.8471,-1.8647,-1.8971,-1.9002,-1.9205,-1.9587,-1.9657,-1.9854,-2.0557,-2.2477,-2.3502,-2.3243,-2.3774,-2.4093,-2.4105,-2.4165,-2.3981,-2.3623,-2.3505,-2.356,-2.3767,-2.4163,-2.4221,-2.3884,-2.4163,-2.4018,-2.3228,-2.3471,-2.3573,-2.3125,-2.3095,-2.3095,-2.3095,-2.3095,-2.3095,-2.3185,-2.3514,-2.3573,-2.3155,-2.3047,-2.3005,-2.3095,-2.3065,-2.3155,-2.3305,-2.3245,-2.3168,-2.3108,-2.2829,-2.2695,-2.2634,-2.2634,-2.2634,-2.2634,-2.2634,-2.2634,-2.2634,-2.2695,-2.2695,-2.2756,-2.319,-2.3424,-2.3424,-2.3543,-2.3675,-2.3734,-2.3704,-2.3691,-2.3691,-2.3767,-2.393,-2.4192,-2.4565,-2.5021,-2.5522,-2.57,-2.5822,-2.6228,-2.6642,-2.6549,-2.4284,-2.3047,-2.2744,-2.2951,-2.2885,-2.2856,-2.2744,-2.261,-2.2289,-2.2095,-2.1834,-2.0973,-2.053,-2.0381,-1.9889,-1.9429,-1.9454,-2.058,-2.1159,-2.1062,-2.1124,-2.1075,-2.0939,-2.0877,-2.0331,-1.9466,-1.8558,-1.8081,-1.7945,-1.802,-1.8047,-1.8178,-1.8124,-1.8097,-1.8352,-1.8015,-1.8097,-1.8073,-1.7931,-1.8202,-1.877,-1.864,-1.8891,-1.9546,-1.9849,-2.0151,-2.0612,-2.1146,-2.1572,-2.1665,-2.1886,-2.2048,-2.2109,-2.217,-2.2402,-2.2914,-2.3078,-2.3065,-2.3078,-2.3083,-2.3143,-2.2884,-2.3035,-2.3022,-2.2854,-2.2884,-2.2884,-2.2854,-2.2884,-2.2975,-2.2914,-2.2975,-2.3035,-2.3035,-2.2628,-2.2267,-2.2175,-2.1753,-2.1596,-2.2113,-2.2359,-2.2561,-2.2561,-2.2408,-2.2329,-2.239,-2.2421,-2.2421,-2.2359,-2.2359,-2.2512,-2.2512,-2.2359,-2.2237,-2.2421,-2.2604,-2.2604,-2.2604,-2.2756,-2.2907,-2.301,-2.301,-2.307,-2.307,-2.31,-2.3225,-2.3403,-2.3771,-2.4079,-2.4485,-2.4684,-2.4938,-2.5259,-2.555,-2.5715,-2.3187,-2.2722,-2.2722,-2.2534,-2.2298,-2.2289,-2.189,-2.1212,-2.1046,-2.0788,-2.0304,-1.9685,-1.9414,-1.9284,-1.8826,-1.8305,-1.7938,-1.8416,-1.8643,-1.8605,-1.867,-1.8552,-1.8289,-1.8208,-1.775,-1.7076,-1.669,-1.6309,-1.6016,-1.6016,-1.5958,-1.5977,-1.6063,-1.6016,-1.613,-1.5987,-1.5948,-1.5958,-1.5901,-1.5992,-1.6132,-1.6171,-1.662,-1.7388,-1.7182,-1.7356,-1.8239,-1.9541,-2.0258,-2.0346,-2.0434,-2.0609,-2.0911,-2.1241,-2.1491,-2.169,-2.1721,-2.1733,-2.1784,-2.2125,-2.2206,-2.1939,-2.2144,-2.2113,-2.1784,-2.1753,-2.1796,-2.1753,-2.1733,-2.1733,-2.1721,-2.1721,-2.2125,-2.2987,-2.2525,-2.2082,-2.2021,-2.1753,-2.1647,-2.1678,-2.1585,-2.1553,-2.1647,-2.1534,-2.1408,-2.1639,-2.1639,-2.1671,-2.1639,-2.1671,-2.1639,-2.1639,-2.1639,-2.1721,-2.1846,-2.1784,-2.1628,-2.1877,-2.2113,-2.2298,-2.2359,-2.239,-2.2451,-2.2451,-2.2482,-2.2543,-2.2713,-2.2925,-2.3212,-2.3509,-2.379,-2.3995,-2.4211,-2.4454,-2.4724,-2.1295,-2.1,-2.0791,-2.0598,-2.0341,-2.019,-1.9712,-1.9132,-1.9106,-1.8859,-1.8463,-1.7962,-1.7741,-1.7632,-1.718,-1.661,-1.6136,-1.6126,-1.5859,-1.5781,-1.683,-1.6925,-1.6662,-1.6437,-1.6193,-1.5832,-1.5564,-1.5274,-1.4922,-1.4893,-1.4893,-1.4893,-1.4893,-1.4951,-1.4893,-1.4893,-1.4893,-1.4893,-1.4922,-1.4893,-1.4893,-1.4893,-1.5216,-1.5757,-1.5594,-1.5758,-1.641,-1.7437,-1.8342,-1.9057,-1.947,-1.9863,-2.0276,-2.0583,-2.0837,-2.106,-2.1103,-2.1135,-2.1123,-2.1522,-2.1553,-2.127,-2.1502,-2.1596,-2.1187,-2.1103,-2.1103,-2.1103,-2.1135,-2.1103,-2.1103,-2.1103,-2.1502,-2.223,-2.171,-2.1322,-2.1227,-2.1017,-2.0837,-2.0773,-2.0709,-2.073,-2.0741,-2.0688,-2.0506,-2.0775,-2.0796,-2.0796,-2.0796,-2.0828,-2.0828,-2.086,-2.088,-2.1008,-2.1158,-2.0999,-2.07,-2.104,-2.1471,-2.169,-2.1858,-2.1858,-2.1889,-2.1846,-2.1846,-2.1815,-2.197,-2.2082,-2.2329,-2.2592,-2.2972,-2.3301,-2.3598,-2.3774,-2.3979,-1.8718,-1.7895,-1.7462,-1.7363,-1.7308,-1.6954,-1.6776,-1.6585,-1.6574,-1.6508,-1.6254,-1.5733,-1.5466,-1.5341,-1.4789,-1.4269,-1.3781,-1.3695,-1.3176,-1.3159,-1.446,-1.5656,-1.5714,-1.5341,-1.508,-1.509,-1.4728,-1.451,-1.4145,-1.4273,-1.4638,-1.4165,-1.4204,-1.4549,-1.4264,-1.4549,-1.446,-1.4371,-1.449,-1.446,-1.446,-1.4519,-1.4677,-1.4785,-1.4765,-1.4824,-1.5001,-1.5134,-1.5989,-1.7736,-1.8581,-1.9145,-1.9706,-1.9911,-2.0096,-2.0505,-2.0805,-2.0666,-2.0762,-2.0687,-2.0751,-2.0666,-2.0805,-2.0976,-2.0709,-2.0549,-2.0505,-2.0473,-2.0537,-2.0634,-2.0602,-2.057,-2.0666,-2.0762,-2.0505,-2.0063,-1.933,-1.9462,-1.9594,-1.9627,-1.9781,-1.9966,-1.9868,-1.9868,-1.9901,-1.9966,-1.9955,-1.9922,-1.9933,-1.9966,-2.0128,-2.0128,-1.9998,-2.0063,-2.0161,-2.0107,-1.9868,-2.0063,-2.0505,-2.0805,-2.123,-2.1325,-2.1463,-2.14,-2.1273,-2.121,-2.1305,-2.1526,-2.1733,-2.2063,-2.2421,-2.2743,-2.2852,-2.2912,-2.296,-1.5818,-1.5567,-1.5453,-1.5424,-1.5396,-1.5281,-1.4936,-1.4587,-1.4558,-1.4012,-1.3301,-1.301,-1.2663,-1.2194,-1.2057,-1.1676,-1.1283,-1.1167,-1.084,-1.0329,-1.0795,-1.1936,-1.2676,-1.273,-1.267,-1.2678,-1.2564,-1.2143,-1.1727,-1.2258,-1.1935,-1.0916,-1.2035,-1.2174,-1.1789,-1.2235,-1.2373,-1.2404,-1.2435,-1.2427,-1.2427,-1.2427,-1.284,-1.3584,-1.3614,-1.3825,-1.4082,-1.3878,-1.4453,-1.6005,-1.6699,-1.7244,-1.7784,-1.8081,-1.8365,-1.8533,-1.8499,-1.8432,-1.8556,-1.8946,-1.9145,-1.911,-1.9529,-1.9573,-1.9054,-1.9054,-1.8811,-1.8543,-1.8375,-1.8465,-1.8432,-1.8499,-1.8465,-1.8533,-1.9299,-1.9682,-1.9164,-1.8808,-1.864,-1.864,-1.8395,-1.8408,-1.8576,-1.8667,-1.8723,-1.888,-1.8946,-1.8946,-1.9,-1.9,-1.91,-1.9023,-1.8957,-1.9013,-1.9056,-1.9067,-1.9067,-1.9133,-1.942,-1.9759,-2.0323,-2.0816,-2.1063,-2.1233,-2.0892,-2.0784,-2.1031,-2.1285,-2.1463,-2.1345,-2.1471,-2.1573,-2.1659,-2.1721,-2.176,-1.297,-1.297,-1.2761,-1.268,-1.265,-1.2554,-1.2269,-1.1996,-1.1928,-1.1401,-1.0598,-1.0412,-1.0018,-0.9437,-0.9368,-0.9072,-0.862,-0.8557,-0.8388,-0.827,-0.8532,-0.9426,-1.038,-1.0607,-1.0607,-1.0607,-1.0607,-1.0443,-1.0191,-1.045,-1.0122,-0.98,-1.0223,-1.0387,-1.0185,-1.0387,-1.0613,-1.0638,-1.0638,-1.0607,-1.0607,-1.0607,-1.1114,-1.1866,-1.2058,-1.2343,-1.2897,-1.2814,-1.3451,-1.4817,-1.5624,-1.6266,-1.6986,-1.7275,-1.7407,-1.7407,-1.7407,-1.7373,-1.7295,-1.7721,-1.7891,-1.7867,-1.824,-1.825,-1.8022,-1.792,-1.7716,-1.7554,-1.7407,-1.7407,-1.7407,-1.7407,-1.7407,-1.7604,-1.8341,-1.8777,-1.8395,-1.81,-1.793,-1.7818,-1.7647,-1.7476,-1.774,-1.774,-1.7833,-1.7983,-1.8061,-1.8061,-1.807,-1.8037,-1.7959,-1.7872,-1.7939,-1.8041,-1.8041,-1.8051,-1.7983,-1.8041,-1.822,-1.859,-1.9299,-1.9998,-2.0204,-2.0334,-2.0334,-2.0334,-2.0463,-2.0463,-2.0226,-2.015,-2.0258,-2.0355,-2.042,-2.0656,-2.0645,-1.0017,-0.9986,-0.9549,-0.9336,-0.9198,-0.9029,-0.879,-0.8674,-0.8695,-0.8265,-0.7639,-0.7713,-0.7186,-0.6728,-0.66,-0.6488,-0.5954,-0.5958,-0.5875,-0.5963,-0.6367,-0.7173,-0.7631,-0.867,-0.8803,-0.8803,-0.8963,-0.8766,-0.851,-0.8676,-0.874,-0.835,-0.8542,-0.8899,-0.8644,-0.8803,-0.9,-0.9006,-0.9,-0.8974,-0.9038,-0.914,-0.9616,-1.0229,-1.0638,-1.104,-1.1571,-1.1814,-1.2461,-1.4082,-1.4908,-1.5641,-1.6633,-1.6862,-1.6768,-1.6655,-1.655,-1.6585,-1.6585,-1.6655,-1.6975,-1.6837,-1.7044,-1.7192,-1.7123,-1.7088,-1.7019,-1.6881,-1.7132,-1.6994,-1.7097,-1.7166,-1.6994,-1.6881,-1.7054,-1.7088,-1.7063,-1.7166,-1.7339,-1.7304,-1.727,-1.7245,-1.7245,-1.7245,-1.7201,-1.7054,-1.7088,-1.6941,-1.6828,-1.668,-1.6706,-1.6722,-1.6869,-1.7095,-1.706,-1.7035,-1.6922,-1.6888,-1.706,-1.7404,-1.8196,-1.88,-1.9034,-1.9243,-1.9573,-1.9606,-1.9441,-1.9309,-1.9133,-1.9266,-1.9606,-1.9375,-1.9166,-1.9529,-1.9694,-0.6043,-0.6047,-0.5925,-0.5549,-0.5178,-0.5531,-0.5163,-0.4219,-0.4721,-0.4392,-0.3449,-0.3689,-0.3567,-0.2918,-0.348,-0.3595,-0.3458,-0.3425,-0.3199,-0.273,-0.3369,-0.3058,-0.3499,-0.5375,-0.6579,-0.6347,-0.618,-0.5956,-0.5701,-0.5992,-0.5632,-0.4949,-0.5919,-0.6188,-0.6225,-0.6347,-0.6485,-0.6922,-0.7019,-0.7015,-0.7117,-0.7516,-0.8076,-0.8801,-0.9557,-1.0182,-1.0571,-1.0736,-1.115,-1.1976,-1.2901,-1.3698,-1.4229,-1.4343,-1.4299,-1.4299,-1.445,-1.453,-1.453,-1.4966,-1.5365,-1.5675,-1.5737,-1.5886,-1.5921,-1.5851,-1.5824,-1.5719,-1.5692,-1.5754,-1.5982,-1.6105,-1.5833,-1.5419,-1.5269,-1.5065,-1.4772,-1.5772,-1.6533,-1.6577,-1.6333,-1.614,-1.6105,-1.6096,-1.6096,-1.6149,-1.5991,-1.5806,-1.5613,-1.5384,-1.5376,-1.5465,-1.5359,-1.5508,-1.5658,-1.5658,-1.5658,-1.5666,-1.5842,-1.6053,-1.6844,-1.7575,-1.7828,-1.8412,-1.9077,-1.89,-1.8499,-1.8734,-1.87,-1.8834,-1.8877,-1.87,-1.86,-1.8767,-1.8744,-0.2179,-0.1976,-0.2212,-0.1945,-0.1579,-0.2345,-0.2213,-0.1515,-0.1913,-0.162,-0.0862,-0.1063,-0.0766,-0.0134,-0.0502,-0.0669,-0.0769,-0.1069,-0.1002,-0.0868,-0.1302,-0.1067,-0.0466,-0.1958,-0.3185,-0.3454,-0.3959,-0.3801,-0.3737,-0.3801,-0.3801,-0.3047,-0.3732,-0.4094,-0.4066,-0.4061,-0.4293,-0.456,-0.4662,-0.4662,-0.4761,-0.5335,-0.632,-0.726,-0.8175,-0.884,-0.9074,-0.9123,-0.9353,-0.992,-1.0724,-1.1843,-1.2859,-1.3055,-1.2974,-1.2974,-1.312,-1.3193,-1.3266,-1.3491,-1.3882,-1.4011,-1.4155,-1.4271,-1.4271,-1.4271,-1.4235,-1.4171,-1.4135,-1.4214,-1.4402,-1.4402,-1.4142,-1.3954,-1.3803,-1.3629,-1.352,-1.4386,-1.5136,-1.5108,-1.4824,-1.4724,-1.4697,-1.4919,-1.4804,-1.4796,-1.476,-1.4573,-1.4502,-1.4279,-1.4135,-1.4099,-1.3846,-1.3854,-1.4106,-1.4214,-1.4279,-1.4386,-1.4601,-1.4807,-1.5217,-1.5948,-1.6644,-1.7204,-1.7702,-1.7755,-1.7516,-1.7823,-1.7915,-1.7799,-1.7765,-1.7935,-1.7935,-1.7696,-1.7662,0.1259,0.1617,0.116,0.1292,0.1585,0.063,0.0564,0.1092,0.0531,0.0897,0.12,0.1234,0.16,0.194,0.1874,0.1908,0.1706,0.1369,0.11,0.1266,0.0699,0.0998,0.1332,0.0866,0.01,-0.0834,-0.1536,-0.1839,-0.1872,-0.204,-0.1737,-0.1907,-0.1973,-0.197,-0.2104,-0.2209,-0.2306,-0.2506,-0.2739,-0.279,-0.2868,-0.345,-0.4512,-0.5555,-0.6616,-0.7216,-0.7543,-0.7766,-0.7941,-0.8024,-0.8651,-1.0067,-1.1483,-1.2455,-1.2462,-1.2388,-1.2352,-1.2308,-1.2204,-1.2425,-1.2645,-1.2234,-1.2528,-1.2755,-1.2792,-1.2865,-1.2894,-1.2974,-1.3047,-1.312,-1.2938,-1.3157,-1.3018,-1.2792,-1.2718,-1.2682,-1.2602,-1.2865,-1.3084,-1.3673,-1.3854,-1.389,-1.3818,-1.3897,-1.3637,-1.3455,-1.3419,-1.3382,-1.331,-1.3237,-1.3127,-1.2835,-1.2615,-1.2542,-1.2718,-1.3244,-1.328,-1.3346,-1.3528,-1.3738,-1.3939,-1.4577,-1.5288,-1.5658,-1.6018,-1.6123,-1.6158,-1.614,-1.6254,-1.6429,-1.6385,-1.628,-1.6332,-1.6438,-1.6499,0.3228,0.3292,0.3195,0.356,0.4023,0.3328,0.3628,0.4734,0.3992,0.4298,0.4707,0.4334,0.3997,0.4036,0.3569,0.3369,0.3303,0.3133,0.3332,0.3633,0.3195,0.3398,0.4002,0.3139,0.2639,0.2639,0.1671,0.0869,0.0636,0.0871,0.0435,0.0703,0.0669,0.0435,-0.0033,-0.01,-0.047,-0.0875,-0.1381,-0.1699,-0.1762,-0.2438,-0.3198,-0.4097,-0.5073,-0.5707,-0.6277,-0.7138,-0.7736,-0.7651,-0.7727,-0.799,-0.8742,-0.9841,-1.0421,-1.0576,-1.0913,-1.1062,-1.1062,-1.1515,-1.1811,-1.1848,-1.1848,-1.1848,-1.1885,-1.1885,-1.1872,-1.2081,-1.2375,-1.2675,-1.2901,-1.2382,-1.2352,-1.2063,-1.1657,-1.1471,-1.1025,-1.0981,-1.1502,-1.2265,-1.2748,-1.3084,-1.2901,-1.2835,-1.2762,-1.2725,-1.2755,-1.2579,-1.2402,-1.2291,-1.2218,-1.1848,-1.1403,-1.1366,-1.1397,-1.2107,-1.2482,-1.2475,-1.2622,-1.2879,-1.3127,-1.3491,-1.3926,-1.4127,-1.445,-1.4692,-1.4657,-1.4657,-1.4799,-1.5128,-1.4879,-1.4585,-1.495,-1.5269,-1.4985,0.5621,0.6106,0.5522,0.5628,0.5961,0.5236,0.5375,0.6115,0.5642,0.5547,0.5719,0.5514,0.5378,0.5276,0.5041,0.4842,0.4839,0.4839,0.5044,0.5243,0.5074,0.511,0.5888,0.4782,0.4752,0.4683,0.4146,0.2978,0.1978,0.1777,0.1945,0.1811,0.1878,0.1676,0.1307,0.0906,0.0948,0.0579,-0.0103,-0.0556,-0.0321,-0.1261,-0.2198,-0.2891,-0.3436,-0.3939,-0.422,-0.4591,-0.4977,-0.4944,-0.5289,-0.5719,-0.6451,-0.7291,-0.8286,-0.8685,-0.9339,-0.9722,-0.9836,-1.0325,-1.0738,-1.0738,-1.0775,-1.0781,-1.0775,-1.0775,-1.0689,-1.049,-1.0018,-1.0088,-0.9975,-1.0243,-0.9911,-0.9653,-0.9621,-0.947,-0.9135,-0.9021,-0.9728,-1.0728,-1.1118,-1.1422,-1.1687,-1.1731,-1.1842,-1.1953,-1.1983,-1.1731,-1.1366,-1.1254,-1.1136,-1.0987,-1.0657,-1.0726,-1.0689,-1.1068,-1.1477,-1.1515,-1.1589,-1.1811,-1.1996,-1.2168,-1.2241,-1.2388,-1.2741,-1.3165,-1.3839,-1.4063,-1.3983,-1.3903,-1.3968,-1.404,-1.404,-1.404,-1.3787,0.7842,0.8619,0.7647,0.7517,0.7712,0.6999,0.6896,0.7125,0.6863,0.6638,0.6412,0.6441,0.6379,0.6251,0.6247,0.628,0.6379,0.6342,0.6214,0.6243,0.621,0.6247,0.6218,0.6086,0.5984,0.5851,0.562,0.4851,0.3482,0.298,0.2781,0.2848,0.2714,0.256,0.2502,0.2073,0.217,0.1924,0.1307,0.0932,0.099,0.0075,-0.0989,-0.1637,-0.2016,-0.2305,-0.2457,-0.2809,-0.289,-0.2968,-0.3239,-0.382,-0.4559,-0.5214,-0.5986,-0.6846,-0.7851,-0.8351,-0.8618,-0.896,-0.9372,-0.9372,-0.9382,-0.942,-0.942,-0.9296,-0.915,-0.8504,-0.8114,-0.7838,-0.8062,-0.7689,-0.7689,-0.7727,-0.7766,-0.7574,-0.7766,-0.7842,-0.7957,-0.8746,-0.9329,-0.975,-1.0002,-1.0115,-1.0153,-1.0153,-1.0185,-1.0153,-0.99,-0.9976,-0.9976,-1.0088,-1.0051,-1.0158,-1.0164,-1.0126,-1.0351,-1.0319,-1.0319,-1.0464,-1.0501,-1.0576,-1.0689,-1.0795,-1.1124,-1.1668,-1.2558,-1.3164,-1.2865,-1.2821,-1.3244,-1.3244,-1.2887,-1.2851,-1.2778,0.9262,0.9358,0.9224,0.9198,0.9198,0.9,0.9032,0.9032,0.8903,0.871,0.8096,0.8129,0.7842,0.7489,0.7391,0.7679,0.7874,0.7647,0.7419,0.7419,0.7358,0.7326,0.726,0.6773,0.6795,0.6742,0.6341,0.5855,0.5282,0.4916,0.4661,0.4534,0.4229,0.4076,0.3991,0.3438,0.3244,0.3277,0.2608,0.2238,0.2138,0.1422,0.0932,0.0389,-0.0469,-0.1332,-0.1409,-0.18,-0.2112,-0.2073,-0.2228,-0.2657,-0.3207,-0.3363,-0.3949,-0.5035,-0.6346,-0.7613,-0.7574,-0.7846,-0.7999,-0.8037,-0.7961,-0.7808,-0.7923,-0.7884,-0.777,-0.7693,-0.7425,-0.7272,-0.7157,-0.7349,-0.7425,-0.731,-0.7119,-0.7195,-0.7272,-0.6815,-0.6927,-0.6957,-0.7609,-0.7957,-0.8223,-0.8304,-0.838,-0.838,-0.8423,-0.8461,-0.8613,-0.8841,-0.8993,-0.9145,-0.9221,-0.9367,-0.9442,-0.941,-0.9334,-0.9263,-0.9263,-0.9263,-0.9377,-0.9448,-0.9188,-0.9372,-0.9707,-1.0153,-1.0901,-1.1347,-1.1397,-1.1465,-1.1564,-1.1533,-1.1403,-1.1471,-1.1687,1.1353,1.0174,0.9703,0.9486,0.9486,0.9486,0.9486,0.9518,0.9614,0.9518,0.9294,0.932,0.916,0.8962,0.893,0.9058,0.925,0.8994,0.8898,0.8775,0.8624,0.8495,0.8398,0.8025,0.7761,0.7826,0.7755,0.788,0.7391,0.6433,0.5714,0.5759,0.5799,0.5637,0.5377,0.4806,0.4635,0.4436,0.3946,0.3347,0.2884,0.2486,0.2112,0.1684,0.0861,0.0313,-0.0196,-0.047,-0.0705,-0.0627,-0.0627,-0.0979,-0.1488,-0.176,-0.2073,-0.2932,-0.3703,-0.4902,-0.615,-0.6727,-0.6919,-0.7073,-0.7038,-0.7153,-0.7038,-0.6615,-0.6426,-0.658,-0.616,-0.6009,-0.6047,-0.6051,-0.6089,-0.6089,-0.6002,-0.6041,-0.6041,-0.6089,-0.5896,-0.5851,-0.5806,-0.6037,-0.6419,-0.6919,-0.7226,-0.7579,-0.7617,-0.7698,-0.7884,-0.8109,-0.8228,-0.8309,-0.8385,-0.8423,-0.8494,-0.8533,-0.8537,-0.8466,-0.8499,-0.8499,-0.8466,-0.8428,-0.8161,-0.8237,-0.8647,-0.9064,-0.941,-0.9712,-0.9938,-0.9863,-0.9755,-0.9906,-1.0094,-1.04,-1.0694,1.3105,1.1595,1.0885,1.0602,1.0634,1.0602,1.069,1.0665,1.0885,1.0791,1.0564,1.0557,1.0557,1.0564,1.0407,1.0255,1.0476,1.0174,1.0021,0.9875,0.9771,0.9594,0.9518,0.9242,0.9192,0.9219,0.9078,0.9052,0.8637,0.7941,0.7111,0.6784,0.6927,0.6869,0.6486,0.6176,0.6021,0.5695,0.5054,0.4395,0.39,0.355,0.3125,0.2698,0.2271,0.192,0.1333,0.1214,0.1214,0.1293,0.098,0.0549,-0.0039,-0.0509,-0.1057,-0.1721,-0.2227,-0.2812,-0.4135,-0.5027,-0.5761,-0.5877,-0.5835,-0.5488,-0.525,-0.4949,-0.4681,-0.4675,-0.4334,-0.4146,-0.419,-0.4187,-0.4185,-0.4144,-0.4183,-0.4226,-0.4265,-0.4338,-0.4258,-0.4021,-0.3941,-0.3945,-0.4484,-0.5369,-0.6031,-0.6657,-0.6853,-0.685,-0.6927,-0.6957,-0.6961,-0.6892,-0.6969,-0.7046,-0.7161,-0.7276,-0.7433,-0.7587,-0.7583,-0.7506,-0.7357,-0.728,-0.7169,-0.7322,-0.7587,-0.751,-0.7621,-0.8084,-0.8542,-0.8808,-0.8955,-0.8846,-0.8965,-0.9306,-0.9652,1.4085,1.3965,1.3717,1.3567,1.3507,1.3696,1.3627,1.3287,1.3498,1.3111,1.2501,1.2119,1.2127,1.2227,1.1611,1.1346,1.1788,1.0577,1.0429,1.0386,1.0283,1.0502,1.058,1.0654,1.0588,1.025,1.0158,0.9863,0.9517,0.9437,0.8796,0.8453,0.8196,0.7897,0.7642,0.7478,0.7215,0.6786,0.6083,0.5628,0.5198,0.4805,0.4256,0.4021,0.3476,0.2968,0.2891,0.2774,0.2735,0.2852,0.2388,0.1919,0.1329,0.0782,0.0117,-0.0548,-0.0783,-0.1213,-0.1954,-0.293,-0.3324,-0.3402,-0.34,-0.3396,-0.3042,-0.2499,-0.2266,-0.2578,-0.2659,-0.2501,-0.2345,-0.215,-0.262,-0.2737,-0.2932,-0.2893,-0.2893,-0.2696,-0.2578,-0.2228,-0.2228,-0.2464,-0.262,-0.3507,-0.4327,-0.4913,-0.5151,-0.5148,-0.5154,-0.519,-0.5196,-0.5198,-0.5354,-0.5431,-0.5512,-0.5702,-0.6005,-0.6244,-0.6363,-0.617,-0.598,-0.5983,-0.6212,-0.6173,-0.6286,-0.6018,-0.5983,-0.6745,-0.7433,-0.7965,-0.8156,-0.7893,-0.8046,-0.8428,-0.8699,1.5565,1.5536,1.5507,1.4903,1.4004,1.4004,1.4004,1.4025,1.4085,1.4046,1.3849,1.364,1.3391,1.3166,1.2909,1.2546,1.2633,1.2245,1.1998,1.2029,1.2082,1.1952,1.1923,1.1764,1.1648,1.1497,1.1275,1.1106,1.1052,1.0626,1.0417,1.0014,0.9479,0.9153,0.8931,0.8548,0.8241,0.7901,0.7249,0.6791,0.6595,0.598,0.5315,0.4724,0.4569,0.3984,0.3595,0.3556,0.3595,0.3558,0.3365,0.3049,0.2774,0.2305,0.172,0.1018,0.0861,0.0666,0.0039,-0.1018,-0.1957,-0.1997,-0.1997,-0.1801,-0.1409,-0.1487,-0.1605,-0.1684,-0.1605,-0.1487,-0.1837,-0.1915,-0.2033,-0.1915,-0.1799,-0.1681,-0.1603,-0.1447,-0.1447,-0.133,-0.133,-0.1448,-0.1525,-0.168,-0.2462,-0.3168,-0.3326,-0.3522,-0.364,-0.3679,-0.3756,-0.3834,-0.3949,-0.4185,-0.43,-0.4496,-0.4693,-0.4893,-0.509,-0.5012,-0.4932,-0.5249,-0.5404,-0.5249,-0.5249,-0.5326,-0.5479,-0.5825,-0.6286,-0.6745,-0.6899,-0.6784,-0.7092,-0.7548,-0.774,1.6402,1.6402,1.6402,1.5768,1.4785,1.4726,1.4726,1.4756,1.4844,1.4903,1.5079,1.5144,1.5012,1.4632,1.4513,1.4223,1.3981,1.3663,1.3533,1.338,1.3196,1.3206,1.3116,1.3023,1.2937,1.2813,1.2535,1.2285,1.179,1.1552,1.118,1.0914,1.0807,1.0265,0.9884,0.9344,0.9079,0.8856,0.8055,0.7557,0.7365,0.6641,0.6064,0.5473,0.5354,0.516,0.4807,0.473,0.4691,0.4574,0.438,0.4183,0.4066,0.3869,0.3482,0.3134,0.2821,0.2586,0.1763,0.0313,-0.0822,-0.094,-0.094,-0.0823,-0.0627,-0.0509,-0.0392,-0.051,-0.0627,-0.0823,-0.1017,-0.0704,-0.0587,-0.0392,-0.0431,-0.0352,-0.0431,-0.0352,-0.047,-0.0548,-0.047,-0.0235,-0.0431,-0.0548,-0.1369,-0.2073,-0.2542,-0.2659,-0.2659,-0.2698,-0.262,-0.2659,-0.2698,-0.2932,-0.3205,-0.34,-0.3597,-0.3677,-0.3873,-0.3992,-0.4031,-0.4348,-0.4584,-0.4579,-0.4618,-0.474,-0.5051,-0.5401,-0.544,-0.5482,-0.5712,-0.6015,-0.6212,-0.6633,-0.6749,1.6501,1.6402,1.653,1.6483,1.6417,1.6327,1.6269,1.6148,1.6246,1.6296,1.6367,1.6654,1.6747,1.6598,1.6317,1.5873,1.528,1.4828,1.4437,1.4036,1.4126,1.4119,1.4188,1.4226,1.4135,1.3845,1.3585,1.3063,1.2261,1.2254,1.1879,1.1366,1.1217,1.0999,1.0956,1.0255,0.9916,0.969,0.8394,0.7974,0.7744,0.7173,0.6714,0.6409,0.6367,0.6247,0.5941,0.5864,0.5825,0.5783,0.5354,0.5157,0.5038,0.453,0.4142,0.3871,0.3832,0.3754,0.3519,0.1291,0.047,0.0274,0.0391,0.0627,0.1059,0.1217,0.1099,0.0902,0.0981,0.102,0.1099,0.1099,0.098,0.0784,0.0706,0.0706,0.0627,0.051,0.0314,0.0235,0.0746,0.11,0.0825,0.0471,-0.0392,-0.1096,-0.1681,-0.1838,-0.1681,-0.1526,-0.1409,-0.1409,-0.1448,-0.18,-0.2072,-0.2345,-0.2503,-0.2582,-0.2738,-0.2973,-0.3091,-0.3248,-0.3482,-0.3715,-0.3951,-0.4073,-0.4545,-0.4976,-0.5054,-0.5132,-0.5246,-0.5476,-0.5598,-0.5715,-0.5944,1.839,1.8797,1.8797,1.8786,1.8552,1.7034,1.6539,1.682,1.7119,1.7334,1.7476,1.7643,1.7451,1.7257,1.7151,1.6811,1.6079,1.5861,1.5304,1.5128,1.515,1.5208,1.5283,1.5203,1.5232,1.5046,1.476,1.4394,1.3991,1.344,1.2901,1.2425,1.1805,1.1446,1.1298,1.0999,1.0931,1.0887,1.0121,0.9513,0.9367,0.8651,0.7974,0.7476,0.7476,0.7249,0.6868,0.6868,0.683,0.6753,0.6282,0.6202,0.6125,0.5657,0.5464,0.5154,0.496,0.4686,0.4336,0.3163,0.2542,0.219,0.2151,0.2309,0.2235,0.2741,0.2586,0.2275,0.2196,0.1961,0.1414,0.1844,0.1843,0.1413,0.1295,0.1412,0.1373,0.1217,0.1061,0.0982,0.1258,0.1297,0.114,0.1022,0.0353,0.0118,-0.0392,-0.0431,-0.0314,-0.0196,-0.0078,-0.0078,-0.0157,-0.0587,-0.094,-0.1252,-0.1604,-0.18,-0.1994,-0.2228,-0.2308,-0.2151,-0.2425,-0.2659,-0.3051,-0.3444,-0.3759,-0.4112,-0.4623,-0.4857,-0.4776,-0.4932,-0.521,-0.5251,-0.5287,1.9685,2.0064,2.0064,1.9919,1.9493,1.8006,1.7408,1.7506,1.7748,1.7966,1.8069,1.8195,1.8166,1.7968,1.7954,1.7702,1.6973,1.6925,1.6591,1.6376,1.6105,1.6044,1.6018,1.5903,1.5692,1.5692,1.5471,1.5108,1.4716,1.445,1.373,1.2938,1.2609,1.2211,1.1879,1.1558,1.149,1.1329,1.072,1.0265,1.0078,0.9631,0.8993,0.8656,0.8428,0.8271,0.7893,0.7702,0.7591,0.7433,0.728,0.7165,0.7015,0.6826,0.6591,0.6205,0.6009,0.5735,0.5422,0.5384,0.4683,0.3791,0.4144,0.3832,0.3365,0.3636,0.3558,0.3326,0.3171,0.2859,0.2546,0.3015,0.2859,0.2468,0.2507,0.2624,0.2156,0.1961,0.1727,0.1688,0.1532,0.1453,0.1453,0.1297,0.1021,0.1021,0.0982,0.0943,0.0825,0.0786,0.0786,0.0707,0.0667,0.0235,-0.0039,-0.0157,-0.0548,-0.0939,-0.1096,-0.1213,-0.1018,-0.0823,-0.1214,-0.1564,-0.1839,-0.219,-0.2699,-0.313,-0.3483,-0.3759,-0.3915,-0.4229,-0.4781,-0.4898,-0.4898,2.0245,2.0245,2.0257,1.993,1.9395,1.9257,1.8838,1.8253,1.8234,1.8296,1.8327,1.8817,1.8882,1.902,1.936,1.9071,1.8452,1.8372,1.7852,1.7326,1.6837,1.6698,1.6429,1.6184,1.6079,1.5939,1.5833,1.5683,1.5081,1.4966,1.4279,1.3585,1.3658,1.3084,1.2469,1.207,1.1966,1.17,1.1323,1.0975,1.0795,1.0196,0.9787,0.9561,0.9448,0.9296,0.9107,0.9026,0.8651,0.8347,0.808,0.7587,0.7246,0.6942,0.6903,0.6903,0.6861,0.6784,0.6707,0.6749,0.6514,0.5464,0.5032,0.4683,0.4489,0.4606,0.4606,0.445,0.4256,0.4256,0.4215,0.4256,0.4256,0.4139,0.4178,0.3789,0.309,0.274,0.2429,0.2234,0.1999,0.1921,0.2038,0.1922,0.1845,0.1688,0.1609,0.1375,0.1258,0.114,0.11,0.11,0.1021,0.0943,0.0746,0.0549,0.0431,0.0,0.0157,0.0157,0.0353,0.0235,-0.0196,-0.0548,-0.0587,-0.0939,-0.1604,-0.1956,-0.2151,-0.2426,-0.2896,-0.3483,-0.3995,-0.4584,-0.4701,2.1425,2.1425,2.1414,2.1303,2.1077,2.0695,1.9861,1.8806,1.903,1.9254,1.9404,1.9566,1.9641,1.9792,1.9922,1.9584,1.9287,1.8944,1.8365,1.7901,1.755,1.7157,1.689,1.6647,1.6577,1.6542,1.6508,1.6403,1.6228,1.5903,1.5507,1.5108,1.4708,1.3991,1.3339,1.2989,1.2622,1.2187,1.1768,1.1657,1.162,1.1323,1.0956,1.0657,1.0545,1.0351,1.0008,0.9895,0.9448,0.8775,0.858,0.8165,0.7403,0.733,0.733,0.733,0.7326,0.7326,0.7326,0.7365,0.7249,0.6976,0.6588,0.6047,0.5774,0.5657,0.5812,0.5538,0.5345,0.5303,0.5187,0.5148,0.5148,0.5071,0.511,0.488,0.4256,0.3828,0.3519,0.3207,0.2973,0.2934,0.2973,0.274,0.2663,0.2469,0.2235,0.2003,0.165,0.1493,0.1336,0.1336,0.1258,0.114,0.114,0.1021,0.1061,0.1021,0.1022,0.0982,0.0864,0.0667,0.0549,0.0353,0.0157,-0.0157,-0.0627,-0.09,-0.1096,-0.1527,-0.1997,-0.2623,-0.3249,-0.368,-0.4109,2.2063,2.2187,2.2175,2.2113,2.1896,2.1388,2.0572,1.9896,1.9825,1.9933,2.015,2.0172,2.0291,2.0539,2.055,2.0388,2.0128,2.0063,1.9628,1.8967,1.8365,1.791,1.7545,1.721,1.7038,1.7072,1.7038,1.6934,1.6899,1.6647,1.6254,1.5789,1.5578,1.4895,1.4178,1.3861,1.3499,1.2849,1.2378,1.2342,1.2305,1.2305,1.1929,1.1669,1.1558,1.1217,1.0913,1.0795,1.0389,0.9793,0.9642,0.9263,0.8651,0.8537,0.8241,0.8241,0.8203,0.7978,0.7753,0.7714,0.7714,0.7714,0.7714,0.7326,0.698,0.6822,0.6707,0.6511,0.6356,0.624,0.6121,0.5964,0.5848,0.577,0.5851,0.5931,0.55,0.5071,0.4722,0.4411,0.4256,0.4217,0.4064,0.3791,0.3597,0.3482,0.3248,0.2937,0.2392,0.1806,0.1611,0.1454,0.1375,0.1258,0.1336,0.1375,0.1297,0.1258,0.1218,0.1178,0.1178,0.1099,0.0942,0.0864,0.0824,0.051,0.0235,0.0039,-0.0157,-0.0549,-0.0823,-0.1253,-0.1761,-0.2387,-0.2817,2.2359,2.2592,2.2604,2.2408,2.2082,2.1514,2.1242,2.1158,2.0518,2.0367,2.0603,2.0635,2.0828,2.0999,2.1042,2.1042,2.0903,2.0871,2.0463,2.0063,1.9497,1.8867,1.825,1.7794,1.7613,1.7407,1.7245,1.7245,1.721,1.7028,1.6716,1.6184,1.6821,1.628,1.4824,1.4768,1.4258,1.3251,1.2709,1.2452,1.2415,1.2372,1.2335,1.2335,1.2298,1.2231,1.2268,1.2194,1.1966,1.1409,1.0993,1.0619,1.0121,0.9852,0.948,0.9069,0.8922,0.8513,0.8102,0.7949,0.7987,0.8025,0.8063,0.791,0.7676,0.7522,0.7365,0.7288,0.7173,0.7096,0.6976,0.6899,0.6822,0.6703,0.6742,0.6665,0.6353,0.6041,0.5886,0.5574,0.5497,0.5458,0.5345,0.5074,0.4722,0.4608,0.4258,0.3869,0.3482,0.2665,0.2158,0.1885,0.1611,0.1533,0.1493,0.1493,0.1454,0.1415,0.1454,0.1415,0.1454,0.1415,0.1375,0.1336,0.1296,0.1296,0.1139,0.0903,0.0824,0.0785,0.051,0.0235,-0.0274,-0.0901,-0.1605,2.2985,2.2634,2.2634,2.2531,2.2408,2.1939,2.1733,2.1671,2.1178,2.0978,2.1031,2.1063,2.1094,2.1265,2.1296,2.1285,2.1265,2.1328,2.0828,2.0441,2.0074,1.9584,1.9056,1.8408,1.8182,1.8046,1.7818,1.7426,1.7392,1.7392,1.7392,1.7151,1.7505,1.6742,1.5675,1.5613,1.4796,1.3825,1.3215,1.2922,1.2893,1.2783,1.2746,1.2746,1.2753,1.2716,1.2716,1.2716,1.2268,1.1706,1.1595,1.1105,1.0421,1.0453,1.0008,0.9415,0.941,0.9079,0.8589,0.8403,0.8441,0.8289,0.825,0.814,0.8025,0.7987,0.7987,0.7987,0.791,0.7834,0.7761,0.7718,0.7718,0.7599,0.7518,0.7322,0.7088,0.7011,0.6896,0.6819,0.67,0.6584,0.6472,0.6237,0.5886,0.55,0.5038,0.4727,0.4688,0.4144,0.3209,0.2782,0.2082,0.1886,0.1886,0.2042,0.2196,0.2002,0.1963,0.1886,0.1769,0.1691,0.1612,0.173,0.173,0.1691,0.1651,0.1691,0.1611,0.1611,0.1492,0.1059,0.1139,0.0706,-0.0196,2.3027,2.2847,2.2997,2.2907,2.272,2.2445,2.2242,2.2006,2.1769,2.1643,2.1612,2.1506,2.1506,2.1612,2.1643,2.16,2.1612,2.1643,2.1273,2.0858,2.0526,1.9901,1.941,1.899,1.8408,1.8148,1.7852,1.7588,1.7573,1.7564,1.7588,1.7632,1.7588,1.7348,1.6594,1.607,1.5507,1.478,1.4006,1.3651,1.347,1.3258,1.2973,1.29,1.29,1.2936,1.29,1.29,1.2636,1.2342,1.2261,1.215,1.1768,1.1805,1.1279,1.0757,1.0501,1.0239,0.9566,0.9268,0.9268,0.9231,0.9382,0.9609,0.9685,0.9609,0.8818,0.8703,0.8102,0.7949,0.7949,0.7949,0.791,0.7868,0.7829,0.771,0.7633,0.7633,0.7557,0.7557,0.7476,0.7437,0.7365,0.7322,0.7049,0.7011,0.6472,0.597,0.5893,0.5657,0.4724,0.3986,0.3483,0.3095,0.321,0.3248,0.3248,0.2976,0.2705,0.2315,0.2159,0.1965,0.1887,0.2121,0.2161,0.1848,0.1887,0.2082,0.1926,0.1769,0.1808,0.1769,0.1887,0.1926,0.1139,2.3135,2.3386,2.3577,2.3471,2.3078,2.2939,2.2678,2.2309,2.2228,2.2166,2.2092,2.1862,2.1987,2.2092,2.2197,2.2197,2.2135,2.1999,2.1651,2.142,2.1262,2.0794,2.0139,1.9431,1.9,1.8533,1.8138,1.792,1.7779,1.7794,1.7852,1.7808,1.775,1.7691,1.7217,1.6828,1.6367,1.5604,1.4931,1.4545,1.4114,1.3579,1.3193,1.301,1.2973,1.2973,1.2973,1.2973,1.2973,1.2973,1.2936,1.2936,1.29,1.2856,1.2409,1.1922,1.17,1.136,1.087,1.0619,1.0775,1.0925,1.1117,1.1111,1.1074,1.0657,0.9868,0.942,0.8818,0.8551,0.8551,0.8513,0.8513,0.8212,0.8212,0.814,0.8102,0.8102,0.8063,0.8063,0.8063,0.8063,0.8063,0.8059,0.8063,0.8102,0.7949,0.7599,0.7249,0.6899,0.6314,0.5844,0.5458,0.5148,0.4644,0.445,0.4373,0.4215,0.3906,0.3171,0.2705,0.2979,0.3018,0.2707,0.263,0.2707,0.2472,0.255,0.2356,0.22,0.2082,0.2121,0.212,0.212,0.2043,2.458,2.4622,2.4321,2.4089,2.3914,2.3258,2.2848,2.2708,2.2371,2.2197,2.2247,2.2185,2.2166,2.2197,2.2197,2.2197,2.2216,2.2228,2.2197,2.1999,2.1925,2.1694,2.123,2.0409,2.0107,1.9486,1.8867,1.8687,1.8212,1.8134,1.8192,1.8158,1.8008,1.7906,1.7803,1.7407,1.6862,1.6202,1.5507,1.4939,1.4173,1.3746,1.3492,1.3382,1.339,1.3382,1.3382,1.3375,1.3382,1.3419,1.3492,1.3564,1.3601,1.3564,1.3156,1.2783,1.2592,1.2181,1.1731,1.1589,1.1663,1.1558,1.1595,1.1521,1.1477,1.144,1.0956,1.0956,1.0501,1.0314,1.0239,1.0083,0.997,0.915,0.8813,0.8518,0.8327,0.8217,0.8178,0.8178,0.8178,0.8178,0.8178,0.8178,0.8178,0.8178,0.8178,0.7906,0.7906,0.7829,0.7748,0.7476,0.7122,0.6461,0.5684,0.5571,0.5455,0.5375,0.5143,0.4567,0.4297,0.4494,0.4419,0.391,0.3951,0.4105,0.3832,0.3404,0.3132,0.3017,0.2588,0.2433,0.2431,0.2472,0.2589]},{"header":{"parameterUnit":"m.s-1","parameterCategory":1,"la1":31.0,"la2":29.5877,"lo1":-88.7671,"lo2":-86.6584,"dy":0.0162,"dx":0.0185,"nx":115,"ny":88,"refTime":"2023-08-19T12:00:00:Z","depth":0,"parameterNumber":3,"parameterNumberName":"V-component_of_WINDS"},"data":[0.0,0.0,0.0,0.0,0.0,0.0,0.0,0.0,0.0,0.0,0.0,0.0,0.0,0.0,0.0,0.0,0.0,0.0,0.0,0.0,0.0,0.0,0.0,0.0,0.0,0.0,0.0,0.0,0.0,0.0,0.0,0.0,0.0,0.0,0.0,0.0,0.0,0.0,0.0,0.0,0.0,0.0,0.0,0.0,0.0,0.0,0.0,0.0,0.0,0.0,0.0,0.0,0.0,0.0,0.0,0.0,0.0,0.0,0.0,0.0,0.0,0.0,0.0,0.0,0.0,0.0,0.0,0.0,0.0,0.0,0.0,0.0,0.0,0.0,0.0,0.0,0.0,0.0,0.0,0.0,0.0,0.0,0.0,0.0,0.0,0.0,0.0,0.0,0.0,0.0,0.0,0.0,0.0,0.0,0.0,0.0,0.0,0.0,0.0,0.0,0.0,0.0,0.0,0.0,0.0,0.0,0.0,0.0,0.0,0.0,0.0,0.0,0.0,0.0,0.0,0.0,0.0,0.0,0.0,0.0,0.0,0.0,0.0,0.0,0.0,0.0,0.0,0.0,0.0,0.0,0.0,0.0,0.0,0.0,0.0,0.0,0.0,0.0,0.0,0.0,0.0,0.0,0.0,0.0,0.0,0.0,0.0,0.0,0.0,0.0,0.0,0.0,0.0,0.0,0.0,0.0,0.0,0.0,0.0,0.0,0.0,0.0,0.0,0.0,0.0,0.0,0.0,0.0,0.0,0.0,0.0,0.0,0.0,0.0,0.0,0.0,0.0,0.0,0.0,0.0,0.0,0.0,0.0,0.0,0.0,0.0,0.0,0.0,0.0,0.0,0.0,0.0,0.0,0.0,0.0,0.0,0.0,0.0,0.0,0.0,0.0,0.0,0.0,0.0,0.0,0.0,0.0,0.0,0.0,0.0,0.0,0.0,0.0,0.0,0.0,0.0,0.0,0.0,0.0,0.0,0.0,0.0,0.0,0.0,0.0,0.0,0.0,0.0,0.0,0.0,0.0,0.0,0.0,0.0,0.0,0.0,0.0,0.0,0.0,0.0,0.0,0.0,0.0,0.0,0.0,0.0,0.0,0.0,0.0,0.0,0.0,0.0,0.0,0.0,0.0,0.0,0.0,0.0,0.0,0.0,0.0,0.0,0.0,0.0,0.0,0.0,0.0,0.0,0.0,0.0,0.0,0.0,0.0,0.0,0.0,0.0,0.0,0.0,0.0,0.0,0.0,0.0,0.0,0.0,0.0,0.0,0.0,0.0,0.0,0.0,0.0,0.0,0.0,0.0,0.0,0.0,0.0,0.0,0.0,0.0,0.0,0.0,0.0,0.0,0.0,0.0,0.0,0.0,0.0,0.0,0.0,0.0,0.0,0.0,0.0,0.0,0.0,0.0,0.0,0.0,0.0,0.0,0.0,0.0,0.0,0.0,0.0,0.0,0.0,0.0,0.0,0.0,0.0,0.0,0.0,0.0,0.0,0.0,0.0,0.0,0.0,0.0,0.0,0.0,0.0,0.0,0.0,0.0,0.0,0.0,0.0,0.0,0.0,0.0,0.0,0.0,0.0,0.0,0.0,0.0,0.0,0.0,0.0,0.0,0.0,0.0,0.0,0.0,0.0,0.0,0.0,0.0,0.0,0.0,0.0,0.0,0.0,0.0,0.0,0.0,0.0,0.0,0.0,0.0,0.0,0.0,0.0,0.0,0.0,0.0,0.0,0.0,0.0,0.0,0.0,0.0,0.0,0.0,0.0,0.0,0.0,0.0,0.0,0.0,0.0,0.0,0.0,0.0,0.0,0.0,0.0,0.0,0.0,0.0,0.0,0.0,0.0,0.0,0.0,0.0,0.0,0.0,0.0,0.0,0.0,0.0,0.0,0.0,0.0,0.0,0.0,0.0,0.0,0.0,0.0,0.0,0.0,0.0,0.0,0.0,0.0,0.0,0.0,0.0,0.0,0.0,0.0,0.0,0.0,0.0,0.0,0.0,0.0,0.0,0.0,0.0,0.0,0.0,0.0,0.0,0.0,0.0,0.0,0.0,0.0,0.0,0.0,0.0,0.0,0.0,0.0,0.0,0.0,0.0,0.0,0.0,0.0,0.0,0.0,0.0,0.0,0.0,0.0,0.0,0.0,0.0,0.0,0.0,0.0,0.0,0.0,0.0,0.0,0.0,0.0,0.0,0.0,0.0,0.0,0.0,0.0,0.0,0.0,0.0,0.0,0.0,0.0,0.0,0.0,0.0,0.0,0.0,0.0,0.0,0.0,0.0,0.0,0.0,0.0,0.0,0.0,0.0,0.0,0.0,0.0,0.0,0.0,0.0,0.0,0.0,0.0,0.0,0.0,0.0,0.0,0.0,0.0,0.0,0.0,0.0,0.0,0.0,0.0,0.0,0.0,0.0,0.0,0.0,0.0,0.0,0.0,0.0,0.0,0.0,0.0,0.0,0.0,0.0,0.0,0.0,0.0,0.0,0.0,0.0,0.0,0.0,0.0,0.0,0.0,0.0,0.0,0.0,0.0,0.0,0.0,0.0,0.0,0.0,0.0,0.0,0.0,0.0,0.0,0.0,0.0,0.0,0.0,0.0,0.0,0.0,0.0,0.0,0.0,0.0,0.0,0.0,0.0,0.0,0.0,0.0,0.0,0.0,0.0,0.0,0.0,0.0,0.0,0.0,0.0,0.0,0.0,0.0,0.0,0.0,0.0,0.0,0.0,0.0,0.0,0.0,0.0,0.0,0.0,0.0,0.0,0.0,0.0,0.0,0.0,0.0,0.0,0.0,0.0,0.0,0.0,0.0,0.0,0.0,0.0,0.0,0.0,0.0,0.0,0.0,0.0,0.0,0.0,0.0,0.0,0.0,0.0,0.0,0.0,0.0,0.0,0.0,0.0,0.0,0.0,0.0,0.0,0.0,0.0,0.0,0.0,0.0,0.0,0.0,0.0,0.0,0.0,0.0,0.0,0.0,0.0,0.0,0.0,0.0,0.0,0.0,0.0,0.0,0.0,0.0,0.0,0.0,0.0,0.0,0.0,0.0,0.0,0.0,0.0,0.0,0.0,0.0,0.0,0.0,0.0,0.0,0.0,0.0,0.0,0.0,0.0,0.0,0.0,0.0,0.0,0.0,0.0,0.0,0.0,0.0,0.0,0.0,0.0,0.0,0.0,0.0,0.0,0.0,0.0,0.0,0.0,0.0,0.0,0.0,0.0,0.0,0.0,0.0,0.0,0.0,0.0,0.0,0.0,0.0,0.0,0.0,0.0,0.0,0.0,0.0,0.0,0.0,0.0,0.0,0.0,0.0,0.0,0.0,0.0,0.0,0.0,0.0,0.0,0.0,0.0,0.0,0.0,0.0,0.0,0.0,0.0,0.0,0.0,0.0,0.0,0.0,0.0,0.0,0.0,0.0,0.0,0.0,0.0,0.0,0.0,0.0,0.0,0.0,0.0,0.0,0.0,0.0,0.0,0.0,0.0,0.0,0.0,0.0,0.0,0.0,0.0,0.0,0.0,0.0,0.0,0.0,0.0,0.0,0.0,0.0,0.0,0.0,0.0,0.0,0.0,0.0,0.0,0.0,0.0,0.0,0.0,0.0,0.0,0.0,0.0,0.0,0.0,0.0,0.0,0.0,0.0,0.0,0.0,0.0,0.0,0.0,0.0,0.0,0.0,0.0,0.0,0.0,0.0,0.0,0.0,0.0,0.0,0.0,0.0,0.0,0.0,0.0,0.0,0.0,0.0,0.0,0.0,0.0,0.0,0.0,0.0,0.0,0.0,0.0,0.0,0.0,0.0,0.0,0.0,0.0,0.0,0.0,0.0,0.0,0.0,0.0,0.0,0.0,0.0,0.0,0.0,0.0,0.0,0.0,0.0,0.0,0.0,0.0,0.0,0.0,0.0,0.0,0.0,0.0,0.0,0.0,0.0,0.0,0.0,0.0,0.0,0.0,0.0,0.0,0.0,0.0,0.0,0.0,0.0,0.0,0.0,0.0,0.0,0.0,0.0,0.0,0.0,0.0,0.0,0.0,0.0,0.0,0.0,0.0,0.0,0.0,0.0,0.0,0.0,0.0,0.0,0.0,0.0,0.0,0.0,0.0,0.0,0.0,0.0,0.0,0.0,0.0,0.0,0.0,0.0,0.0,0.0,0.0,0.0,0.0,0.0,0.0,0.0,0.0,0.0,0.0,0.0,0.0,0.0,0.0,0.0,0.0,0.0,0.0,0.0,0.0,0.0,0.0,0.0,0.0,0.0,0.0,5.6393,0.0,0.0,0.0,0.0,0.0,0.0,0.0,0.0,0.0,0.0,0.0,0.0,0.0,0.0,0.0,0.0,0.0,0.0,0.0,0.0,0.0,0.0,0.0,0.0,0.0,0.0,0.0,0.0,0.0,0.0,0.0,0.0,0.0,0.0,0.0,0.0,0.0,0.0,0.0,0.0,0.0,0.0,0.0,0.0,0.0,0.0,0.0,0.0,0.0,0.0,0.0,0.0,0.0,0.0,0.0,0.0,0.0,0.0,0.0,0.0,0.0,0.0,0.0,0.0,0.0,0.0,0.0,0.0,0.0,0.0,0.0,0.0,0.0,0.0,0.0,0.0,0.0,0.0,0.0,0.0,0.0,0.0,0.0,0.0,0.0,0.0,0.0,0.0,0.0,0.0,0.0,0.0,0.0,0.0,0.0,0.0,0.0,0.0,0.0,0.0,0.0,0.0,0.0,0.0,0.0,0.0,0.0,0.0,0.0,0.0,5.639,5.639,5.6402,5.639,5.639,0.0,0.0,0.0,0.0,0.0,0.0,0.0,0.0,0.0,0.0,0.0,0.0,0.0,0.0,0.0,0.0,0.0,0.0,0.0,0.0,0.0,0.0,0.0,0.0,0.0,0.0,0.0,0.0,0.0,0.0,0.0,0.0,0.0,0.0,0.0,0.0,0.0,0.0,0.0,0.0,0.0,0.0,0.0,0.0,0.0,0.0,0.0,0.0,0.0,0.0,0.0,0.0,0.0,0.0,0.0,0.0,0.0,0.0,0.0,0.0,0.0,0.0,0.0,0.0,0.0,0.0,0.0,0.0,0.0,0.0,0.0,0.0,0.0,0.0,0.0,0.0,0.0,0.0,0.0,0.0,0.0,0.0,0.0,0.0,0.0,0.0,0.0,0.0,0.0,0.0,0.0,0.0,0.0,0.0,0.0,0.0,0.0,0.0,0.0,0.0,0.0,0.0,0.0,0.0,0.0,0.0,0.0,0.0,0.0,0.0,0.0,0.0,5.5755,5.5862,5.6071,0.0,0.0,0.0,0.0,0.0,0.0,0.0,0.0,0.0,0.0,0.0,0.0,0.0,0.0,0.0,0.0,0.0,0.0,0.0,0.0,0.0,0.0,0.0,0.0,0.0,0.0,0.0,0.0,0.0,0.0,0.0,0.0,0.0,0.0,0.0,0.0,0.0,0.0,0.0,0.0,0.0,0.0,0.0,0.0,0.0,0.0,0.0,0.0,0.0,0.0,0.0,0.0,0.0,0.0,0.0,0.0,0.0,0.0,0.0,0.0,0.0,0.0,0.0,0.0,0.0,0.0,0.0,0.0,0.0,0.0,0.0,0.0,0.0,0.0,0.0,0.0,0.0,0.0,0.0,0.0,0.0,0.0,0.0,0.0,0.0,0.0,0.0,0.0,0.0,0.0,0.0,0.0,0.0,0.0,0.0,0.0,0.0,0.0,0.0,0.0,0.0,0.0,0.0,0.0,0.0,0.0,0.0,0.0,0.0,0.0,5.3922,5.3857,5.3876,0.0,5.5055,0.0,0.0,0.0,0.0,0.0,0.0,0.0,0.0,0.0,0.0,0.0,0.0,0.0,0.0,0.0,0.0,0.0,0.0,0.0,0.0,0.0,0.0,0.0,0.0,0.0,0.0,0.0,0.0,0.0,0.0,0.0,0.0,0.0,0.0,0.0,0.0,0.0,0.0,0.0,0.0,0.0,0.0,0.0,0.0,0.0,0.0,0.0,0.0,0.0,0.0,0.0,0.0,0.0,0.0,0.0,0.0,0.0,0.0,0.0,0.0,0.0,0.0,0.0,0.0,0.0,0.0,0.0,0.0,0.0,0.0,0.0,0.0,0.0,0.0,0.0,0.0,0.0,0.0,0.0,0.0,0.0,0.0,0.0,0.0,0.0,0.0,0.0,0.0,0.0,0.0,0.0,0.0,0.0,0.0,0.0,0.0,0.0,0.0,0.0,0.0,0.0,0.0,0.0,0.0,0.0,0.0,0.0,0.0,0.0,0.0,5.334,5.3185,5.3303,5.3619,0.0,0.0,0.0,0.0,0.0,0.0,0.0,0.0,0.0,0.0,0.0,0.0,0.0,0.0,0.0,0.0,0.0,0.0,0.0,0.0,0.0,0.0,0.0,0.0,0.0,0.0,0.0,0.0,0.0,0.0,0.0,0.0,0.0,0.0,0.0,0.0,0.0,0.0,0.0,0.0,0.0,0.0,0.0,0.0,0.0,0.0,0.0,0.0,0.0,0.0,0.0,0.0,0.0,0.0,0.0,0.0,0.0,0.0,0.0,0.0,0.0,0.0,0.0,0.0,0.0,0.0,0.0,0.0,0.0,0.0,0.0,0.0,0.0,0.0,0.0,0.0,0.0,0.0,0.0,0.0,0.0,0.0,0.0,0.0,0.0,0.0,0.0,0.0,0.0,0.0,0.0,0.0,0.0,0.0,0.0,0.0,0.0,0.0,0.0,0.0,0.0,0.0,0.0,0.0,0.0,0.0,0.0,0.0,0.0,0.0,5.2328,5.2239,5.2096,5.2227,5.2521,5.2992,0.0,0.0,0.0,0.0,0.0,0.0,0.0,0.0,0.0,0.0,0.0,0.0,0.0,0.0,0.0,0.0,0.0,0.0,0.0,0.0,0.0,0.0,0.0,0.0,0.0,0.0,0.0,0.0,0.0,0.0,0.0,0.0,0.0,0.0,0.0,0.0,0.0,0.0,0.0,0.0,0.0,0.0,0.0,0.0,0.0,0.0,0.0,0.0,0.0,0.0,0.0,0.0,0.0,0.0,0.0,0.0,0.0,0.0,0.0,0.0,0.0,0.0,0.0,0.0,0.0,0.0,0.0,0.0,0.0,0.0,0.0,0.0,0.0,0.0,0.0,0.0,0.0,0.0,0.0,0.0,0.0,0.0,0.0,0.0,0.0,0.0,0.0,0.0,0.0,0.0,0.0,0.0,0.0,0.0,0.0,0.0,0.0,0.0,0.0,0.0,0.0,0.0,0.0,0.0,0.0,0.0,0.0,0.0,5.0473,5.0329,5.0178,5.0095,5.0031,5.0505,0.0,0.0,0.0,0.0,0.0,0.0,0.0,0.0,0.0,0.0,0.0,0.0,0.0,0.0,0.0,0.0,0.0,0.0,0.0,0.0,0.0,0.0,0.0,0.0,0.0,0.0,0.0,0.0,0.0,0.0,0.0,0.0,0.0,0.0,0.0,0.0,0.0,0.0,0.0,0.0,0.0,0.0,0.0,0.0,0.0,0.0,0.0,0.0,0.0,0.0,0.0,0.0,0.0,0.0,0.0,0.0,0.0,0.0,0.0,0.0,0.0,0.0,0.0,0.0,0.0,0.0,0.0,0.0,0.0,0.0,0.0,0.0,0.0,0.0,0.0,0.0,0.0,0.0,0.0,0.0,0.0,0.0,0.0,0.0,0.0,0.0,0.0,0.0,0.0,0.0,0.0,0.0,0.0,0.0,0.0,0.0,0.0,0.0,0.0,0.0,0.0,0.0,0.0,0.0,0.0,0.0,0.0,0.0,0.0,4.9817,4.9603,4.9589,4.9697,4.9711,4.9933,0.0,0.0,0.0,0.0,0.0,0.0,0.0,0.0,0.0,0.0,0.0,0.0,0.0,0.0,0.0,0.0,0.0,0.0,0.0,0.0,0.0,0.0,0.0,0.0,0.0,0.0,0.0,0.0,0.0,0.0,0.0,0.0,0.0,0.0,0.0,0.0,0.0,0.0,0.0,0.0,0.0,0.0,0.0,0.0,0.0,0.0,0.0,0.0,0.0,0.0,0.0,0.0,0.0,0.0,0.0,0.0,0.0,0.0,0.0,0.0,0.0,0.0,0.0,0.0,0.0,0.0,0.0,0.0,0.0,0.0,0.0,0.0,0.0,0.0,0.0,0.0,0.0,0.0,0.0,0.0,0.0,0.0,0.0,0.0,0.0,0.0,0.0,0.0,0.0,0.0,0.0,0.0,0.0,0.0,0.0,0.0,0.0,0.0,0.0,0.0,0.0,0.0,0.0,0.0,0.0,0.0,0.0,0.0,0.0,4.9166,0.0,4.8799,4.8947,4.9099,4.9252,0.0,0.0,0.0,0.0,0.0,0.0,0.0,0.0,0.0,0.0,0.0,0.0,0.0,0.0,0.0,0.0,0.0,0.0,0.0,0.0,0.0,0.0,0.0,0.0,0.0,0.0,0.0,0.0,0.0,0.0,0.0,0.0,0.0,0.0,0.0,0.0,0.0,0.0,0.0,0.0,0.0,0.0,0.0,0.0,0.0,0.0,0.0,0.0,0.0,0.0,0.0,0.0,0.0,0.0,0.0,0.0,0.0,0.0,0.0,0.0,0.0,0.0,0.0,0.0,0.0,0.0,0.0,0.0,0.0,0.0,0.0,0.0,0.0,0.0,0.0,0.0,0.0,0.0,0.0,0.0,0.0,0.0,0.0,0.0,0.0,0.0,0.0,0.0,0.0,0.0,0.0,0.0,0.0,0.0,0.0,0.0,0.0,0.0,0.0,0.0,0.0,0.0,0.0,0.0,0.0,0.0,0.0,0.0,4.924,4.844,4.7962,4.7741,4.7632,4.8076,4.8326,0.0,0.0,0.0,0.0,0.0,0.0,0.0,0.0,0.0,0.0,0.0,0.0,0.0,0.0,0.0,0.0,0.0,0.0,0.0,0.0,0.0,0.0,0.0,0.0,0.0,0.0,0.0,0.0,0.0,0.0,0.0,0.0,0.0,0.0,0.0,0.0,0.0,0.0,0.0,0.0,0.0,0.0,0.0,0.0,0.0,0.0,0.0,0.0,0.0,0.0,0.0,0.0,0.0,0.0,0.0,0.0,0.0,0.0,0.0,0.0,0.0,0.0,0.0,0.0,0.0,0.0,0.0,0.0,0.0,0.0,0.0,0.0,0.0,0.0,0.0,0.0,0.0,0.0,0.0,0.0,0.0,0.0,0.0,0.0,0.0,0.0,0.0,0.0,0.0,0.0,0.0,0.0,0.0,0.0,0.0,0.0,0.0,0.0,0.0,0.0,0.0,0.0,0.0,0.0,0.0,0.0,0.0,0.0,0.0,4.7904,4.7638,4.747,4.7467,4.7593,4.7838,0.0,0.0,0.0,0.0,0.0,0.0,0.0,0.0,0.0,0.0,0.0,0.0,0.0,0.0,0.0,0.0,0.0,0.0,0.0,0.0,0.0,0.0,0.0,0.0,0.0,0.0,0.0,0.0,0.0,0.0,0.0,0.0,0.0,0.0,0.0,0.0,0.0,0.0,0.0,0.0,0.0,0.0,0.0,0.0,0.0,0.0,0.0,0.0,0.0,0.0,0.0,0.0,0.0,0.0,0.0,0.0,0.0,0.0,0.0,0.0,0.0,0.0,0.0,0.0,0.0,0.0,0.0,0.0,0.0,0.0,0.0,0.0,0.0,0.0,0.0,0.0,0.0,0.0,0.0,0.0,0.0,0.0,0.0,0.0,0.0,0.0,0.0,0.0,0.0,0.0,0.0,0.0,0.0,0.0,0.0,0.0,0.0,0.0,0.0,0.0,0.0,0.0,0.0,0.0,0.0,0.0,0.0,0.0,0.0,4.6495,4.6728,4.674,4.646,4.686,4.7212,4.7491,0.0,0.0,0.0,0.0,0.0,0.0,0.0,0.0,0.0,0.0,0.0,0.0,0.0,0.0,0.0,0.0,0.0,0.0,0.0,0.0,0.0,0.0,0.0,0.0,0.0,0.0,0.0,0.0,0.0,0.0,0.0,0.0,0.0,0.0,0.0,0.0,0.0,0.0,0.0,0.0,0.0,0.0,0.0,0.0,0.0,0.0,0.0,0.0,0.0,0.0,0.0,0.0,0.0,0.0,0.0,0.0,0.0,0.0,0.0,0.0,0.0,0.0,0.0,0.0,0.0,0.0,0.0,0.0,0.0,0.0,0.0,0.0,0.0,0.0,0.0,0.0,0.0,0.0,0.0,0.0,0.0,0.0,0.0,0.0,0.0,0.0,0.0,0.0,0.0,0.0,0.0,0.0,0.0,0.0,0.0,0.0,0.0,0.0,0.0,0.0,0.0,0.0,0.0,0.0,0.0,0.0,0.0,0.0,4.4277,4.5267,4.5485,4.491,4.585,4.6406,0.0,0.0,0.0,0.0,0.0,0.0,0.0,0.0,0.0,0.0,0.0,0.0,0.0,0.0,0.0,0.0,0.0,0.0,0.0,0.0,0.0,0.0,0.0,0.0,0.0,0.0,0.0,0.0,0.0,0.0,0.0,0.0,0.0,0.0,0.0,0.0,0.0,0.0,0.0,0.0,0.0,0.0,0.0,0.0,0.0,0.0,0.0,0.0,0.0,0.0,0.0,0.0,0.0,0.0,0.0,0.0,0.0,0.0,0.0,0.0,0.0,0.0,0.0,0.0,0.0,0.0,0.0,0.0,0.0,0.0,0.0,0.0,0.0,0.0,0.0,0.0,0.0,0.0,0.0,0.0,0.0,0.0,0.0,0.0,0.0,0.0,0.0,0.0,0.0,0.0,0.0,0.0,0.0,0.0,0.0,0.0,0.0,0.0,0.0,0.0,0.0,0.0,0.0,0.0,0.0,0.0,0.0,0.0,0.0,4.261,4.2879,4.3359,4.4004,4.4777,4.5303,0.0,0.0,0.0,0.0,0.0,0.0,0.0,0.0,0.0,0.0,0.0,0.0,0.0,0.0,0.0,0.0,0.0,0.0,0.0,0.0,0.0,0.0,0.0,0.0,0.0,0.0,0.0,0.0,0.0,0.0,0.0,0.0,0.0,0.0,0.0,0.0,0.0,0.0,0.0,0.0,0.0,0.0,0.0,0.0,0.0,0.0,0.0,0.0,0.0,0.0,0.0,0.0,0.0,0.0,0.0,0.0,0.0,0.0,0.0,0.0,0.0,0.0,0.0,0.0,0.0,0.0,0.0,0.0,0.0,0.0,0.0,0.0,0.0,0.0,0.0,0.0,0.0,0.0,0.0,0.0,0.0,0.0,0.0,0.0,0.0,0.0,0.0,0.0,0.0,0.0,0.0,0.0,0.0,0.0,0.0,0.0,0.0,0.0,0.0,0.0,0.0,0.0,0.0,0.0,0.0,0.0,0.0,0.0,4.1839,4.0513,4.0385,4.0626,4.1303,4.2967,4.4181,0.0,0.0,0.0,0.0,0.0,0.0,0.0,0.0,0.0,0.0,0.0,0.0,0.0,0.0,0.0,0.0,0.0,0.0,0.0,0.0,0.0,0.0,0.0,0.0,0.0,0.0,0.0,0.0,0.0,0.0,0.0,0.0,0.0,0.0,0.0,0.0,0.0,0.0,0.0,0.0,0.0,0.0,0.0,0.0,0.0,0.0,0.0,0.0,0.0,0.0,0.0,0.0,0.0,0.0,0.0,0.0,0.0,0.0,0.0,0.0,0.0,0.0,0.0,0.0,0.0,0.0,0.0,0.0,0.0,0.0,0.0,0.0,0.0,0.0,0.0,0.0,0.0,0.0,0.0,0.0,0.0,0.0,0.0,0.0,0.0,0.0,0.0,0.0,0.0,0.0,0.0,0.0,0.0,0.0,0.0,0.0,0.0,0.0,0.0,0.0,0.0,0.0,0.0,0.0,0.0,0.0,0.0,0.0,3.9865,3.8269,3.7968,3.7815,3.7864,4.0753,4.295,0.0,0.0,0.0,0.0,0.0,0.0,0.0,0.0,0.0,0.0,0.0,0.0,0.0,0.0,0.0,0.0,0.0,0.0,0.0,0.0,0.0,0.0,0.0,0.0,0.0,0.0,0.0,0.0,0.0,0.0,0.0,0.0,0.0,0.0,0.0,0.0,0.0,0.0,0.0,0.0,0.0,0.0,0.0,0.0,0.0,0.0,0.0,0.0,0.0,0.0,0.0,0.0,0.0,0.0,0.0,0.0,0.0,0.0,0.0,0.0,0.0,0.0,0.0,0.0,0.0,0.0,0.0,0.0,0.0,0.0,0.0,0.0,0.0,0.0,0.0,0.0,0.0,0.0,0.0,0.0,0.0,0.0,0.0,0.0,0.0,0.0,0.0,0.0,0.0,0.0,0.0,0.0,0.0,0.0,0.0,0.0,0.0,0.0,0.0,0.0,0.0,0.0,0.0,0.0,0.0,0.0,0.0,0.0,3.7809,3.6573,3.6597,3.6576,3.6447,3.8977,4.0712,0.0,0.0,0.0,0.0,0.0,0.0,0.0,0.0,0.0,0.0,0.0,0.0,0.0,0.0,0.0,0.0,0.0,0.0,0.0,0.0,0.0,0.0,0.0,0.0,0.0,0.0,0.0,0.0,0.0,0.0,0.0,0.0,0.0,0.0,0.0,0.0,0.0,0.0,0.0,0.0,0.0,0.0,0.0,0.0,0.0,0.0,0.0,0.0,4.406,0.0,0.0,0.0,0.0,0.0,0.0,0.0,0.0,0.0,0.0,0.0,0.0,0.0,0.0,0.0,0.0,0.0,0.0,0.0,0.0,0.0,0.0,0.0,0.0,0.0,0.0,0.0,0.0,0.0,0.0,0.0,0.0,0.0,0.0,0.0,0.0,0.0,0.0,0.0,0.0,0.0,0.0,0.0,0.0,0.0,0.0,0.0,0.0,0.0,0.0,0.0,0.0,0.0,0.0,0.0,0.0,0.0,0.0,0.0,3.57,3.4255,3.4269,3.4269,3.4226,3.603,3.8072,0.0,0.0,0.0,0.0,0.0,0.0,0.0,0.0,0.0,0.0,0.0,0.0,0.0,0.0,0.0,0.0,0.0,0.0,0.0,0.0,0.0,0.0,0.0,0.0,0.0,0.0,0.0,0.0,0.0,0.0,0.0,0.0,0.0,0.0,0.0,0.0,0.0,0.0,0.0,0.0,0.0,0.0,0.0,0.0,0.0,0.0,0.0,0.0,0.0,0.0,0.0,0.0,0.0,0.0,0.0,0.0,0.0,0.0,0.0,0.0,0.0,0.0,0.0,0.0,0.0,0.0,0.0,0.0,0.0,0.0,0.0,0.0,0.0,0.0,0.0,0.0,0.0,0.0,0.0,0.0,0.0,0.0,0.0,0.0,0.0,0.0,0.0,0.0,0.0,0.0,0.0,0.0,0.0,0.0,0.0,0.0,0.0,0.0,0.0,0.0,0.0,0.0,0.0,0.0,0.0,0.0,0.0,3.4677,3.3521,3.1783,3.1842,3.1842,3.1733,3.301,3.5341,3.867,0.0,0.0,0.0,0.0,0.0,0.0,0.0,0.0,0.0,0.0,0.0,0.0,0.0,0.0,0.0,0.0,0.0,0.0,0.0,0.0,0.0,0.0,0.0,0.0,0.0,0.0,0.0,0.0,0.0,0.0,0.0,0.0,0.0,0.0,0.0,0.0,0.0,0.0,4.4373,4.318,0.0,0.0,0.0,0.0,0.0,0.0,0.0,0.0,3.9864,0.0,0.0,0.0,0.0,0.0,0.0,0.0,0.0,0.0,0.0,0.0,0.0,0.0,0.0,0.0,0.0,0.0,0.0,0.0,0.0,0.0,0.0,0.0,0.0,0.0,0.0,0.0,0.0,0.0,0.0,0.0,0.0,0.0,0.0,0.0,0.0,0.0,0.0,0.0,0.0,0.0,0.0,0.0,0.0,0.0,0.0,0.0,0.0,0.0,0.0,0.0,0.0,0.0,0.0,0.0,0.0,3.4273,3.2426,3.0994,3.0037,3.0667,3.0704,3.0075,3.1559,3.3199,3.493,0.0,0.0,0.0,0.0,0.0,0.0,0.0,0.0,0.0,0.0,0.0,0.0,0.0,0.0,0.0,0.0,0.0,0.0,0.0,0.0,0.0,0.0,0.0,0.0,0.0,0.0,0.0,0.0,0.0,0.0,0.0,0.0,0.0,0.0,0.0,0.0,0.0,0.0,0.0,4.2062,4.1445,0.0,0.0,0.0,0.0,0.0,0.0,0.0,0.0,3.7782,0.0,0.0,0.0,0.0,0.0,0.0,0.0,0.0,0.0,0.0,0.0,0.0,0.0,0.0,0.0,0.0,0.0,0.0,0.0,0.0,0.0,0.0,0.0,0.0,0.0,0.0,0.0,0.0,0.0,0.0,0.0,0.0,0.0,0.0,0.0,0.0,0.0,0.0,0.0,0.0,0.0,0.0,0.0,0.0,0.0,0.0,0.0,0.0,0.0,0.0,0.0,0.0,0.0,0.0,0.0,3.3024,3.1138,2.9808,2.9032,2.8917,2.8917,2.9032,3.0164,3.1288,0.0,0.0,0.0,0.0,0.0,0.0,0.0,0.0,0.0,0.0,0.0,0.0,0.0,0.0,0.0,0.0,0.0,0.0,0.0,0.0,0.0,0.0,0.0,0.0,0.0,0.0,0.0,0.0,0.0,0.0,0.0,0.0,0.0,0.0,0.0,0.0,0.0,0.0,0.0,0.0,4.1245,4.0672,4.0687,0.0,0.0,0.0,0.0,0.0,0.0,3.6306,3.6306,0.0,0.0,0.0,0.0,0.0,0.0,0.0,0.0,0.0,0.0,0.0,0.0,0.0,0.0,0.0,0.0,0.0,0.0,0.0,0.0,0.0,0.0,0.0,0.0,0.0,0.0,0.0,0.0,0.0,0.0,0.0,0.0,0.0,0.0,0.0,0.0,0.0,0.0,0.0,0.0,0.0,0.0,0.0,0.0,0.0,0.0,0.0,0.0,0.0,0.0,0.0,0.0,0.0,0.0,0.0,3.1609,2.9961,2.8745,2.7959,2.7232,2.7191,2.7919,2.8863,2.9795,0.0,0.0,0.0,0.0,0.0,0.0,0.0,0.0,0.0,0.0,0.0,0.0,0.0,0.0,0.0,0.0,0.0,0.0,0.0,0.0,0.0,0.0,0.0,0.0,0.0,0.0,0.0,0.0,0.0,0.0,0.0,0.0,0.0,0.0,0.0,0.0,0.0,0.0,0.0,0.0,0.0,3.9642,3.957,3.8175,0.0,0.0,0.0,0.0,3.5427,3.5346,0.0,0.0,0.0,0.0,0.0,0.0,0.0,0.0,0.0,0.0,0.0,0.0,0.0,0.0,0.0,0.0,0.0,0.0,0.0,0.0,0.0,0.0,0.0,0.0,0.0,0.0,0.0,0.0,0.0,0.0,0.0,0.0,0.0,0.0,0.0,0.0,0.0,0.0,0.0,0.0,0.0,0.0,0.0,0.0,0.0,0.0,0.0,0.0,0.0,0.0,0.0,0.0,0.0,0.0,0.0,0.0,2.991,2.8231,2.6964,2.6152,2.6027,2.5975,2.611,2.7747,2.8978,0.0,0.0,0.0,0.0,0.0,0.0,0.0,0.0,0.0,0.0,0.0,0.0,0.0,0.0,0.0,0.0,0.0,0.0,0.0,0.0,0.0,0.0,0.0,0.0,0.0,0.0,0.0,0.0,0.0,0.0,0.0,0.0,0.0,0.0,0.0,0.0,0.0,0.0,0.0,0.0,0.0,3.7724,3.7572,3.6554,3.5815,0.0,0.0,3.5386,3.4662,3.4551,0.0,0.0,0.0,0.0,0.0,0.0,0.0,0.0,0.0,0.0,0.0,0.0,0.0,0.0,0.0,0.0,0.0,0.0,0.0,0.0,0.0,0.0,0.0,0.0,0.0,0.0,0.0,0.0,0.0,0.0,0.0,0.0,0.0,0.0,0.0,0.0,0.0,0.0,0.0,0.0,0.0,0.0,0.0,0.0,0.0,0.0,0.0,0.0,0.0,0.0,0.0,0.0,0.0,0.0,0.0,3.1496,2.9603,2.7719,2.6323,2.5456,2.4736,2.4555,2.5051,2.5853,2.6956,0.0,0.0,0.0,0.0,0.0,0.0,0.0,0.0,0.0,0.0,0.0,0.0,0.0,0.0,0.0,0.0,0.0,0.0,0.0,0.0,0.0,0.0,0.0,0.0,0.0,0.0,0.0,0.0,0.0,0.0,0.0,0.0,0.0,0.0,0.0,0.0,0.0,0.0,0.0,0.0,0.0,0.0,3.6091,3.466,0.0,0.0,0.0,3.2029,3.1681,0.0,0.0,0.0,0.0,0.0,0.0,0.0,0.0,0.0,0.0,0.0,0.0,0.0,0.0,0.0,0.0,0.0,0.0,0.0,0.0,0.0,0.0,0.0,0.0,0.0,0.0,0.0,0.0,0.0,0.0,0.0,0.0,0.0,0.0,0.0,0.0,0.0,0.0,0.0,0.0,0.0,0.0,0.0,0.0,0.0,0.0,0.0,0.0,0.0,0.0,0.0,0.0,0.0,0.0,0.0,0.0,0.0,2.8616,2.6882,2.5587,2.4713,2.3705,2.3486,2.4133,2.4399,0.0,0.0,0.0,0.0,0.0,0.0,0.0,0.0,0.0,0.0,0.0,0.0,0.0,0.0,0.0,0.0,0.0,0.0,0.0,0.0,0.0,0.0,0.0,0.0,0.0,0.0,0.0,4.469,0.0,0.0,0.0,0.0,0.0,0.0,0.0,0.0,0.0,0.0,0.0,0.0,0.0,0.0,3.5239,3.4594,3.2859,3.168,0.0,0.0,2.9305,2.9348,2.9627,2.9742,0.0,0.0,0.0,0.0,0.0,0.0,0.0,0.0,0.0,0.0,0.0,0.0,0.0,0.0,0.0,0.0,0.0,0.0,0.0,0.0,0.0,0.0,0.0,0.0,0.0,0.0,0.0,0.0,0.0,0.0,0.0,0.0,0.0,0.0,0.0,0.0,0.0,0.0,0.0,0.0,0.0,0.0,0.0,0.0,0.0,0.0,0.0,0.0,0.0,0.0,0.0,0.0,0.0,0.0,0.0,2.5908,2.5032,2.4227,2.3387,2.3245,2.3224,2.3305,2.4104,2.4557,0.0,0.0,0.0,0.0,0.0,0.0,0.0,0.0,0.0,0.0,0.0,0.0,0.0,0.0,0.0,0.0,0.0,0.0,0.0,0.0,0.0,0.0,0.0,0.0,0.0,0.0,0.0,0.0,0.0,0.0,0.0,0.0,0.0,0.0,0.0,0.0,0.0,0.0,0.0,0.0,0.0,3.3144,3.2883,3.1358,3.0253,0.0,0.0,2.8861,2.8818,2.8853,2.8864,2.8818,0.0,0.0,0.0,0.0,0.0,0.0,0.0,0.0,0.0,0.0,0.0,0.0,0.0,0.0,0.0,0.0,0.0,0.0,0.0,0.0,0.0,0.0,0.0,0.0,0.0,0.0,0.0,0.0,0.0,0.0,0.0,0.0,0.0,0.0,0.0,0.0,0.0,0.0,0.0,0.0,0.0,0.0,0.0,0.0,0.0,0.0,0.0,0.0,0.0,0.0,0.0,0.0,0.0,2.7262,2.5624,2.4597,2.3651,2.2789,2.1958,2.1806,2.2335,2.2148,2.267,0.0,0.0,0.0,0.0,0.0,0.0,0.0,0.0,0.0,0.0,0.0,0.0,0.0,0.0,0.0,0.0,0.0,0.0,0.0,0.0,0.0,0.0,0.0,0.0,0.0,0.0,0.0,0.0,4.0096,3.9848,3.8779,0.0,0.0,0.0,0.0,0.0,0.0,0.0,0.0,0.0,0.0,3.1798,3.0753,2.9586,0.0,0.0,2.7181,2.6585,2.6585,2.6701,2.6798,2.6595,2.691,0.0,0.0,0.0,0.0,0.0,0.0,0.0,0.0,0.0,0.0,0.0,0.0,0.0,0.0,0.0,0.0,0.0,0.0,0.0,0.0,0.0,0.0,0.0,0.0,0.0,0.0,0.0,0.0,0.0,0.0,0.0,0.0,0.0,0.0,0.0,0.0,0.0,0.0,0.0,0.0,0.0,0.0,0.0,0.0,0.0,0.0,0.0,0.0,0.0,0.0,0.0,0.0,2.6223,2.4846,2.3749,2.2794,2.1922,2.0976,2.0702,2.1001,2.0702,2.1208,0.0,0.0,0.0,0.0,0.0,0.0,0.0,0.0,0.0,0.0,0.0,0.0,0.0,0.0,0.0,0.0,0.0,0.0,0.0,0.0,0.0,0.0,0.0,0.0,0.0,0.0,0.0,0.0,3.8591,3.8212,3.7204,0.0,0.0,0.0,0.0,0.0,0.0,0.0,0.0,0.0,0.0,3.0725,2.9604,2.8486,2.7493,2.6894,2.5733,2.4895,2.4895,2.504,2.5088,2.4946,0.0,0.0,0.0,0.0,0.0,0.0,0.0,0.0,0.0,0.0,0.0,0.0,0.0,0.0,0.0,0.0,0.0,0.0,0.0,0.0,0.0,0.0,0.0,0.0,0.0,0.0,0.0,0.0,0.0,0.0,0.0,0.0,0.0,0.0,0.0,0.0,0.0,0.0,0.0,0.0,0.0,0.0,0.0,0.0,0.0,0.0,0.0,0.0,0.0,0.0,0.0,0.0,0.0,2.3849,2.3071,2.2294,2.1425,2.0605,2.0508,2.0099,1.9423,2.0099,2.0508,2.0605,0.0,0.0,0.0,0.0,0.0,0.0,0.0,0.0,0.0,0.0,0.0,0.0,0.0,0.0,0.0,0.0,0.0,0.0,0.0,0.0,0.0,0.0,0.0,0.0,0.0,0.0,3.6507,3.6531,3.6477,0.0,0.0,0.0,0.0,0.0,0.0,0.0,0.0,0.0,0.0,3.0279,2.9843,2.9739,2.8235,2.7103,2.7021,2.5464,2.4227,2.4237,2.4237,2.4227,0.0,0.0,0.0,0.0,0.0,0.0,0.0,0.0,0.0,0.0,0.0,0.0,0.0,0.0,0.0,0.0,0.0,0.0,0.0,0.0,0.0,0.0,0.0,0.0,0.0,0.0,0.0,3.6201,3.6209,0.0,0.0,0.0,0.0,0.0,0.0,0.0,0.0,0.0,0.0,0.0,3.4589,3.424,0.0,0.0,0.0,0.0,0.0,0.0,0.0,0.0,0.0,0.0,0.0,0.0,2.3731,2.299,2.1634,2.0779,2.0498,1.9423,1.8988,1.9295,1.8988,1.9107,1.9698,0.0,0.0,0.0,0.0,0.0,0.0,0.0,0.0,0.0,0.0,0.0,0.0,0.0,0.0,0.0,0.0,0.0,0.0,0.0,0.0,0.0,0.0,0.0,0.0,0.0,3.5825,0.0,0.0,0.0,0.0,0.0,0.0,0.0,0.0,0.0,0.0,0.0,3.0249,2.9654,2.9681,2.9378,2.8171,2.7476,2.67,0.0,0.0,0.0,0.0,0.0,0.0,0.0,0.0,0.0,0.0,0.0,0.0,0.0,0.0,2.7413,2.8566,2.839,2.7968,2.7848,0.0,0.0,0.0,0.0,0.0,0.0,0.0,0.0,0.0,0.0,0.0,0.0,0.0,0.0,0.0,0.0,3.3938,0.0,0.0,0.0,0.0,0.0,0.0,0.0,0.0,3.2988,3.289,3.2807,3.2479,3.1943,0.0,3.102,3.0636,0.0,0.0,0.0,0.0,0.0,0.0,0.0,0.0,2.335,2.2553,2.1203,2.0382,2.0051,1.8718,1.8118,1.8399,1.8158,1.839,1.9265,2.0372,2.0818,0.0,0.0,0.0,0.0,0.0,0.0,0.0,0.0,0.0,0.0,0.0,0.0,0.0,0.0,0.0,0.0,0.0,0.0,0.0,0.0,0.0,0.0,0.0,3.4978,0.0,0.0,0.0,0.0,0.0,0.0,0.0,0.0,0.0,3.0383,2.9969,2.9537,2.9252,2.9566,2.926,2.7799,0.0,0.0,0.0,0.0,0.0,0.0,0.0,2.3841,2.4024,2.3644,2.3229,2.2993,2.3438,2.4065,2.4681,0.0,0.0,2.6442,2.6244,2.5857,2.5736,2.5409,2.4962,2.4376,2.3574,2.2899,0.0,0.0,0.0,0.0,0.0,0.0,0.0,0.0,3.0301,3.0409,0.0,3.1463,0.0,0.0,0.0,0.0,0.0,0.0,0.0,0.0,3.2367,3.2101,3.184,3.1271,3.0513,2.9599,2.9487,2.8772,2.7469,2.7965,0.0,0.0,0.0,0.0,0.0,0.0,2.259,2.1797,2.0934,2.006,1.9335,1.843,1.7561,1.6771,1.7561,1.835,1.9137,1.9304,1.9698,2.0421,2.0498,0.0,0.0,0.0,0.0,0.0,0.0,0.0,0.0,0.0,0.0,0.0,0.0,0.0,0.0,0.0,0.0,0.0,0.0,0.0,0.0,3.425,0.0,0.0,0.0,0.0,0.0,0.0,0.0,0.0,0.0,0.0,3.0742,2.9718,2.9088,2.9679,0.0,0.0,0.0,0.0,2.6771,2.5872,2.4893,2.4206,2.4206,2.398,2.3797,2.3797,0.0,0.0,2.2582,2.3596,2.4195,2.3606,2.3541,2.4102,2.5961,2.6,2.5876,2.5845,2.503,2.4271,2.3784,2.2945,2.2291,2.6627,0.0,0.0,0.0,0.0,2.8174,2.842,2.8911,2.893,2.8977,2.8992,2.9303,0.0,0.0,0.0,0.0,0.0,0.0,2.9214,2.9013,2.8572,2.821,2.8014,2.7692,2.7187,2.6574,2.6407,2.5924,2.511,2.5242,2.5431,2.5557,0.0,0.0,0.0,0.0,2.259,2.1759,2.0372,1.9532,1.9295,1.7836,1.6976,1.6689,1.7561,1.7836,1.748,1.863,1.9413,1.962,2.0187,0.0,0.0,0.0,0.0,0.0,0.0,0.0,0.0,0.0,0.0,0.0,0.0,0.0,0.0,0.0,0.0,0.0,0.0,0.0,3.3526,3.3095,3.2905,0.0,0.0,0.0,0.0,0.0,0.0,0.0,0.0,0.0,2.9961,2.9378,2.895,0.0,0.0,2.926,2.773,2.7273,2.6577,2.5105,0.0,0.0,0.0,2.398,2.3754,2.3624,2.3061,2.2735,2.3136,2.3318,2.3325,2.311,2.3047,2.3108,2.3174,2.3378,2.3539,2.3487,2.3064,2.2516,2.2047,2.1509,2.1103,2.4154,2.5487,2.5819,2.6225,2.6701,2.6704,2.6981,2.7406,2.7395,2.7406,2.7424,2.7524,2.76,2.7656,2.8275,0.0,0.0,0.0,2.7205,2.6978,2.6467,2.6154,2.5955,2.5569,2.5238,2.4837,2.469,2.4466,2.412,2.412,2.4204,2.4383,0.0,0.0,2.2553,2.2515,2.2128,2.129,1.9972,1.9137,1.8789,1.7408,1.6689,1.6689,1.7204,1.7212,1.673,1.7683,1.843,1.8749,1.9265,2.0285,0.0,0.0,0.0,0.0,0.0,0.0,0.0,0.0,0.0,0.0,0.0,3.1923,3.1909,0.0,0.0,0.0,3.2755,3.2861,3.3178,3.2563,0.0,0.0,0.0,0.0,0.0,0.0,0.0,2.9831,2.9189,2.9026,2.9691,2.949,2.9277,2.9277,2.9578,2.9131,2.7354,0.0,2.6494,2.4743,2.4421,2.4335,2.4206,2.3894,2.358,2.3373,2.3026,2.2816,2.3024,2.3028,2.287,2.2594,2.2614,2.2552,2.2004,2.21,2.2266,2.2266,2.206,2.1748,2.1278,2.1016,2.0781,2.2431,2.2563,2.4022,2.4703,2.484,2.5535,2.5786,2.5786,2.5786,2.5786,2.5784,2.6113,2.6245,2.6262,2.6623,0.0,2.6474,2.6427,2.6302,2.6077,2.5513,2.5156,2.4997,2.4447,2.4084,2.3902,2.3902,2.3902,2.3902,2.3902,2.3573,2.2861,2.2872,2.2472,2.1835,2.1766,2.1336,2.0498,1.9661,1.8802,1.7917,1.7131,1.6689,1.6689,1.6689,1.6697,1.6689,1.6689,1.709,1.7917,1.8078,1.8829,2.0372,0.0,0.0,0.0,0.0,0.0,0.0,0.0,0.0,0.0,0.0,0.0,0.0,0.0,0.0,0.0,3.1906,0.0,3.2932,3.2376,0.0,0.0,0.0,3.0305,3.0113,2.9896,2.9741,2.9779,0.0,0.0,2.9779,0.0,2.9729,2.9729,2.9729,2.9108,2.7377,2.7024,2.6371,2.4703,2.4245,2.4084,2.3917,2.3584,2.3229,2.3002,2.2994,2.2852,2.2559,2.2725,2.2666,2.1973,2.2148,2.2256,2.1887,2.1738,2.1777,2.1758,2.1797,2.1699,2.1288,2.1132,2.0996,2.0973,2.1076,2.1987,2.2939,2.3882,2.4562,2.4825,2.4825,2.4825,2.4825,2.4854,2.4882,2.4946,2.4935,2.4881,2.4854,2.4753,2.4233,2.3836,2.3649,2.3145,2.2805,2.2606,2.2472,2.2381,2.2354,2.2344,2.2344,2.2354,2.2344,2.2051,2.1586,2.1576,2.1632,2.1787,2.1455,2.1022,2.0498,1.9369,1.8189,1.7033,1.6812,1.6689,1.6689,1.6689,1.6689,1.6689,1.6689,1.709,1.7957,1.863,1.9462,2.0469,2.1126,0.0,0.0,0.0,0.0,0.0,0.0,0.0,0.0,0.0,2.7974,2.7987,0.0,2.8236,0.0,3.0313,3.0784,3.1257,3.111,0.0,0.0,3.0394,3.0152,3.0113,2.9504,2.9302,2.9741,2.9415,2.9302,2.9741,2.9415,2.9088,2.9101,2.9088,2.8695,2.7618,2.6574,2.5521,2.4398,2.3638,2.3103,2.275,2.2438,2.2291,2.2187,2.2197,2.2148,2.206,2.2109,2.2002,2.1473,2.1424,2.1317,2.0977,2.0918,2.0928,2.0938,2.1143,2.1327,2.121,2.0967,2.0693,1.998,2.0021,2.0714,2.155,2.2524,2.3307,2.3777,2.4057,2.4057,2.4238,2.4476,2.4246,2.4028,2.3831,2.3732,2.3567,2.3352,2.299,2.2643,2.2324,2.2074,2.1921,2.1807,2.1807,2.1807,2.1797,2.16,2.1497,2.1487,2.129,2.1052,2.0777,2.0814,2.0928,2.1176,2.0901,2.0477,1.9923,1.8835,1.7959,1.7265,1.6928,1.6738,1.6738,1.6421,1.6421,1.6738,1.6738,1.6967,1.747,1.793,1.8588,1.9393,1.9895,2.0469,0.0,0.0,0.0,0.0,0.0,0.0,0.0,0.0,0.0,0.0,0.0,2.7853,0.0,3.0066,3.0474,3.0672,3.0622,3.0533,3.0406,3.0216,3.0113,3.0113,2.9618,2.934,2.9402,2.9088,2.8913,2.9038,2.8762,2.8561,2.8549,2.8348,2.7965,2.7338,2.6564,2.5777,2.4692,2.3815,2.2961,2.2195,2.1967,2.1936,2.1936,2.1936,2.1826,2.1641,2.1602,2.1445,2.1045,2.0937,2.0869,2.0664,2.0615,2.0615,2.0644,2.0762,2.0918,2.0928,2.0732,2.0615,1.9292,1.9332,1.9854,2.043,2.1022,2.184,2.2645,2.3446,2.3446,2.3745,2.4279,2.382,2.3356,2.3001,2.2964,2.274,2.2402,2.2365,2.2176,2.1797,2.1745,2.1714,2.1714,2.1652,2.1631,2.16,2.1228,2.0984,2.0974,2.0617,2.04,2.0302,2.024,2.0189,2.0127,2.0075,1.9707,1.902,1.8212,1.772,1.7675,1.7093,1.6788,1.6788,1.6248,1.6286,1.6901,1.693,1.693,1.6939,1.7044,1.7448,1.8193,1.835,1.9003,0.0,2.0374,0.0,0.0,0.0,0.0,0.0,0.0,0.0,0.0,2.7128,2.8442,2.9729,3.0246,3.0582,3.0622,3.0444,3.033,3.033,3.0088,2.9923,2.9923,2.9731,2.9377,2.8875,2.8787,2.8587,2.8222,2.8047,2.7996,2.7959,2.7544,2.7167,2.6846,2.6598,2.6115,2.5287,2.4309,2.319,2.2332,2.2068,2.2109,2.2088,2.2089,2.1897,2.159,2.1382,2.1214,2.1024,2.0819,2.0654,2.0722,2.0673,2.0605,2.0615,2.0635,2.0644,2.0644,2.0625,2.0615,1.9292,1.9301,1.9429,1.9539,1.9666,1.9855,2.1134,2.3086,2.3075,2.3161,2.3274,2.3187,2.3088,2.3012,2.2852,2.2628,2.2413,2.2225,2.2025,2.1797,2.1414,2.1248,2.1228,2.0866,2.0653,2.0643,2.0596,2.0509,2.0519,2.0426,2.0245,1.9927,1.9554,1.9137,1.8764,0.0,0.0,0.0,1.7378,1.6822,1.6465,1.6664,1.6788,1.6826,1.7261,0.0,1.7682,1.7673,1.7673,1.771,1.8378,0.0,0.0,0.0,0.0,0.0,0.0,0.0,0.0,0.0,0.0,0.0,2.2588,2.3234,2.3357,2.5565,2.7372,2.8374,2.9252,2.9844,3.019,3.019,3.0075,2.9921,2.9441,2.9126,2.9101,2.8712,2.8373,2.8285,2.8223,2.8222,2.8072,2.772,2.7444,2.7406,2.6967,2.6643,2.6592,2.6053,2.5505,2.5013,2.4107,2.323,2.2853,2.2783,2.2749,2.2778,2.2778,2.2729,2.2589,2.2064,2.1977,2.2285,2.1471,2.0857,2.1413,2.1049,2.0624,2.0605,2.0595,2.0615,2.0615,2.0605,2.0615,1.9008,0.0,1.9008,1.9275,0.0,1.9736,2.0653,2.2117,2.2117,2.2467,2.3001,2.3001,2.3001,2.299,2.265,2.2321,2.2051,2.1718,2.1382,2.1114,2.085,2.0726,2.0772,2.0488,2.0374,2.0374,2.0203,1.9975,1.9748,1.953,1.9199,1.8764,1.8526,1.8288,1.8061,1.7812,1.7737,1.7735,1.7403,1.7142,1.6878,1.6972,1.7033,1.7042,0.0,0.0,0.0,0.0,0.0,0.0,0.0,0.0,0.0,0.0,0.0,1.9827,2.0183,2.0377,2.0422,2.0727,2.1063,2.1452,2.2138,2.3176,2.4506,2.6222,2.7672,2.8687,2.9391,2.9872,3.0075,2.9758,2.9479,2.9327,2.8863,2.8487,2.8499,2.8273,2.7996,2.7745,2.7695,2.7656,2.7331,2.7102,2.6927,2.6901,2.6675,2.6521,2.6487,2.6176,2.5699,2.5087,2.4445,2.3745,2.3243,2.3132,2.3084,2.3032,2.2995,2.2995,2.2995,2.266,2.2537,2.2861,2.2105,2.1537,2.1813,2.1434,2.0983,2.0983,2.0983,2.0845,2.0558,2.0343,2.0282,1.8605,1.8623,1.8687,1.9169,1.9935,2.0012,2.0469,2.1203,0.0,0.0,0.0,2.2914,2.2881,2.2848,2.24,2.1955,2.1551,2.12,2.0761,2.0385,2.0338,2.0307,2.0307,2.0106,2.0023,2.0003,1.9647,1.9233,1.8859,1.8476,1.8092,1.7719,1.7626,1.7544,1.7461,1.7471,1.7502,1.7585,1.7523,1.7502,1.7512,1.7367,1.7353,1.7432,1.7335,1.7584,1.8172,1.8172,1.8206,1.8206,1.8206,1.823,1.8365,1.8375,1.8734,1.9594,2.0182,2.0526,2.0613,2.1135,2.1454,2.1472,2.2337,2.3842,2.6184,2.7047,2.7992,2.9145,2.9555,2.9745,2.9745,2.9189,2.875,2.8737,2.8285,2.7959,2.7959,2.7846,2.7666,2.7394,2.7364,2.7234,2.6986,2.6943,2.685,2.6884,2.6985,2.685,2.6803,2.6658,2.6129,2.5418,2.5087,2.4671,2.3963,2.3708,2.3599,2.361,2.3433,2.3267,2.3256,2.308,2.2999,2.3176,2.2573,2.216,2.2191,2.1773,2.1444,2.1387,2.1387,2.1247,2.0634,2.0266,2.0048,1.8173,1.82,1.8568,1.8781,1.8931,1.9273,2.0118,2.1242,2.1749,2.2354,2.2968,2.2586,2.2375,2.2353,2.1909,2.148,2.1115,2.1016,2.0807,0.0,2.0038,1.9886,1.9844,1.9077,1.8661,1.864,1.8237,1.7957,1.7884,1.7823,1.7761,1.7657,1.7316,1.6934,1.663,1.657,1.6757,1.7069,1.6867,1.6774,1.6774,1.7132,1.75,1.7895,1.8479,1.8821,1.8931,1.8931,1.8965,1.8931,1.8965,1.922,1.977,1.9792,2.0193,2.1008,2.1198,2.1282,2.1428,2.1534,2.1973,2.2814,2.3489,2.4131,2.4832,2.5778,2.6894,2.8147,2.8384,2.8372,2.8372,2.8285,2.8222,2.816,2.772,2.7429,2.7402,2.7059,2.6972,2.7374,2.7481,2.7662,2.7919,2.8023,2.7977,2.8128,2.7799,2.8082,2.7801,2.7229,2.6465,2.6119,2.6027,2.5875,2.5498,2.5335,2.5098,2.5241,2.46,2.4119,2.4096,2.3387,2.3029,2.3563,2.2582,2.1985,2.2354,2.1905,2.1554,2.1452,2.1476,2.1359,2.1164,2.0829,2.0303,1.7779,1.7825,1.8182,1.8522,1.8724,1.9198,2.0119,2.1271,2.1303,2.1822,2.2539,2.2127,2.192,2.1876,2.1407,2.1051,2.0764,2.0149,1.976,1.9551,1.9012,1.877,1.8739,1.8343,1.8114,1.8009,1.7802,1.7575,1.7347,1.7327,1.7203,1.6996,1.6986,1.6903,1.6767,1.7347,1.7747,1.791,1.7185,1.696,1.7201,1.8028,1.854,1.8759,1.9337,1.9813,2.0172,1.9846,1.9813,2.0172,2.0161,2.0355,2.0773,2.0816,2.106,2.1628,2.199,2.2206,2.2298,2.2476,2.2813,2.3275,2.3816,2.418,2.438,2.5287,2.6231,2.7155,2.7469,2.7783,2.8047,2.7833,2.758,2.7231,2.7014,2.676,2.6506,2.6557,2.6684,2.6945,2.7008,2.7121,2.7435,2.7466,2.748,2.7466,2.748,2.7493,2.7493,2.7003,2.6804,2.7248,2.685,2.6504,2.6552,2.594,2.5536,2.5365,2.4713,2.4277,2.4198,2.3578,2.3494,2.367,2.2891,2.2505,2.2791,2.2315,2.1947,2.1835,2.1835,2.1725,2.1351,2.0787,2.0266,1.7367,1.7403,1.7917,1.8264,1.8568,1.8911,1.9708,2.0668,2.0222,2.0663,2.1522,2.1374,2.1265,2.121,2.0675,2.0303,2.0008,1.9212,1.8838,1.8878,1.838,1.821,1.833,1.8225,1.8091,1.799,1.7855,1.7611,1.7283,1.7252,1.7164,1.7002,1.7395,1.7629,1.7639,1.8498,1.8999,1.9017,1.8218,1.7927,1.8319,1.9189,1.9669,1.9802,2.0124,2.0581,2.1028,2.0581,2.0581,2.1028,2.1103,2.125,2.1596,2.1639,2.1858,2.231,2.2786,2.3058,2.3173,2.339,2.3492,2.3505,2.3857,2.4068,2.4113,2.4703,2.5479,2.6135,2.6577,2.7006,2.7223,2.6999,2.6678,2.6371,2.6348,2.627,2.6033,2.6302,2.6684,2.6788,2.6805,2.6906,2.7028,2.7058,2.7203,2.723,2.6939,2.6879,2.6998,2.6879,2.7131,2.7865,2.739,2.6707,2.7019,2.6324,2.5667,2.5362,2.4823,2.4466,2.4268,2.4025,2.3713,2.3603,2.3244,2.295,2.2921,2.2554,2.2262,2.2294,2.2243,2.2008,2.1524,2.1076,2.0442,1.6963,1.7082,1.7743,1.8109,1.8156,1.7879,1.8209,1.8758,1.8281,1.8686,1.9758,2.0063,2.0238,2.0118,1.9321,1.8879,1.8672,1.8502,1.8651,1.895,1.8906,1.9171,1.954,1.9132,1.8868,1.8765,1.8316,1.8024,1.7972,1.7949,1.8202,1.868,1.9252,1.9446,1.9551,1.9655,1.9897,2.0244,2.016,2.0087,2.0133,2.0251,2.0491,2.096,2.0962,2.1028,2.1219,2.104,2.1028,2.1103,2.1135,2.1502,2.2206,2.231,2.2732,2.3611,2.376,2.3848,2.3966,2.3878,2.3861,2.3832,2.3781,2.3744,2.3731,2.3791,2.4259,2.5217,2.5512,2.5601,2.555,2.5466,2.5582,2.6002,2.5947,2.5949,2.6371,2.6546,2.6805,2.7473,2.7363,2.7736,2.8068,2.8154,2.8296,2.8068,2.7582,2.7453,2.7854,2.7262,2.7012,2.7979,2.7468,2.6735,2.6708,2.6451,2.6115,2.6024,2.5567,2.5027,2.4624,2.4236,2.3846,2.3547,2.3102,2.304,2.2923,2.2567,2.2445,2.2684,2.2543,2.2185,2.2092,2.1925,2.1474,1.6908,1.6936,1.7266,1.775,1.8273,1.8139,1.8454,1.8976,1.8533,1.8756,1.9376,1.9369,1.9299,1.9244,1.8862,1.8657,1.8544,1.8224,1.835,1.882,1.852,1.8645,1.9101,1.8952,1.8764,1.8682,1.8364,1.8217,1.819,1.8147,1.8499,1.9242,1.9591,1.9797,2.0121,2.076,2.1361,2.1927,2.2324,2.2748,2.3041,2.2025,2.1658,2.2115,2.1885,2.2113,2.2683,2.2144,2.1865,2.2261,2.2384,2.2798,2.3581,2.3712,2.3989,2.4463,2.42,2.42,2.4591,2.4171,2.42,2.4836,2.4494,2.4379,2.4766,2.4851,2.5138,2.5428,2.5097,2.5003,2.5636,2.5702,2.5788,2.6055,2.6272,2.6399,2.6285,2.6568,2.6847,2.7096,2.7138,2.7221,2.7494,2.759,2.759,2.7549,2.7304,2.7347,2.7496,2.707,2.7028,2.7344,2.7028,2.6947,2.706,2.6523,2.6184,2.5931,2.5437,2.4887,2.4802,2.4538,2.4179,2.3875,2.3682,2.3547,2.3573,2.3292,2.3125,2.3203,2.2927,2.2525,2.2259,2.2197,2.1862,1.7145,1.7126,1.7022,1.7393,1.8107,1.7994,1.8217,1.8603,1.8395,1.8625,1.9085,1.8917,1.8822,1.8778,1.8782,1.8782,1.8738,1.8349,1.847,1.8971,1.862,1.8738,1.9228,1.9202,1.9202,1.9204,1.9151,1.9139,1.9218,1.9283,1.9638,2.0271,2.0476,2.0698,2.1087,2.1954,2.2575,2.3039,2.3568,2.4205,2.464,2.3515,2.3035,2.3546,2.3246,2.3479,2.4366,2.3374,2.3075,2.3695,2.3721,2.4044,2.4738,2.4894,2.5021,2.516,2.4821,2.4736,2.5188,2.4721,2.478,2.5495,2.5231,2.5175,2.5563,2.5728,2.5783,2.5729,2.5185,2.5203,2.5821,2.5975,2.6052,2.6244,2.6553,2.6618,2.6463,2.6712,2.6849,2.6846,2.6869,2.6794,2.6794,2.6837,2.6881,2.6881,2.6837,2.6794,2.6794,2.6811,2.6796,2.6794,2.6808,2.6956,2.7292,2.6794,2.6207,2.6056,2.5674,2.5411,2.5176,2.5064,2.4782,2.4654,2.4454,2.4253,2.4121,2.393,2.3666,2.3547,2.3292,2.2987,2.2763,2.2622,2.2592,1.7743,1.7663,1.7294,1.7156,1.7159,1.685,1.6713,1.7116,1.7378,1.7778,1.8351,1.8819,1.9006,1.9092,1.917,1.903,1.8964,1.895,1.9245,1.9744,1.9708,2.0042,2.0574,2.0473,2.0623,2.0892,2.0805,2.1024,2.1486,2.1882,2.2235,2.2283,2.2528,2.2802,2.2851,2.302,2.3171,2.338,2.351,2.3853,2.4416,2.4392,2.4613,2.5136,2.5217,2.5161,2.5259,2.4724,2.4652,2.5273,2.4724,2.4794,2.5467,2.5563,2.5646,2.5728,2.5715,2.5701,2.5742,2.566,2.5701,2.581,2.581,2.5797,2.5919,2.5973,2.5973,2.5837,2.588,2.5854,2.5924,2.5911,2.6007,2.648,2.6408,2.6621,2.7078,2.6989,2.7003,2.6951,2.6884,2.6858,2.6832,2.6794,2.6884,2.6884,2.6832,2.6858,2.6896,2.6858,2.6884,2.691,2.6884,2.6835,2.6864,2.6732,2.6703,2.658,2.642,2.6459,2.6351,2.6135,2.5755,2.5453,2.5259,2.5007,2.4696,2.4352,2.4034,2.3829,2.3725,2.3458,2.322,2.3429,2.3369,1.7188,1.6999,1.7124,1.7226,1.7291,1.7444,1.774,1.8143,1.8336,1.8712,1.924,1.9773,2.022,2.056,2.0843,2.042,1.949,1.9438,1.9889,2.0668,2.0781,2.1051,2.1527,2.1551,2.1599,2.1762,2.1932,2.2366,2.2951,2.288,2.3146,2.3666,2.359,2.3662,2.397,2.4075,2.4253,2.4632,2.4723,2.5105,2.5741,2.5871,2.5911,2.5889,2.5562,2.5591,2.5987,2.5412,2.5175,2.5398,2.5273,2.5508,2.6081,2.627,2.6336,2.6351,2.6014,2.596,2.6256,2.6,2.6162,2.6852,2.6575,2.6522,2.6864,2.6941,2.6941,2.6916,2.6916,2.6941,2.6878,2.6575,2.6549,2.7034,2.7074,2.7049,2.7115,2.7067,2.6977,2.6925,2.7015,2.7196,2.7233,2.7372,2.7519,2.7504,2.7479,2.7494,2.7494,2.7504,2.7454,2.7519,2.7519,2.7504,2.7504,2.7037,2.6779,2.6779,2.6727,2.6712,2.6645,2.6657,2.6336,2.631,2.6122,2.5919,2.5632,2.5328,2.4894,2.4397,2.4266,2.405,2.3653,2.3813,2.3725,1.7852,1.786,1.8137,1.8322,1.8442,1.8747,1.9113,1.9503,1.967,1.9953,2.037,2.0999,2.152,2.1866,2.2303,2.2085,2.1124,2.0739,2.0877,2.152,2.1544,2.1748,2.2058,2.2105,2.2276,2.2591,2.3098,2.3646,2.406,2.3749,2.3967,2.4547,2.4236,2.4215,2.4547,2.4623,2.4858,2.5176,2.5274,2.566,2.635,2.6444,2.6467,2.6371,2.6086,2.5988,2.6272,2.6058,2.595,2.6019,2.6256,2.6634,2.7056,2.7159,2.7163,2.6982,2.6602,2.6549,2.6878,2.6602,2.6733,2.7499,2.724,2.7178,2.756,2.7585,2.7585,2.7585,2.7585,2.7585,2.7509,2.7229,2.7178,2.7534,2.765,2.766,2.7585,2.761,2.7534,2.7408,2.7458,2.7549,2.76,2.7755,2.7839,2.7889,2.7889,2.7889,2.7889,2.7889,2.7889,2.7889,2.7839,2.7839,2.779,2.7454,2.7306,2.7306,2.7203,2.7115,2.7063,2.7089,2.7074,2.7074,2.6982,2.6811,2.6575,2.6285,2.5797,2.5245,2.5036,2.4882,2.4511,2.4147,2.4221,1.9885,2.0256,2.0479,2.0306,2.0292,2.0355,2.0479,2.0627,2.1059,2.129,2.1503,2.2343,2.2751,2.2885,2.3236,2.3622,2.3652,2.2706,2.2248,2.234,2.2308,2.2354,2.2455,2.2486,2.2929,2.3667,2.446,2.4887,2.4985,2.4859,2.4839,2.4792,2.4831,2.4851,2.4688,2.491,2.4851,2.4989,2.5139,2.5401,2.5835,2.6073,2.6302,2.6719,2.6763,2.6561,2.6205,2.6704,2.6939,2.7115,2.7638,2.8157,2.8108,2.8185,2.81,2.7735,2.7625,2.761,2.7625,2.757,2.7519,2.776,2.7635,2.762,2.7785,2.776,2.776,2.7785,2.776,2.7685,2.7735,2.7685,2.7635,2.7635,2.7944,2.8183,2.8255,2.8606,2.8724,2.8304,2.811,2.7923,2.7923,2.8046,2.8134,2.8085,2.8061,2.8061,2.811,2.811,2.7987,2.7987,2.811,2.8207,2.8061,2.7913,2.7913,2.7913,2.779,2.7665,2.7605,2.7605,2.7555,2.7555,2.753,2.7373,2.7221,2.6927,2.6625,2.6199,2.6011,2.5768,2.5481,2.5217,2.5105,2.0334,2.0504,2.0504,2.0739,2.1021,2.1059,2.1418,2.2062,2.2275,2.2489,2.2849,2.346,2.3761,2.3867,2.4205,2.4625,2.4918,2.4494,2.4296,2.4301,2.4276,2.4342,2.4491,2.4551,2.4885,2.5375,2.5701,2.6036,2.6264,2.6264,2.6298,2.6264,2.6212,2.6264,2.6193,2.6281,2.6282,2.6298,2.6333,2.6484,2.665,2.6649,2.6533,2.6271,2.6522,2.6409,2.5807,2.6529,2.6945,2.7001,2.7179,2.7536,2.8067,2.8575,2.8779,2.8654,2.863,2.8646,2.8583,2.8319,2.8231,2.8463,2.828,2.8304,2.8583,2.8606,2.8598,2.8606,2.8646,2.8646,2.863,2.863,2.8319,2.77,2.8002,2.8328,2.8376,2.8606,2.8662,2.8638,2.8709,2.8732,2.8662,2.8772,2.8865,2.8716,2.8716,2.8693,2.8716,2.8693,2.8716,2.8716,2.8716,2.863,2.8535,2.8583,2.8701,2.8511,2.8304,2.8158,2.811,2.8085,2.8036,2.8036,2.8012,2.7963,2.7799,2.7625,2.7359,2.7104,2.6831,2.6649,2.6479,2.6281,2.6054,2.1764,2.213,2.2246,2.2478,2.279,2.2871,2.3284,2.3838,2.3859,2.403,2.4335,2.478,2.4987,2.5064,2.547,2.5822,2.6075,2.6059,2.6199,2.62,2.5609,2.557,2.5719,2.5863,2.604,2.6284,2.6488,2.6724,2.6989,2.7006,2.7006,2.7006,2.7006,2.6973,2.7006,2.7006,2.7006,2.7006,2.6989,2.7006,2.7006,2.7006,2.6757,2.642,2.6607,2.6487,2.6134,2.6659,2.6876,2.6903,2.7233,2.7911,2.8624,2.9125,2.928,2.912,2.9113,2.909,2.9074,2.8756,2.8732,2.8943,2.8795,2.8724,2.9028,2.9113,2.9113,2.9113,2.909,2.9113,2.9113,2.9113,2.8795,2.8262,2.8614,2.888,2.895,2.9127,2.928,2.9325,2.9371,2.9332,2.9348,2.9409,2.956,2.9396,2.9357,2.9357,2.9357,2.9335,2.9335,2.9312,2.9273,2.9182,2.9121,2.9236,2.9425,2.9159,2.8818,2.8654,2.855,2.855,2.8527,2.8535,2.8535,2.8559,2.8439,2.8328,2.8134,2.7898,2.756,2.7282,2.7027,2.6872,2.6689,2.4066,2.4973,2.523,2.5204,2.5242,2.5433,2.5528,2.5722,2.5706,2.5726,2.5886,2.6184,2.6387,2.6505,2.6817,2.712,2.7415,2.7392,2.7624,2.7589,2.6841,2.6184,2.6218,2.6505,2.6655,2.6672,2.6985,2.7147,2.7317,2.7272,2.71,2.7284,2.7286,2.7148,2.7255,2.7148,2.7195,2.7243,2.718,2.7195,2.7195,2.7164,2.7101,2.702,2.7053,2.7021,2.6923,2.7162,2.7077,2.686,2.794,2.8925,2.9632,2.987,2.9793,2.9489,2.9303,2.9377,2.9309,2.9339,2.9293,2.9377,2.9303,2.9205,2.9371,2.9483,2.9489,2.9512,2.9467,2.94,2.9422,2.9445,2.9377,2.9309,2.9489,2.9815,3.0342,3.0258,3.0172,3.0151,3.0027,2.9881,2.9946,2.9946,2.9924,2.9881,2.9865,2.9886,2.9903,2.9881,2.9772,2.9772,2.9859,2.9815,2.975,2.981,2.9946,2.9815,2.9489,2.9303,2.902,2.8951,2.8873,2.892,2.9013,2.9059,2.899,2.8826,2.8646,2.8367,2.8061,2.7775,2.766,2.761,2.7545,2.5812,2.6101,2.6169,2.6185,2.6202,2.6269,2.6467,2.6727,2.6743,2.6989,2.7347,2.7508,2.7627,2.7794,2.7896,2.8101,2.8281,2.8349,2.8517,2.8768,2.8492,2.8034,2.7814,2.7854,2.7881,2.7899,2.7972,2.8179,2.8312,2.8107,2.8203,2.853,2.8182,2.8165,2.8286,2.8139,2.8121,2.8107,2.8094,2.8076,2.8076,2.8076,2.7932,2.7622,2.7607,2.7502,2.7415,2.8065,2.8213,2.7791,2.8563,2.9421,3.0191,3.0695,3.0868,3.0767,3.0788,3.0828,3.073,3.0468,3.0344,3.0435,3.0145,3.014,3.0493,3.0493,3.0621,3.0784,3.0885,3.0808,3.0828,3.0788,3.0808,3.0767,3.0293,3.0092,3.0447,3.0692,3.0794,3.0794,3.0918,3.0865,3.0764,3.0686,3.0629,3.051,3.0468,3.0468,3.0481,3.0481,3.0418,3.0444,3.0485,3.0427,3.0423,3.0439,3.0439,3.0398,3.0192,2.9995,2.9639,2.9319,2.919,2.9091,2.9289,2.9341,2.9213,2.9029,2.8873,2.8912,2.8818,2.8693,2.8677,2.863,2.8551,2.7268,2.7268,2.7366,2.7426,2.7439,2.7548,2.7719,2.7923,2.7931,2.8129,2.8441,2.851,2.8588,2.8724,2.8726,2.8882,2.9102,2.912,2.9251,2.9447,2.9392,2.9118,2.8812,2.875,2.875,2.875,2.875,2.8789,2.8879,2.8808,2.8883,2.8973,2.8868,2.8831,2.8861,2.8831,2.8769,2.8739,2.8739,2.875,2.875,2.875,2.8579,2.8296,2.8236,2.8219,2.8464,2.9036,2.9178,2.9079,2.954,3.0194,3.0802,3.1245,3.1485,3.1485,3.1485,3.1504,3.1524,3.1242,3.1145,3.1181,3.0965,3.0982,3.1137,3.1196,3.1312,3.1426,3.1485,3.1485,3.1485,3.1485,3.1485,3.1353,3.0905,3.0642,3.0918,3.1114,3.1213,3.1254,3.1351,3.1447,3.1276,3.1276,3.1201,3.1069,3.1047,3.1047,3.1064,3.1083,3.1106,3.1111,3.1072,3.1013,3.1013,3.103,3.1069,3.1013,3.0931,3.071,3.0293,2.9859,2.9744,2.9655,2.9655,2.9655,2.9566,2.9566,2.9705,2.9733,2.9683,2.9617,2.9572,2.9432,2.9416,2.8485,2.8496,2.8748,2.8839,2.8842,2.908,2.9092,2.9167,2.912,2.9184,2.9274,2.9295,2.9368,2.9436,2.9465,2.957,2.9762,2.9781,2.9877,2.9979,2.9956,2.9733,2.9376,2.927,2.9251,2.9251,2.9202,2.9242,2.9317,2.9289,2.927,2.9363,2.9308,2.9222,2.9298,2.9251,2.9211,2.923,2.9211,2.924,2.922,2.9209,2.9055,2.8887,2.903,2.9235,2.9659,3.0088,3.027,3.0285,3.0735,3.1201,3.1614,3.1714,3.1786,3.1823,3.1878,3.186,3.186,3.1823,3.1675,3.1749,3.1638,3.1581,3.1618,3.1637,3.1674,3.1748,3.1635,3.171,3.1654,3.1617,3.171,3.1748,3.1656,3.1637,3.1673,3.1617,3.1523,3.1542,3.156,3.1596,3.1596,3.1596,3.1598,3.1656,3.1637,3.1694,3.1732,3.1788,3.1752,3.17,3.1643,3.1567,3.1585,3.1621,3.166,3.1678,3.1585,3.1397,3.0968,3.0605,3.046,3.0351,3.014,3.0118,3.0225,3.0309,3.0398,3.0314,3.0118,3.0267,3.0377,3.0145,3.0038,2.9704,2.9723,2.9787,2.976,2.9748,2.9843,2.985,2.9781,2.9804,2.9835,2.9978,3.0048,3.0141,3.0309,3.025,3.0374,3.035,3.0354,3.0438,3.0444,3.0459,3.0374,3.0129,2.9911,2.983,2.986,2.9875,2.9941,3.003,2.9953,3.0023,3.0183,2.9928,2.9913,2.9926,2.986,2.987,2.9832,2.981,2.9791,2.9787,2.9729,2.9622,2.9476,2.9855,3.0102,3.0485,3.1626,3.2268,3.2138,3.2031,3.2272,3.2724,3.2887,3.2885,3.2885,3.284,3.2827,3.2827,3.2651,3.2487,3.2317,3.2265,3.2214,3.2196,3.2231,3.2266,3.2318,3.2352,3.23,3.2232,3.2214,3.2283,3.2418,3.2467,3.2584,3.2697,3.2248,3.193,3.193,3.2055,3.2196,3.2214,3.2197,3.2197,3.2214,3.2249,3.2318,3.2369,3.2435,3.2417,3.2332,3.2382,3.2332,3.2282,3.2282,3.2282,3.2299,3.2214,3.2109,3.1679,3.1302,3.1114,3.0794,3.0456,3.0543,3.0788,3.0645,3.0666,3.0584,3.058,3.0666,3.0727,3.0625,3.0662,3.0214,3.015,3.0212,3.0172,3.0134,3.0222,3.0232,3.0157,3.0193,3.0289,3.0378,3.0431,3.0518,3.0644,3.066,3.0637,3.0635,3.0626,3.0609,3.0593,3.0578,3.0548,3.0543,3.0386,3.0302,3.0312,3.0329,3.0408,3.0435,3.0408,3.0408,3.0591,3.0397,3.033,3.0373,3.0335,3.0303,3.0284,3.0288,3.0288,3.0272,3.0256,3.0385,3.0535,3.1051,3.1477,3.2041,3.2757,3.3443,3.3626,3.3501,3.3329,3.3391,3.3462,3.3472,3.3472,3.3415,3.3386,3.3357,3.3288,3.3105,3.3009,3.2947,3.2919,3.2919,3.2919,3.2934,3.2983,3.2999,3.2986,3.2925,3.2925,3.3016,3.3075,3.3118,3.3211,3.3255,3.289,3.2551,3.2586,3.2716,3.2782,3.2816,3.2737,3.2768,3.275,3.2766,3.2829,3.286,3.2937,3.2999,3.3014,3.3121,3.3139,3.3032,3.2986,3.2937,3.289,3.2795,3.2681,3.2449,3.2074,3.1719,3.144,3.1208,3.1223,3.1357,3.1184,3.1108,3.122,3.124,3.1142,3.1142,3.1278,3.1298,3.0345,3.023,3.0368,3.0344,3.0251,3.0404,3.0385,3.0312,3.0425,3.0455,3.0543,3.0561,3.0524,3.0622,3.0646,3.0644,3.0636,3.0594,3.0547,3.0521,3.05,3.0491,3.0498,3.0515,3.0527,3.0574,3.0586,3.0609,3.0607,3.0616,3.0595,3.0624,3.062,3.0562,3.0572,3.0624,3.0577,3.0561,3.0541,3.0733,3.0843,3.0882,3.112,3.1705,3.2338,3.2889,3.3337,3.3807,3.4227,3.493,3.486,3.4397,3.395,3.3648,3.3666,3.3693,3.3707,3.3702,3.376,3.368,3.3597,3.3728,3.362,3.3556,3.3542,3.3514,3.3482,3.3472,3.3443,3.3415,3.3486,3.34,3.3476,3.3542,3.357,3.3584,3.3593,3.3514,3.3429,3.3214,3.3139,3.3124,3.3154,3.3142,3.3229,3.3302,3.3317,3.3332,3.3361,3.339,3.3433,3.3546,3.363,3.3657,3.357,3.3408,3.3394,3.3346,3.3273,3.3166,3.3039,3.2741,3.2415,3.2282,3.2127,3.2074,3.2056,3.2022,3.1986,3.1984,3.1985,3.1951,3.1968,3.2002,3.1948,3.0395,3.0369,3.0399,3.0358,3.03,3.0385,3.037,3.0316,3.0324,3.0342,3.036,3.0356,3.0363,3.0397,3.0436,3.0459,3.0466,3.0445,3.0423,3.0409,3.0399,3.0416,3.0402,3.0503,3.055,3.055,3.0599,3.0632,3.0677,3.0691,3.068,3.0675,3.0676,3.0661,3.0644,3.0703,3.0758,3.0847,3.0848,3.1125,3.1631,3.186,3.2107,3.2772,3.3445,3.3878,3.4075,3.4504,3.4895,3.5054,3.5037,3.4958,3.4737,3.4462,3.4353,3.4325,3.422,3.4172,3.4172,3.4043,3.3941,3.3928,3.3928,3.3928,3.3915,3.3915,3.3878,3.3763,3.3656,3.3565,3.35,3.3675,3.3707,3.3831,3.3974,3.4037,3.4184,3.4177,3.4006,3.3697,3.3538,3.3429,3.35,3.3546,3.3574,3.3588,3.3556,3.3643,3.373,3.377,3.3797,3.3928,3.408,3.4093,3.4062,3.3837,3.3721,3.3703,3.3648,3.355,3.3433,3.3288,3.3108,3.2981,3.284,3.2711,3.2727,3.2727,3.2663,3.2534,3.2648,3.2759,3.2616,3.2467,3.2599,3.0144,3.001,3.0163,3.0183,3.0139,3.0273,3.0288,3.0227,3.026,3.0297,3.0305,3.0303,3.0308,3.0306,3.0326,3.0358,3.0339,3.0339,3.0345,3.0312,3.0321,3.0334,3.0292,3.0407,3.0432,3.0423,3.0461,3.0578,3.0698,3.071,3.07,3.0708,3.0704,3.0696,3.0695,3.0748,3.104,3.1225,3.1465,3.187,3.2694,3.3023,3.3541,3.39,3.4497,3.4915,3.5,3.517,3.5414,3.5458,3.5388,3.5361,3.5235,3.5051,3.4849,3.4832,3.4703,3.4618,3.4586,3.4443,3.4316,3.4316,3.4305,3.4323,3.4305,3.4305,3.4291,3.4311,3.437,3.433,3.4363,3.4304,3.4422,3.4515,3.4545,3.4586,3.4696,3.4726,3.4494,3.4155,3.4092,3.4012,3.3943,3.3948,3.391,3.3871,3.3839,3.3948,3.4093,3.413,3.4148,3.4196,3.4321,3.4279,3.4291,3.4191,3.4055,3.4043,3.4018,3.3941,3.3876,3.3773,3.3747,3.3693,3.3519,3.3313,3.3103,3.3029,3.3042,3.3054,3.3006,3.2975,3.2975,3.2975,3.3082,2.9786,2.957,2.9836,2.9869,2.982,3.0015,3.0019,2.9965,3.0026,3.0097,3.0166,3.014,3.0173,3.0219,3.02,3.0194,3.0173,3.0161,3.0207,3.0181,3.0188,3.02,3.0226,3.0253,3.0254,3.028,3.0323,3.0416,3.0564,3.0597,3.0636,3.063,3.0642,3.0812,3.0934,3.1103,3.1527,3.2032,3.2376,3.2838,3.3599,3.4394,3.4869,3.4864,3.5509,3.5766,3.5697,3.569,3.5723,3.5717,3.5674,3.5596,3.5529,3.5419,3.5297,3.522,3.5049,3.4954,3.4889,3.4803,3.4674,3.4674,3.4711,3.4701,3.4701,3.4694,3.4753,3.4917,3.4969,3.4992,3.4921,3.5045,3.5045,3.5037,3.5028,3.507,3.5028,3.5011,3.4985,3.4756,3.4665,3.4569,3.4456,3.4423,3.4412,3.4412,3.4383,3.4412,3.4526,3.4505,3.4505,3.4472,3.4483,3.4431,3.445,3.4461,3.4394,3.4424,3.4424,3.436,3.4348,3.4325,3.4291,3.4237,3.4111,3.3887,3.3588,3.3419,3.3514,3.351,3.3303,3.3303,3.3463,3.3478,3.3505,2.9375,2.9345,2.9367,2.9395,2.9395,2.9436,2.9426,2.9426,2.9465,2.9523,2.9697,2.9688,2.9786,2.9897,2.9921,2.9828,2.9777,2.9836,2.9894,2.9894,2.9929,2.9937,2.9953,3.0087,3.0182,3.0254,3.032,3.0299,3.0543,3.0604,3.0505,3.0564,3.0824,3.0963,3.1644,3.1709,3.222,3.2904,3.314,3.3578,3.4347,3.5225,3.5574,3.5701,3.5798,3.5893,3.5871,3.5834,3.5817,3.5819,3.579,3.5761,3.5755,3.5741,3.57,3.5544,3.5313,3.5062,3.507,3.503,3.4996,3.4987,3.5005,3.5039,3.5013,3.5022,3.5047,3.5064,3.5122,3.5154,3.5178,3.5138,3.5122,3.5146,3.5185,3.517,3.5154,3.5265,3.5224,3.5178,3.5043,3.4985,3.4924,3.4925,3.4906,3.4906,3.4916,3.4907,3.487,3.4813,3.4774,3.4734,3.4714,3.4655,3.4634,3.4663,3.4684,3.4723,3.4723,3.4723,3.4693,3.4653,3.4743,3.4674,3.4561,3.4412,3.4183,3.4037,3.4062,3.4018,3.3944,3.3975,3.408,3.4037,3.3943,2.8548,2.9031,2.9212,2.9304,2.9304,2.9304,2.9304,2.9293,2.9262,2.9293,2.9365,2.9336,2.9387,2.9427,2.9437,2.9398,2.9338,2.9418,2.9447,2.9504,2.9589,2.9626,2.9654,2.9818,3.0009,3.0536,3.0675,3.1027,3.1086,3.1099,3.1021,3.1072,3.1482,3.1968,3.2349,3.2399,3.2977,3.3694,3.4305,3.4761,3.5175,3.5558,3.5817,3.5878,3.5888,3.5917,3.5917,3.5934,3.5911,3.5912,3.5912,3.5885,3.5868,3.5836,3.5819,3.5759,3.5609,3.5444,3.5328,3.5223,3.5185,3.5155,3.5182,3.5159,3.5182,3.5264,3.5318,3.529,3.5386,3.5432,3.5425,3.5444,3.5438,3.5438,3.5393,3.5386,3.5386,3.5438,3.547,3.5438,3.5406,3.5367,3.528,3.5185,3.5124,3.5089,3.5081,3.5083,3.5022,3.495,3.4943,3.4944,3.4925,3.4916,3.4879,3.487,3.4889,3.4926,3.4898,3.4898,3.4926,3.4935,3.4999,3.4981,3.4841,3.4735,3.4663,3.458,3.4516,3.4537,3.4588,3.4545,3.4491,3.442,3.4309,2.7787,2.843,2.873,2.8835,2.8824,2.8835,2.8782,2.8812,2.873,2.8765,2.8828,2.881,2.881,2.8828,2.8886,2.896,2.8881,2.9031,2.9104,2.9195,2.9416,2.9638,2.9847,2.9995,3.0541,3.1124,3.1145,3.1438,3.1817,3.1998,3.1912,3.1744,3.2073,3.2664,3.2982,3.312,3.3506,3.4494,3.5126,3.5471,3.5607,3.5644,3.5723,3.5777,3.5846,3.5886,3.5913,3.5897,3.5897,3.5895,3.5944,3.5914,3.5859,3.5875,3.5883,3.5838,3.5771,3.5729,3.56,3.5486,3.5374,3.5355,3.5342,3.5397,3.5394,3.5496,3.5553,3.5514,3.5616,3.5697,3.5732,3.5712,3.5693,3.5678,3.5674,3.5708,3.5703,3.5655,3.5645,3.5633,3.5622,3.5661,3.5558,3.5396,3.5329,3.5276,3.5258,3.5239,3.5224,3.5178,3.5197,3.525,3.5235,3.522,3.5197,3.5173,3.516,3.5127,3.5108,3.5125,3.5176,3.5192,3.5235,3.5203,3.5127,3.5144,3.51,3.5016,3.4908,3.4841,3.4784,3.4832,3.4821,3.4732,3.4658,2.7348,2.7409,2.7512,2.7587,2.7616,2.7545,2.7557,2.7701,2.7599,2.772,2.7914,2.804,2.8058,2.8036,2.8381,2.853,2.8371,2.8865,2.9147,2.9432,2.9758,3.0074,3.0296,3.0725,3.1305,3.1663,3.1734,3.1888,3.2258,3.2912,3.2685,3.2392,3.272,3.3054,3.3435,3.3732,3.4128,3.4913,3.5399,3.5534,3.5579,3.5595,3.5626,3.5633,3.569,3.5717,3.5743,3.5752,3.5755,3.5746,3.5838,3.5867,3.5815,3.5851,3.5859,3.5875,3.587,3.5858,3.5786,3.5739,3.5744,3.5737,3.5717,3.5678,3.5671,3.5733,3.5768,3.5747,3.578,3.5772,3.5783,3.5795,3.5783,3.5774,3.5759,3.5762,3.5762,3.5758,3.5747,3.579,3.579,3.5794,3.5783,3.5609,3.5558,3.5521,3.5527,3.5508,3.5546,3.5521,3.556,3.5579,3.5556,3.5544,3.5552,3.5502,3.5412,3.5411,3.5409,3.5443,3.5496,3.5515,3.5456,3.5463,3.5423,3.5489,3.5515,3.5319,3.516,3.5024,3.498,3.506,3.5025,3.4935,3.4889,2.6624,2.664,2.6657,2.6955,2.7411,2.7411,2.7411,2.7378,2.7348,2.7346,2.7402,2.7507,2.7607,2.7759,2.7922,2.8429,2.8881,2.9112,2.951,2.9961,3.0381,3.0537,3.0758,3.1049,3.1468,3.2022,3.2287,3.2717,3.3271,3.3573,3.3679,3.3537,3.3469,3.3863,3.4225,3.4282,3.4659,3.4918,3.5239,3.535,3.5367,3.5496,3.5562,3.5586,3.5606,3.5657,3.5698,3.5702,3.5698,3.5722,3.576,3.5749,3.5752,3.5766,3.5818,3.5884,3.5888,3.5892,3.5937,3.5884,3.5845,3.5862,3.5862,3.5853,3.5851,3.5848,3.5862,3.5878,3.5862,3.5848,3.5793,3.5789,3.5802,3.5789,3.5814,3.582,3.5823,3.583,3.583,3.5835,3.5835,3.585,3.5827,3.58,3.5775,3.5758,3.5764,3.5764,3.5753,3.5749,3.5741,3.5732,3.57,3.5693,3.566,3.5655,3.5649,3.5662,3.5654,3.5665,3.5657,3.5651,3.5628,3.5651,3.5651,3.5639,3.5596,3.5522,3.5423,3.5319,3.5289,3.5311,3.5251,3.5136,3.5094,2.6185,2.6185,2.6185,2.6504,2.702,2.7052,2.7052,2.7036,2.6988,2.6955,2.6925,2.7112,2.7363,2.7591,2.8028,2.8526,2.9231,2.9553,2.9956,3.0409,3.0808,3.1017,3.1182,3.1538,3.2121,3.2528,3.2762,3.319,3.3762,3.403,3.4031,3.4096,3.4274,3.4379,3.447,3.4722,3.4792,3.487,3.5063,3.5174,3.5215,3.5398,3.5521,3.5558,3.5556,3.5585,3.5614,3.5625,3.563,3.5645,3.567,3.5674,3.5687,3.5689,3.5749,3.582,3.5846,3.5864,3.5894,3.5917,3.5889,3.5886,3.5886,3.5908,3.5912,3.5914,3.5935,3.5934,3.5932,3.5908,3.5845,3.5872,3.5874,3.5896,3.5896,3.5897,3.5876,3.5897,3.5876,3.5875,3.5895,3.5917,3.5915,3.5894,3.5853,3.5819,3.5789,3.578,3.578,3.5777,3.5783,3.578,3.5777,3.5759,3.5735,3.5717,3.5718,3.5729,3.5728,3.5735,3.573,3.5732,3.5723,3.5684,3.5679,3.5702,3.566,3.5608,3.5602,3.5616,3.556,3.547,3.5456,3.536,3.5338,2.6216,2.6185,2.6198,2.625,2.6337,2.6256,2.6291,2.648,2.6512,2.6527,2.6644,2.711,2.7396,2.7623,2.8333,2.9007,2.9588,2.9904,3.0268,3.08,3.136,3.162,3.1867,3.2235,3.2509,3.3015,3.3102,3.3269,3.3802,3.3784,3.3897,3.4093,3.4142,3.4233,3.4227,3.4484,3.4583,3.4647,3.4963,3.5062,3.5113,3.5254,3.5364,3.5441,3.5429,3.543,3.5502,3.5515,3.5522,3.5509,3.5556,3.5566,3.5563,3.5611,3.5659,3.5709,3.5713,3.5721,3.5725,3.5836,3.5876,3.5878,3.5877,3.5893,3.5961,3.5975,3.596,3.5946,3.5963,3.5962,3.5979,3.5979,3.5944,3.5948,3.595,3.595,3.5932,3.5953,3.5936,3.5937,3.5969,3.5999,3.6006,3.5973,3.5916,3.5862,3.582,3.5812,3.582,3.5846,3.5851,3.5851,3.585,3.5834,3.5799,3.5783,3.5791,3.5805,3.5794,3.5775,3.5785,3.5771,3.5749,3.5725,3.572,3.5745,3.5728,3.569,3.5679,3.5668,3.5631,3.5577,3.5598,3.5579,3.5522,2.682,2.6536,2.6536,2.652,2.6494,2.6293,2.6468,2.6984,2.7396,2.7607,2.7564,2.7828,2.7995,2.8229,2.8544,2.9265,3.0161,3.0387,3.078,3.1627,3.1941,3.2064,3.2223,3.2326,3.2571,3.2636,3.2766,3.2908,3.306,3.3266,3.35,3.368,3.3923,3.4086,3.4136,3.4233,3.4276,3.4269,3.4442,3.4595,3.4655,3.486,3.5062,3.5171,3.5171,3.5239,3.5335,3.5335,3.5342,3.5357,3.5404,3.5398,3.5412,3.547,3.55,3.5546,3.5574,3.5591,3.5636,3.57,3.5789,3.5812,3.5814,3.5824,3.5907,3.5833,3.5864,3.5904,3.5909,3.5923,3.5988,3.5929,3.591,3.5968,3.5973,3.5949,3.595,3.5975,3.6,3.5983,3.6013,3.6012,3.6017,3.6021,3.5955,3.5937,3.5916,3.5915,3.5936,3.5937,3.5957,3.5937,3.5937,3.5894,3.5886,3.5857,3.5843,3.5834,3.5804,3.579,3.5805,3.5814,3.5797,3.578,3.5768,3.5772,3.576,3.5741,3.5718,3.5687,3.5678,3.5657,3.5656,3.567,3.5645,2.6908,2.6626,2.6626,2.6735,2.683,2.6633,2.6934,2.7545,2.8061,2.8201,2.8158,2.8356,2.8583,2.8754,2.9084,2.9535,3.0698,3.077,3.1039,3.1967,3.2127,3.2092,3.2127,3.2249,3.2352,3.2352,3.2437,3.2586,3.2765,3.284,3.3148,3.3486,3.3611,3.3778,3.3897,3.4049,3.4092,3.4105,3.426,3.4379,3.4434,3.4582,3.4774,3.4879,3.4935,3.4953,3.506,3.5102,3.5147,3.516,3.5192,3.5216,3.5266,3.5323,3.5348,3.5417,3.5432,3.5457,3.5486,3.5492,3.5572,3.5698,3.5678,3.5713,3.576,3.5714,3.5722,3.5764,3.5797,3.5824,3.5847,3.5811,3.5824,3.5853,3.585,3.5841,3.5892,3.5923,3.5955,3.5956,3.5983,3.5986,3.5986,3.6012,3.6001,3.6001,3.6002,3.6003,3.6006,3.6007,3.6007,3.6009,3.599,3.5956,3.5937,3.5918,3.5894,3.5867,3.5862,3.5858,3.5884,3.5908,3.5878,3.5825,3.5832,3.5812,3.5797,3.5781,3.5768,3.576,3.5743,3.5727,3.5716,3.5701,3.5701,2.6563,2.6563,2.6579,2.6873,2.719,2.7311,2.7602,2.8039,2.8145,2.8174,2.8154,2.8907,2.9145,2.9288,2.9812,3.0298,3.0634,3.0727,3.1077,3.1418,3.1749,3.1822,3.1984,3.2109,3.2162,3.2231,3.2283,3.2335,3.262,3.2651,3.2937,3.3207,3.3178,3.3429,3.3684,3.385,3.3908,3.3979,3.4087,3.4159,3.4237,3.442,3.4559,3.4622,3.4653,3.4694,3.4744,3.4745,3.486,3.4935,3.4997,3.5127,3.5219,3.53,3.5308,3.5308,3.5296,3.5311,3.5326,3.5338,3.5362,3.55,3.5524,3.5572,3.5597,3.5582,3.5582,3.5602,3.5626,3.5626,3.5611,3.5626,3.5626,3.5639,3.5635,3.5678,3.5765,3.5813,3.5855,3.5887,3.5901,3.5906,3.5899,3.5925,3.5949,3.5956,3.596,3.6009,3.6013,3.6017,3.6018,3.6018,3.6001,3.6003,3.5988,3.5972,3.5954,3.5937,3.5957,3.5957,3.5994,3.5976,3.5937,3.5894,3.5894,3.5867,3.5843,3.5825,3.5814,3.5816,3.5801,3.5768,3.5754,3.5723,3.5707,2.7922,2.7922,2.7907,2.8015,2.8162,2.8419,2.8629,2.8821,2.9304,2.9508,2.9456,2.9631,2.9604,2.9691,2.9886,3.0156,3.0347,3.0539,3.0868,3.1162,3.1338,3.16,3.1765,3.1893,3.193,3.1948,3.1966,3.202,3.2109,3.2249,3.242,3.2586,3.2747,3.306,3.3328,3.3508,3.3648,3.3829,3.3935,3.3974,3.3986,3.4087,3.4227,3.4321,3.4356,3.4394,3.4475,3.4508,3.4653,3.487,3.4898,3.5018,3.5207,3.5242,3.5242,3.5242,3.5223,3.5223,3.5223,3.5215,3.5239,3.5274,3.5328,3.5425,3.5451,3.547,3.5445,3.5469,3.5498,3.5485,3.5502,3.5508,3.5508,3.5519,3.5513,3.5565,3.5626,3.5674,3.5725,3.5755,3.5775,3.5778,3.5775,3.5813,3.5839,3.5872,3.5907,3.596,3.5997,3.6004,3.601,3.601,3.6013,3.6017,3.6017,3.6001,3.6,3.6001,3.6021,3.6002,3.5986,3.597,3.5953,3.5936,3.5937,3.5918,3.5893,3.5868,3.5882,3.5866,3.5862,3.5822,3.579,3.5768,3.5721,2.8367,2.8271,2.8255,2.8304,2.8472,2.8904,2.9109,2.9221,2.9811,2.9973,2.9804,2.9766,2.9732,2.9538,2.9554,2.9665,2.9772,2.9815,3.0081,3.0502,3.0868,3.1179,3.1408,3.1615,3.1709,3.169,3.1709,3.1764,3.1783,3.1893,3.2073,3.2283,3.2386,3.2684,3.3001,3.3157,3.3306,3.3583,3.378,3.3793,3.3807,3.3807,3.3921,3.4011,3.4049,3.4142,3.422,3.4237,3.4383,3.4577,3.462,3.4723,3.486,3.4889,3.5,3.5,3.5009,3.5081,3.5151,3.516,3.516,3.516,3.516,3.5223,3.5293,3.5304,3.5326,3.5343,3.5371,3.5391,3.5392,3.54,3.5419,3.5432,3.5438,3.5445,3.5475,3.5519,3.5567,3.5607,3.5626,3.563,3.5668,3.5698,3.5718,3.5749,3.5771,3.5817,3.5897,3.597,3.5999,3.6006,3.6009,3.6013,3.601,3.6009,3.6012,3.6013,3.6014,3.5996,3.5996,3.5979,3.5984,3.5986,3.5967,3.5953,3.5937,3.5937,3.5937,3.5914,3.5908,3.5876,3.5855,3.5819,3.5788,2.811,2.7898,2.7913,2.8046,2.8328,2.8811,2.9036,2.9121,2.9576,2.9704,2.9493,2.947,2.9335,2.9236,2.9229,2.9229,2.9305,2.9328,2.9566,2.9815,3.0166,3.0563,3.0982,3.1291,3.137,3.1485,3.1596,3.1596,3.1615,3.1691,3.1857,3.2109,3.1802,3.2038,3.2716,3.2784,3.2988,3.3426,3.3657,3.3753,3.3766,3.3762,3.3775,3.3775,3.3788,3.3834,3.382,3.3847,3.3908,3.4099,3.4215,3.4333,3.4442,3.45,3.4624,3.4754,3.4812,3.4955,3.5092,3.5127,3.5119,3.511,3.5101,3.5136,3.5168,3.5201,3.5215,3.5231,3.5254,3.527,3.5274,3.5289,3.5304,3.5307,3.5299,3.5314,3.5352,3.5386,3.5412,3.5443,3.5455,3.5461,3.5498,3.5538,3.5567,3.5601,3.5645,3.5689,3.5749,3.5858,3.5931,3.5966,3.5999,3.6002,3.6004,3.6004,3.6006,3.6007,3.6006,3.6007,3.6006,3.6007,3.6009,3.601,3.5992,3.5992,3.5998,3.5985,3.5967,3.5968,3.5953,3.5917,3.5897,3.5887,3.5862,2.7575,2.7889,2.7889,2.7947,2.8046,2.8463,2.8646,2.8693,2.9082,2.9275,2.9213,2.919,2.9167,2.9068,2.9045,2.9029,2.9068,2.9021,2.9335,2.9534,2.9761,3.0086,3.0423,3.0865,3.1021,3.11,3.1254,3.1519,3.1538,3.1538,3.1538,3.167,3.1498,3.1821,3.2317,3.2369,3.275,3.3172,3.3441,3.3555,3.3587,3.3629,3.3643,3.3643,3.3661,3.3675,3.3675,3.3675,3.382,3.3998,3.4036,3.4179,3.4353,3.4323,3.4475,3.4682,3.4663,3.4792,3.4936,3.5001,3.4992,3.5029,3.5038,3.5084,3.511,3.5119,3.5119,3.5119,3.5136,3.5153,3.5189,3.5179,3.5179,3.5185,3.5182,3.5203,3.5232,3.5247,3.527,3.5285,3.5288,3.5309,3.535,3.5372,3.5412,3.5475,3.5563,3.5605,3.5611,3.5678,3.5774,3.5849,3.5975,3.5986,3.5986,3.5958,3.5909,3.594,3.5962,3.5986,3.6011,3.6015,3.6019,3.6013,3.6013,3.6015,3.6017,3.6015,3.5999,3.5999,3.5985,3.5961,3.5978,3.597,3.5937,2.7565,2.7715,2.759,2.7665,2.787,2.8091,2.8277,2.8486,2.8692,2.8787,2.8811,2.8865,2.8865,2.8811,2.8787,2.8795,2.8811,2.8787,2.9013,2.9241,2.9451,2.9854,3.0175,3.0464,3.0865,3.1041,3.1235,3.1406,3.146,3.1443,3.1406,3.1404,3.1406,3.154,3.1877,3.2144,3.242,3.2715,3.3096,3.3265,3.3339,3.3444,3.3577,3.3605,3.3605,3.3591,3.3605,3.3605,3.3684,3.3793,3.3802,3.3842,3.3935,3.3923,3.408,3.4249,3.4348,3.4428,3.4641,3.4742,3.4742,3.4752,3.4711,3.4649,3.4628,3.4649,3.4879,3.4908,3.5092,3.5127,3.5127,3.5127,3.5136,3.5126,3.5134,3.5141,3.5157,3.5157,3.5174,3.5174,3.5171,3.5179,3.5215,3.5203,3.5239,3.5247,3.535,3.5438,3.5451,3.547,3.5586,3.5676,3.5768,3.5824,3.5794,3.5771,3.5771,3.5814,3.5875,3.5921,3.5951,3.6001,3.6005,3.5973,3.597,3.6007,3.6005,3.5975,3.6003,3.6011,3.6009,3.6011,3.6005,3.6003,3.5978,2.7449,2.7261,2.7122,2.724,2.7625,2.7765,2.8005,2.8299,2.8387,2.8436,2.8468,2.8621,2.8525,2.8468,2.8411,2.8411,2.846,2.8541,2.8732,2.8881,2.8997,2.9287,2.9717,3.0208,3.0481,3.0767,3.1024,3.1196,3.1344,3.1291,3.1235,3.1237,3.1293,3.1349,3.1545,3.1732,3.195,3.2351,3.2668,3.2862,3.305,3.3294,3.3491,3.3563,3.3577,3.3577,3.3577,3.3577,3.3577,3.3577,3.3591,3.3591,3.3605,3.3601,3.3748,3.3902,3.3979,3.4074,3.4213,3.4333,3.4305,3.4257,3.4216,3.4197,3.4209,3.4321,3.4556,3.4701,3.4879,3.4945,3.4945,3.4955,3.4955,3.5047,3.5047,3.5084,3.5092,3.5092,3.5101,3.5101,3.5101,3.5101,3.5101,3.5082,3.5101,3.5092,3.5127,3.5185,3.5239,3.5289,3.5359,3.54,3.5461,3.5508,3.5577,3.5602,3.5611,3.5611,3.5666,3.5797,3.5875,3.5853,3.585,3.5894,3.5919,3.5894,3.5911,3.5906,3.5938,3.5968,3.5975,3.5973,3.5953,3.5953,3.5977,2.6244,2.6231,2.6484,2.6695,2.6852,2.7473,2.784,2.798,2.825,2.8411,2.8348,2.8396,2.8436,2.8411,2.8411,2.8411,2.8372,2.8387,2.8411,2.8541,2.8573,2.8724,2.902,2.9556,2.9739,3.0149,3.0563,3.072,3.1072,3.1095,3.1038,3.1058,3.119,3.1249,3.1308,3.1485,3.1714,3.2056,3.242,3.2685,3.3088,3.3289,3.3393,3.3437,3.3455,3.3437,3.3437,3.3419,3.3437,3.3422,3.3393,3.3364,3.3349,3.3364,3.3506,3.3629,3.368,3.381,3.3948,3.4018,3.3992,3.4049,3.4036,3.4061,3.4055,3.4068,3.4227,3.4227,3.4348,3.4405,3.4428,3.4453,3.4486,3.4753,3.486,3.4974,3.502,3.5066,3.5075,3.5075,3.5075,3.5075,3.5075,3.5075,3.5075,3.5075,3.5075,3.5117,3.5117,3.5134,3.5132,3.5171,3.5205,3.5292,3.5386,3.5424,3.5442,3.5434,3.5469,3.5587,3.564,3.5636,3.5665,3.5704,3.572,3.5683,3.5713,3.5756,3.5801,3.583,3.5883,3.5914,3.5894,3.5911,3.5903]}]]